<?xml version="1.0" encoding="UTF-8" standalone="no" ?>
<gpx xmlns="http://www.topografix.com/GPX/1/1" xmlns:xsi="http://www.w3.org/2001/XMLSchema-instance" xsi:schemaLocation="http://www.topografix.com/GPX/1/1 http://www.topografix.com/GPX/1/1/gpx.xsd" version="1.1" creator="VisuGPX - https://www.visugpx.com">
  <metadata>
    <name>Romme à Chalets de Vormy</name>
    <desc><![CDATA[en passant par la Tête de la Sallaz]]></desc>
  </metadata>
  <trk>
    <name><![CDATA[64385044 on GPSies.com]]></name>
    <trkseg>
      <trkpt lat="46.03" lon="6.57599">
        <ele>1288</ele>
        <time>2016-04-03T08:50:44Z</time>
      </trkpt>
      <trkpt lat="46.02992" lon="6.57597">
        <ele>1289</ele>
        <time>2016-04-03T08:51:10Z</time>
      </trkpt>
      <trkpt lat="46.02989" lon="6.57597">
        <ele>1289</ele>
        <time>2016-04-03T08:51:12Z</time>
      </trkpt>
      <trkpt lat="46.02984" lon="6.57596">
        <ele>1289</ele>
        <time>2016-04-03T08:51:17Z</time>
      </trkpt>
      <trkpt lat="46.0298" lon="6.57596">
        <ele>1289</ele>
        <time>2016-04-03T08:51:21Z</time>
      </trkpt>
      <trkpt lat="46.02971" lon="6.57594">
        <ele>1290</ele>
        <time>2016-04-03T08:51:29Z</time>
      </trkpt>
      <trkpt lat="46.02967" lon="6.57593">
        <ele>1291</ele>
        <time>2016-04-03T08:51:33Z</time>
      </trkpt>
      <trkpt lat="46.02964" lon="6.57592">
        <ele>1291</ele>
        <time>2016-04-03T08:51:37Z</time>
      </trkpt>
      <trkpt lat="46.02961" lon="6.57592">
        <ele>1291</ele>
        <time>2016-04-03T08:51:39Z</time>
      </trkpt>
      <trkpt lat="46.0296" lon="6.57592">
        <ele>1292</ele>
        <time>2016-04-03T08:51:41Z</time>
      </trkpt>
      <trkpt lat="46.02957" lon="6.57592">
        <ele>1292</ele>
        <time>2016-04-03T08:51:44Z</time>
      </trkpt>
      <trkpt lat="46.02955" lon="6.57592">
        <ele>1292</ele>
        <time>2016-04-03T08:51:46Z</time>
      </trkpt>
      <trkpt lat="46.02953" lon="6.57592">
        <ele>1292</ele>
        <time>2016-04-03T08:51:48Z</time>
      </trkpt>
      <trkpt lat="46.02952" lon="6.57592">
        <ele>1292</ele>
        <time>2016-04-03T08:51:49Z</time>
      </trkpt>
      <trkpt lat="46.02951" lon="6.57592">
        <ele>1293</ele>
        <time>2016-04-03T08:51:50Z</time>
      </trkpt>
      <trkpt lat="46.02947" lon="6.57592">
        <ele>1293</ele>
        <time>2016-04-03T08:51:54Z</time>
      </trkpt>
      <trkpt lat="46.02943" lon="6.57593">
        <ele>1294</ele>
        <time>2016-04-03T08:51:59Z</time>
      </trkpt>
      <trkpt lat="46.02938" lon="6.57593">
        <ele>1294</ele>
        <time>2016-04-03T08:52:03Z</time>
      </trkpt>
      <trkpt lat="46.02935" lon="6.57592">
        <ele>1295</ele>
        <time>2016-04-03T08:52:06Z</time>
      </trkpt>
      <trkpt lat="46.02934" lon="6.57592">
        <ele>1295</ele>
        <time>2016-04-03T08:52:07Z</time>
      </trkpt>
      <trkpt lat="46.02932" lon="6.57591">
        <ele>1295</ele>
        <time>2016-04-03T08:52:09Z</time>
      </trkpt>
      <trkpt lat="46.02928" lon="6.5759">
        <ele>1296</ele>
        <time>2016-04-03T08:52:13Z</time>
      </trkpt>
      <trkpt lat="46.02924" lon="6.57589">
        <ele>1297</ele>
        <time>2016-04-03T08:52:18Z</time>
      </trkpt>
      <trkpt lat="46.02923" lon="6.57589">
        <ele>1297</ele>
        <time>2016-04-03T08:52:19Z</time>
      </trkpt>
      <trkpt lat="46.0292" lon="6.5759">
        <ele>1297</ele>
        <time>2016-04-03T08:52:23Z</time>
      </trkpt>
      <trkpt lat="46.02915" lon="6.57591">
        <ele>1298</ele>
        <time>2016-04-03T08:52:28Z</time>
      </trkpt>
      <trkpt lat="46.02913" lon="6.57591">
        <ele>1298</ele>
        <time>2016-04-03T08:52:30Z</time>
      </trkpt>
      <trkpt lat="46.02911" lon="6.57592">
        <ele>1298</ele>
        <time>2016-04-03T08:52:31Z</time>
      </trkpt>
      <trkpt lat="46.02909" lon="6.57592">
        <ele>1299</ele>
        <time>2016-04-03T08:52:33Z</time>
      </trkpt>
      <trkpt lat="46.02907" lon="6.57592">
        <ele>1299</ele>
        <time>2016-04-03T08:52:35Z</time>
      </trkpt>
      <trkpt lat="46.02905" lon="6.57591">
        <ele>1299</ele>
        <time>2016-04-03T08:52:38Z</time>
      </trkpt>
      <trkpt lat="46.02899" lon="6.57593">
        <ele>1300</ele>
        <time>2016-04-03T08:52:43Z</time>
      </trkpt>
      <trkpt lat="46.02893" lon="6.57593">
        <ele>1301</ele>
        <time>2016-04-03T08:52:49Z</time>
      </trkpt>
      <trkpt lat="46.0289" lon="6.57594">
        <ele>1302</ele>
        <time>2016-04-03T08:52:52Z</time>
      </trkpt>
      <trkpt lat="46.02887" lon="6.57593">
        <ele>1302</ele>
        <time>2016-04-03T08:52:56Z</time>
      </trkpt>
      <trkpt lat="46.02885" lon="6.57592">
        <ele>1303</ele>
        <time>2016-04-03T08:52:58Z</time>
      </trkpt>
      <trkpt lat="46.02882" lon="6.57592">
        <ele>1303</ele>
        <time>2016-04-03T08:53:02Z</time>
      </trkpt>
      <trkpt lat="46.02881" lon="6.57592">
        <ele>1303</ele>
        <time>2016-04-03T08:53:03Z</time>
      </trkpt>
      <trkpt lat="46.02879" lon="6.57593">
        <ele>1304</ele>
        <time>2016-04-03T08:53:05Z</time>
      </trkpt>
      <trkpt lat="46.02877" lon="6.57594">
        <ele>1304</ele>
        <time>2016-04-03T08:53:08Z</time>
      </trkpt>
      <trkpt lat="46.02874" lon="6.57594">
        <ele>1304</ele>
        <time>2016-04-03T08:53:11Z</time>
      </trkpt>
      <trkpt lat="46.02867" lon="6.57593">
        <ele>1305</ele>
        <time>2016-04-03T08:53:18Z</time>
      </trkpt>
      <trkpt lat="46.02866" lon="6.57593">
        <ele>1306</ele>
        <time>2016-04-03T08:53:19Z</time>
      </trkpt>
      <trkpt lat="46.02861" lon="6.57593">
        <ele>1307</ele>
        <time>2016-04-03T08:53:25Z</time>
      </trkpt>
      <trkpt lat="46.02858" lon="6.57592">
        <ele>1307</ele>
        <time>2016-04-03T08:53:28Z</time>
      </trkpt>
      <trkpt lat="46.02857" lon="6.57592">
        <ele>1307</ele>
        <time>2016-04-03T08:53:30Z</time>
      </trkpt>
      <trkpt lat="46.02855" lon="6.57591">
        <ele>1308</ele>
        <time>2016-04-03T08:53:33Z</time>
      </trkpt>
      <trkpt lat="46.02854" lon="6.57591">
        <ele>1308</ele>
        <time>2016-04-03T08:53:34Z</time>
      </trkpt>
      <trkpt lat="46.02847" lon="6.57591">
        <ele>1309</ele>
        <time>2016-04-03T08:53:41Z</time>
      </trkpt>
      <trkpt lat="46.02843" lon="6.57591">
        <ele>1309</ele>
        <time>2016-04-03T08:53:45Z</time>
      </trkpt>
      <trkpt lat="46.02842" lon="6.57591">
        <ele>1309</ele>
        <time>2016-04-03T08:53:47Z</time>
      </trkpt>
      <trkpt lat="46.02838" lon="6.57591">
        <ele>1309</ele>
        <time>2016-04-03T08:53:50Z</time>
      </trkpt>
      <trkpt lat="46.02836" lon="6.57592">
        <ele>1310</ele>
        <time>2016-04-03T08:53:52Z</time>
      </trkpt>
      <trkpt lat="46.02832" lon="6.57592">
        <ele>1310</ele>
        <time>2016-04-03T08:53:56Z</time>
      </trkpt>
      <trkpt lat="46.02829" lon="6.57593">
        <ele>1311</ele>
        <time>2016-04-03T08:53:59Z</time>
      </trkpt>
      <trkpt lat="46.02828" lon="6.57593">
        <ele>1311</ele>
        <time>2016-04-03T08:54:00Z</time>
      </trkpt>
      <trkpt lat="46.02828" lon="6.57593">
        <ele>1311</ele>
        <time>2016-04-03T08:54:01Z</time>
      </trkpt>
      <trkpt lat="46.02826" lon="6.57593">
        <ele>1311</ele>
        <time>2016-04-03T08:54:03Z</time>
      </trkpt>
      <trkpt lat="46.02822" lon="6.57594">
        <ele>1311</ele>
        <time>2016-04-03T08:54:07Z</time>
      </trkpt>
      <trkpt lat="46.02819" lon="6.57594">
        <ele>1312</ele>
        <time>2016-04-03T08:54:10Z</time>
      </trkpt>
      <trkpt lat="46.02818" lon="6.57594">
        <ele>1312</ele>
        <time>2016-04-03T08:54:11Z</time>
      </trkpt>
      <trkpt lat="46.02817" lon="6.57594">
        <ele>1312</ele>
        <time>2016-04-03T08:54:12Z</time>
      </trkpt>
      <trkpt lat="46.02815" lon="6.57594">
        <ele>1312</ele>
        <time>2016-04-03T08:54:14Z</time>
      </trkpt>
      <trkpt lat="46.02809" lon="6.57594">
        <ele>1313</ele>
        <time>2016-04-03T08:54:20Z</time>
      </trkpt>
      <trkpt lat="46.02809" lon="6.57594">
        <ele>1313</ele>
        <time>2016-04-03T08:54:21Z</time>
      </trkpt>
      <trkpt lat="46.02805" lon="6.57594">
        <ele>1313</ele>
        <time>2016-04-03T08:54:25Z</time>
      </trkpt>
      <trkpt lat="46.02803" lon="6.57592">
        <ele>1314</ele>
        <time>2016-04-03T08:54:28Z</time>
      </trkpt>
      <trkpt lat="46.02801" lon="6.57593">
        <ele>1314</ele>
        <time>2016-04-03T08:54:30Z</time>
      </trkpt>
      <trkpt lat="46.02797" lon="6.57593">
        <ele>1315</ele>
        <time>2016-04-03T08:54:35Z</time>
      </trkpt>
      <trkpt lat="46.02795" lon="6.57593">
        <ele>1315</ele>
        <time>2016-04-03T08:54:37Z</time>
      </trkpt>
      <trkpt lat="46.02792" lon="6.57593">
        <ele>1316</ele>
        <time>2016-04-03T08:54:41Z</time>
      </trkpt>
      <trkpt lat="46.0279" lon="6.57593">
        <ele>1316</ele>
        <time>2016-04-03T08:54:43Z</time>
      </trkpt>
      <trkpt lat="46.02789" lon="6.57593">
        <ele>1316</ele>
        <time>2016-04-03T08:54:44Z</time>
      </trkpt>
      <trkpt lat="46.02786" lon="6.57593">
        <ele>1317</ele>
        <time>2016-04-03T08:54:47Z</time>
      </trkpt>
      <trkpt lat="46.02783" lon="6.57591">
        <ele>1317</ele>
        <time>2016-04-03T08:54:50Z</time>
      </trkpt>
      <trkpt lat="46.02781" lon="6.57589">
        <ele>1318</ele>
        <time>2016-04-03T08:54:53Z</time>
      </trkpt>
      <trkpt lat="46.02779" lon="6.57587">
        <ele>1318</ele>
        <time>2016-04-03T08:54:55Z</time>
      </trkpt>
      <trkpt lat="46.02777" lon="6.57586">
        <ele>1318</ele>
        <time>2016-04-03T08:54:57Z</time>
      </trkpt>
      <trkpt lat="46.02774" lon="6.57584">
        <ele>1319</ele>
        <time>2016-04-03T08:54:59Z</time>
      </trkpt>
      <trkpt lat="46.0277" lon="6.57582">
        <ele>1319</ele>
        <time>2016-04-03T08:55:04Z</time>
      </trkpt>
      <trkpt lat="46.02768" lon="6.57582">
        <ele>1319</ele>
        <time>2016-04-03T08:55:06Z</time>
      </trkpt>
      <trkpt lat="46.02767" lon="6.57582">
        <ele>1320</ele>
        <time>2016-04-03T08:55:07Z</time>
      </trkpt>
      <trkpt lat="46.02765" lon="6.57583">
        <ele>1320</ele>
        <time>2016-04-03T08:55:09Z</time>
      </trkpt>
      <trkpt lat="46.02762" lon="6.57583">
        <ele>1320</ele>
        <time>2016-04-03T08:55:12Z</time>
      </trkpt>
      <trkpt lat="46.02759" lon="6.57584">
        <ele>1321</ele>
        <time>2016-04-03T08:55:15Z</time>
      </trkpt>
      <trkpt lat="46.02754" lon="6.57583">
        <ele>1321</ele>
        <time>2016-04-03T08:55:21Z</time>
      </trkpt>
      <trkpt lat="46.02752" lon="6.57584">
        <ele>1322</ele>
        <time>2016-04-03T08:55:23Z</time>
      </trkpt>
      <trkpt lat="46.02751" lon="6.57585">
        <ele>1322</ele>
        <time>2016-04-03T08:55:25Z</time>
      </trkpt>
      <trkpt lat="46.02748" lon="6.57587">
        <ele>1323</ele>
        <time>2016-04-03T08:55:28Z</time>
      </trkpt>
      <trkpt lat="46.02746" lon="6.5759">
        <ele>1323</ele>
        <time>2016-04-03T08:55:30Z</time>
      </trkpt>
      <trkpt lat="46.02745" lon="6.5759">
        <ele>1323</ele>
        <time>2016-04-03T08:55:31Z</time>
      </trkpt>
      <trkpt lat="46.02738" lon="6.57595">
        <ele>1324</ele>
        <time>2016-04-03T08:55:39Z</time>
      </trkpt>
      <trkpt lat="46.02737" lon="6.57597">
        <ele>1324</ele>
        <time>2016-04-03T08:55:41Z</time>
      </trkpt>
      <trkpt lat="46.02734" lon="6.57599">
        <ele>1325</ele>
        <time>2016-04-03T08:55:44Z</time>
      </trkpt>
      <trkpt lat="46.02729" lon="6.57602">
        <ele>1326</ele>
        <time>2016-04-03T08:55:50Z</time>
      </trkpt>
      <trkpt lat="46.02728" lon="6.57603">
        <ele>1326</ele>
        <time>2016-04-03T08:55:51Z</time>
      </trkpt>
      <trkpt lat="46.02724" lon="6.57607">
        <ele>1327</ele>
        <time>2016-04-03T08:55:56Z</time>
      </trkpt>
      <trkpt lat="46.02722" lon="6.57608">
        <ele>1328</ele>
        <time>2016-04-03T08:55:59Z</time>
      </trkpt>
      <trkpt lat="46.0272" lon="6.5761">
        <ele>1328</ele>
        <time>2016-04-03T08:56:02Z</time>
      </trkpt>
      <trkpt lat="46.02717" lon="6.57612">
        <ele>1329</ele>
        <time>2016-04-03T08:56:05Z</time>
      </trkpt>
      <trkpt lat="46.02715" lon="6.57614">
        <ele>1330</ele>
        <time>2016-04-03T08:56:08Z</time>
      </trkpt>
      <trkpt lat="46.02713" lon="6.57616">
        <ele>1330</ele>
        <time>2016-04-03T08:56:11Z</time>
      </trkpt>
      <trkpt lat="46.0271" lon="6.57619">
        <ele>1331</ele>
        <time>2016-04-03T08:56:15Z</time>
      </trkpt>
      <trkpt lat="46.02705" lon="6.57621">
        <ele>1332</ele>
        <time>2016-04-03T08:56:21Z</time>
      </trkpt>
      <trkpt lat="46.02702" lon="6.57621">
        <ele>1332</ele>
        <time>2016-04-03T08:56:24Z</time>
      </trkpt>
      <trkpt lat="46.027" lon="6.57621">
        <ele>1333</ele>
        <time>2016-04-03T08:56:28Z</time>
      </trkpt>
      <trkpt lat="46.02698" lon="6.57621">
        <ele>1333</ele>
        <time>2016-04-03T08:56:30Z</time>
      </trkpt>
      <trkpt lat="46.02695" lon="6.57623">
        <ele>1334</ele>
        <time>2016-04-03T08:56:33Z</time>
      </trkpt>
      <trkpt lat="46.02691" lon="6.57626">
        <ele>1335</ele>
        <time>2016-04-03T08:56:38Z</time>
      </trkpt>
      <trkpt lat="46.02691" lon="6.57627">
        <ele>1335</ele>
        <time>2016-04-03T08:56:39Z</time>
      </trkpt>
      <trkpt lat="46.02688" lon="6.5763">
        <ele>1336</ele>
        <time>2016-04-03T08:56:43Z</time>
      </trkpt>
      <trkpt lat="46.02687" lon="6.57631">
        <ele>1336</ele>
        <time>2016-04-03T08:56:45Z</time>
      </trkpt>
      <trkpt lat="46.02686" lon="6.57632">
        <ele>1336</ele>
        <time>2016-04-03T08:56:46Z</time>
      </trkpt>
      <trkpt lat="46.02685" lon="6.57634">
        <ele>1337</ele>
        <time>2016-04-03T08:56:49Z</time>
      </trkpt>
      <trkpt lat="46.02684" lon="6.57636">
        <ele>1337</ele>
        <time>2016-04-03T08:56:53Z</time>
      </trkpt>
      <trkpt lat="46.02683" lon="6.57642">
        <ele>1338</ele>
        <time>2016-04-03T08:57:00Z</time>
      </trkpt>
      <trkpt lat="46.02681" lon="6.57649">
        <ele>1340</ele>
        <time>2016-04-03T08:57:07Z</time>
      </trkpt>
      <trkpt lat="46.02677" lon="6.57654">
        <ele>1341</ele>
        <time>2016-04-03T08:57:13Z</time>
      </trkpt>
      <trkpt lat="46.02676" lon="6.57656">
        <ele>1341</ele>
        <time>2016-04-03T08:57:15Z</time>
      </trkpt>
      <trkpt lat="46.02673" lon="6.57657">
        <ele>1342</ele>
        <time>2016-04-03T08:57:18Z</time>
      </trkpt>
      <trkpt lat="46.02673" lon="6.57658">
        <ele>1342</ele>
        <time>2016-04-03T08:57:19Z</time>
      </trkpt>
      <trkpt lat="46.02671" lon="6.5766">
        <ele>1342</ele>
        <time>2016-04-03T08:57:21Z</time>
      </trkpt>
      <trkpt lat="46.02668" lon="6.57664">
        <ele>1342</ele>
        <time>2016-04-03T08:57:25Z</time>
      </trkpt>
      <trkpt lat="46.02666" lon="6.57666">
        <ele>1343</ele>
        <time>2016-04-03T08:57:29Z</time>
      </trkpt>
      <trkpt lat="46.02665" lon="6.57667">
        <ele>1343</ele>
        <time>2016-04-03T08:57:30Z</time>
      </trkpt>
      <trkpt lat="46.02663" lon="6.57669">
        <ele>1343</ele>
        <time>2016-04-03T08:57:33Z</time>
      </trkpt>
      <trkpt lat="46.02661" lon="6.5767">
        <ele>1344</ele>
        <time>2016-04-03T08:57:35Z</time>
      </trkpt>
      <trkpt lat="46.02659" lon="6.57673">
        <ele>1344</ele>
        <time>2016-04-03T08:57:39Z</time>
      </trkpt>
      <trkpt lat="46.02656" lon="6.57676">
        <ele>1345</ele>
        <time>2016-04-03T08:57:44Z</time>
      </trkpt>
      <trkpt lat="46.02652" lon="6.57683">
        <ele>1346</ele>
        <time>2016-04-03T08:57:50Z</time>
      </trkpt>
      <trkpt lat="46.0265" lon="6.57685">
        <ele>1346</ele>
        <time>2016-04-03T08:57:53Z</time>
      </trkpt>
      <trkpt lat="46.02649" lon="6.57687">
        <ele>1347</ele>
        <time>2016-04-03T08:57:55Z</time>
      </trkpt>
      <trkpt lat="46.02649" lon="6.5769">
        <ele>1347</ele>
        <time>2016-04-03T08:57:57Z</time>
      </trkpt>
      <trkpt lat="46.02648" lon="6.57691">
        <ele>1347</ele>
        <time>2016-04-03T08:57:58Z</time>
      </trkpt>
      <trkpt lat="46.02646" lon="6.57695">
        <ele>1348</ele>
        <time>2016-04-03T08:58:03Z</time>
      </trkpt>
      <trkpt lat="46.02645" lon="6.57699">
        <ele>1349</ele>
        <time>2016-04-03T08:58:10Z</time>
      </trkpt>
      <trkpt lat="46.02642" lon="6.57702">
        <ele>1351</ele>
        <time>2016-04-03T08:58:16Z</time>
      </trkpt>
      <trkpt lat="46.02641" lon="6.57708">
        <ele>1352</ele>
        <time>2016-04-03T08:58:23Z</time>
      </trkpt>
      <trkpt lat="46.02639" lon="6.57711">
        <ele>1352</ele>
        <time>2016-04-03T08:58:26Z</time>
      </trkpt>
      <trkpt lat="46.02634" lon="6.5771">
        <ele>1353</ele>
        <time>2016-04-03T08:58:29Z</time>
      </trkpt>
      <trkpt lat="46.02633" lon="6.5771">
        <ele>1353</ele>
        <time>2016-04-03T08:58:30Z</time>
      </trkpt>
      <trkpt lat="46.02631" lon="6.57709">
        <ele>1353</ele>
        <time>2016-04-03T08:58:33Z</time>
      </trkpt>
      <trkpt lat="46.02626" lon="6.57708">
        <ele>1354</ele>
        <time>2016-04-03T08:58:38Z</time>
      </trkpt>
      <trkpt lat="46.02622" lon="6.57707">
        <ele>1355</ele>
        <time>2016-04-03T08:58:43Z</time>
      </trkpt>
      <trkpt lat="46.02621" lon="6.57707">
        <ele>1355</ele>
        <time>2016-04-03T08:58:44Z</time>
      </trkpt>
      <trkpt lat="46.0262" lon="6.57707">
        <ele>1355</ele>
        <time>2016-04-03T08:58:46Z</time>
      </trkpt>
      <trkpt lat="46.02616" lon="6.57705">
        <ele>1356</ele>
        <time>2016-04-03T08:58:50Z</time>
      </trkpt>
      <trkpt lat="46.02616" lon="6.57704">
        <ele>1356</ele>
        <time>2016-04-03T08:58:51Z</time>
      </trkpt>
      <trkpt lat="46.02614" lon="6.57704">
        <ele>1357</ele>
        <time>2016-04-03T08:58:53Z</time>
      </trkpt>
      <trkpt lat="46.02612" lon="6.57704">
        <ele>1357</ele>
        <time>2016-04-03T08:58:55Z</time>
      </trkpt>
      <trkpt lat="46.02612" lon="6.57704">
        <ele>1357</ele>
        <time>2016-04-03T08:58:56Z</time>
      </trkpt>
      <trkpt lat="46.02608" lon="6.57701">
        <ele>1358</ele>
        <time>2016-04-03T08:59:04Z</time>
      </trkpt>
      <trkpt lat="46.02606" lon="6.577">
        <ele>1358</ele>
        <time>2016-04-03T08:59:06Z</time>
      </trkpt>
      <trkpt lat="46.02604" lon="6.57699">
        <ele>1359</ele>
        <time>2016-04-03T08:59:08Z</time>
      </trkpt>
      <trkpt lat="46.02603" lon="6.57698">
        <ele>1359</ele>
        <time>2016-04-03T08:59:10Z</time>
      </trkpt>
      <trkpt lat="46.02601" lon="6.57697">
        <ele>1359</ele>
        <time>2016-04-03T08:59:12Z</time>
      </trkpt>
      <trkpt lat="46.026" lon="6.57697">
        <ele>1360</ele>
        <time>2016-04-03T08:59:13Z</time>
      </trkpt>
      <trkpt lat="46.026" lon="6.57695">
        <ele>1360</ele>
        <time>2016-04-03T08:59:18Z</time>
      </trkpt>
      <trkpt lat="46.02599" lon="6.57691">
        <ele>1360</ele>
        <time>2016-04-03T09:00:36Z</time>
      </trkpt>
      <trkpt lat="46.02594" lon="6.57685">
        <ele>1361</ele>
        <time>2016-04-03T09:00:49Z</time>
      </trkpt>
      <trkpt lat="46.02592" lon="6.5768">
        <ele>1363</ele>
        <time>2016-04-03T09:00:55Z</time>
      </trkpt>
      <trkpt lat="46.0259" lon="6.57677">
        <ele>1364</ele>
        <time>2016-04-03T09:00:59Z</time>
      </trkpt>
      <trkpt lat="46.0259" lon="6.57674">
        <ele>1365</ele>
        <time>2016-04-03T09:01:04Z</time>
      </trkpt>
      <trkpt lat="46.02584" lon="6.57669">
        <ele>1366</ele>
        <time>2016-04-03T09:01:14Z</time>
      </trkpt>
      <trkpt lat="46.02574" lon="6.5766">
        <ele>1367</ele>
        <time>2016-04-03T09:01:28Z</time>
      </trkpt>
      <trkpt lat="46.02571" lon="6.57656">
        <ele>1368</ele>
        <time>2016-04-03T09:01:32Z</time>
      </trkpt>
      <trkpt lat="46.0257" lon="6.57655">
        <ele>1368</ele>
        <time>2016-04-03T09:01:34Z</time>
      </trkpt>
      <trkpt lat="46.02567" lon="6.5765">
        <ele>1369</ele>
        <time>2016-04-03T09:01:40Z</time>
      </trkpt>
      <trkpt lat="46.02566" lon="6.57651">
        <ele>1370</ele>
        <time>2016-04-03T09:01:45Z</time>
      </trkpt>
      <trkpt lat="46.02565" lon="6.57655">
        <ele>1371</ele>
        <time>2016-04-03T09:01:50Z</time>
      </trkpt>
      <trkpt lat="46.02564" lon="6.57659">
        <ele>1372</ele>
        <time>2016-04-03T09:01:53Z</time>
      </trkpt>
      <trkpt lat="46.02563" lon="6.57661">
        <ele>1373</ele>
        <time>2016-04-03T09:01:55Z</time>
      </trkpt>
      <trkpt lat="46.02562" lon="6.57665">
        <ele>1373</ele>
        <time>2016-04-03T09:01:58Z</time>
      </trkpt>
      <trkpt lat="46.02562" lon="6.57667">
        <ele>1373</ele>
        <time>2016-04-03T09:02:00Z</time>
      </trkpt>
      <trkpt lat="46.02562" lon="6.57668">
        <ele>1374</ele>
        <time>2016-04-03T09:02:02Z</time>
      </trkpt>
      <trkpt lat="46.02559" lon="6.57674">
        <ele>1374</ele>
        <time>2016-04-03T09:02:09Z</time>
      </trkpt>
      <trkpt lat="46.02557" lon="6.57679">
        <ele>1376</ele>
        <time>2016-04-03T09:02:15Z</time>
      </trkpt>
      <trkpt lat="46.02556" lon="6.57685">
        <ele>1377</ele>
        <time>2016-04-03T09:02:22Z</time>
      </trkpt>
      <trkpt lat="46.02555" lon="6.5769">
        <ele>1378</ele>
        <time>2016-04-03T09:02:27Z</time>
      </trkpt>
      <trkpt lat="46.02555" lon="6.57697">
        <ele>1379</ele>
        <time>2016-04-03T09:02:34Z</time>
      </trkpt>
      <trkpt lat="46.02554" lon="6.57704">
        <ele>1380</ele>
        <time>2016-04-03T09:02:41Z</time>
      </trkpt>
      <trkpt lat="46.02553" lon="6.57708">
        <ele>1381</ele>
        <time>2016-04-03T09:02:46Z</time>
      </trkpt>
      <trkpt lat="46.02552" lon="6.57714">
        <ele>1382</ele>
        <time>2016-04-03T09:02:52Z</time>
      </trkpt>
      <trkpt lat="46.02551" lon="6.57719">
        <ele>1383</ele>
        <time>2016-04-03T09:02:58Z</time>
      </trkpt>
      <trkpt lat="46.02548" lon="6.57725">
        <ele>1384</ele>
        <time>2016-04-03T09:03:05Z</time>
      </trkpt>
      <trkpt lat="46.02548" lon="6.57731">
        <ele>1385</ele>
        <time>2016-04-03T09:03:12Z</time>
      </trkpt>
      <trkpt lat="46.02547" lon="6.57737">
        <ele>1386</ele>
        <time>2016-04-03T09:03:19Z</time>
      </trkpt>
      <trkpt lat="46.02546" lon="6.57742">
        <ele>1388</ele>
        <time>2016-04-03T09:03:24Z</time>
      </trkpt>
      <trkpt lat="46.02545" lon="6.57749">
        <ele>1389</ele>
        <time>2016-04-03T09:03:31Z</time>
      </trkpt>
      <trkpt lat="46.02544" lon="6.57754">
        <ele>1390</ele>
        <time>2016-04-03T09:03:37Z</time>
      </trkpt>
      <trkpt lat="46.02542" lon="6.57762">
        <ele>1391</ele>
        <time>2016-04-03T09:03:45Z</time>
      </trkpt>
      <trkpt lat="46.0254" lon="6.5777">
        <ele>1392</ele>
        <time>2016-04-03T09:03:52Z</time>
      </trkpt>
      <trkpt lat="46.02539" lon="6.57775">
        <ele>1393</ele>
        <time>2016-04-03T09:03:58Z</time>
      </trkpt>
      <trkpt lat="46.02537" lon="6.57782">
        <ele>1394</ele>
        <time>2016-04-03T09:04:05Z</time>
      </trkpt>
      <trkpt lat="46.02535" lon="6.57787">
        <ele>1395</ele>
        <time>2016-04-03T09:04:13Z</time>
      </trkpt>
      <trkpt lat="46.0253" lon="6.57783">
        <ele>1396</ele>
        <time>2016-04-03T09:04:27Z</time>
      </trkpt>
      <trkpt lat="46.02526" lon="6.57778">
        <ele>1397</ele>
        <time>2016-04-03T09:04:34Z</time>
      </trkpt>
      <trkpt lat="46.02524" lon="6.57775">
        <ele>1399</ele>
        <time>2016-04-03T09:04:38Z</time>
      </trkpt>
      <trkpt lat="46.02522" lon="6.57773">
        <ele>1400</ele>
        <time>2016-04-03T09:04:42Z</time>
      </trkpt>
      <trkpt lat="46.02519" lon="6.57773">
        <ele>1401</ele>
        <time>2016-04-03T09:04:46Z</time>
      </trkpt>
      <trkpt lat="46.02515" lon="6.57773">
        <ele>1402</ele>
        <time>2016-04-03T09:04:52Z</time>
      </trkpt>
      <trkpt lat="46.02512" lon="6.57773">
        <ele>1403</ele>
        <time>2016-04-03T09:04:57Z</time>
      </trkpt>
      <trkpt lat="46.02508" lon="6.5777">
        <ele>1404</ele>
        <time>2016-04-03T09:05:04Z</time>
      </trkpt>
      <trkpt lat="46.02506" lon="6.5777">
        <ele>1405</ele>
        <time>2016-04-03T09:05:10Z</time>
      </trkpt>
      <trkpt lat="46.025" lon="6.57768">
        <ele>1406</ele>
        <time>2016-04-03T09:05:20Z</time>
      </trkpt>
      <trkpt lat="46.02496" lon="6.5777">
        <ele>1407</ele>
        <time>2016-04-03T09:05:26Z</time>
      </trkpt>
      <trkpt lat="46.02495" lon="6.57773">
        <ele>1408</ele>
        <time>2016-04-03T09:05:29Z</time>
      </trkpt>
      <trkpt lat="46.02496" lon="6.57776">
        <ele>1410</ele>
        <time>2016-04-03T09:05:34Z</time>
      </trkpt>
      <trkpt lat="46.02498" lon="6.57784">
        <ele>1411</ele>
        <time>2016-04-03T09:05:43Z</time>
      </trkpt>
      <trkpt lat="46.02497" lon="6.57789">
        <ele>1412</ele>
        <time>2016-04-03T09:05:49Z</time>
      </trkpt>
      <trkpt lat="46.02497" lon="6.57793">
        <ele>1413</ele>
        <time>2016-04-03T09:05:54Z</time>
      </trkpt>
      <trkpt lat="46.02497" lon="6.57801">
        <ele>1414</ele>
        <time>2016-04-03T09:06:02Z</time>
      </trkpt>
      <trkpt lat="46.02497" lon="6.57808">
        <ele>1415</ele>
        <time>2016-04-03T09:06:09Z</time>
      </trkpt>
      <trkpt lat="46.02497" lon="6.57814">
        <ele>1416</ele>
        <time>2016-04-03T09:06:17Z</time>
      </trkpt>
      <trkpt lat="46.0249" lon="6.57809">
        <ele>1417</ele>
        <time>2016-04-03T09:06:29Z</time>
      </trkpt>
      <trkpt lat="46.02489" lon="6.57808">
        <ele>1418</ele>
        <time>2016-04-03T09:06:35Z</time>
      </trkpt>
      <trkpt lat="46.02484" lon="6.57809">
        <ele>1419</ele>
        <time>2016-04-03T09:06:44Z</time>
      </trkpt>
      <trkpt lat="46.0248" lon="6.57808">
        <ele>1420</ele>
        <time>2016-04-03T09:07:04Z</time>
      </trkpt>
      <trkpt lat="46.02478" lon="6.57807">
        <ele>1421</ele>
        <time>2016-04-03T09:07:08Z</time>
      </trkpt>
      <trkpt lat="46.02473" lon="6.57804">
        <ele>1423</ele>
        <time>2016-04-03T09:07:15Z</time>
      </trkpt>
      <trkpt lat="46.02471" lon="6.57803">
        <ele>1424</ele>
        <time>2016-04-03T09:07:18Z</time>
      </trkpt>
      <trkpt lat="46.0247" lon="6.57803">
        <ele>1424</ele>
        <time>2016-04-03T09:07:19Z</time>
      </trkpt>
      <trkpt lat="46.02464" lon="6.57799">
        <ele>1425</ele>
        <time>2016-04-03T09:07:30Z</time>
      </trkpt>
      <trkpt lat="46.02461" lon="6.57798">
        <ele>1426</ele>
        <time>2016-04-03T09:07:36Z</time>
      </trkpt>
      <trkpt lat="46.02459" lon="6.57798">
        <ele>1428</ele>
        <time>2016-04-03T09:07:48Z</time>
      </trkpt>
      <trkpt lat="46.02459" lon="6.578">
        <ele>1429</ele>
        <time>2016-04-03T09:07:50Z</time>
      </trkpt>
      <trkpt lat="46.0246" lon="6.57808">
        <ele>1430</ele>
        <time>2016-04-03T09:07:58Z</time>
      </trkpt>
      <trkpt lat="46.0246" lon="6.57815">
        <ele>1431</ele>
        <time>2016-04-03T09:08:05Z</time>
      </trkpt>
      <trkpt lat="46.0246" lon="6.5782">
        <ele>1432</ele>
        <time>2016-04-03T09:08:11Z</time>
      </trkpt>
      <trkpt lat="46.0246" lon="6.57826">
        <ele>1433</ele>
        <time>2016-04-03T09:08:16Z</time>
      </trkpt>
      <trkpt lat="46.02461" lon="6.57831">
        <ele>1434</ele>
        <time>2016-04-03T09:08:22Z</time>
      </trkpt>
      <trkpt lat="46.02461" lon="6.57836">
        <ele>1435</ele>
        <time>2016-04-03T09:08:27Z</time>
      </trkpt>
      <trkpt lat="46.02461" lon="6.57841">
        <ele>1437</ele>
        <time>2016-04-03T09:08:32Z</time>
      </trkpt>
      <trkpt lat="46.02462" lon="6.57846">
        <ele>1438</ele>
        <time>2016-04-03T09:08:37Z</time>
      </trkpt>
      <trkpt lat="46.02462" lon="6.57849">
        <ele>1439</ele>
        <time>2016-04-03T09:08:43Z</time>
      </trkpt>
      <trkpt lat="46.02462" lon="6.57857">
        <ele>1440</ele>
        <time>2016-04-03T09:09:02Z</time>
      </trkpt>
      <trkpt lat="46.02457" lon="6.57853">
        <ele>1441</ele>
        <time>2016-04-03T09:09:16Z</time>
      </trkpt>
      <trkpt lat="46.02453" lon="6.5785">
        <ele>1442</ele>
        <time>2016-04-03T09:09:21Z</time>
      </trkpt>
      <trkpt lat="46.02451" lon="6.57849">
        <ele>1442</ele>
        <time>2016-04-03T09:09:23Z</time>
      </trkpt>
      <trkpt lat="46.0245" lon="6.57848">
        <ele>1443</ele>
        <time>2016-04-03T09:09:25Z</time>
      </trkpt>
      <trkpt lat="46.02449" lon="6.57847">
        <ele>1443</ele>
        <time>2016-04-03T09:09:26Z</time>
      </trkpt>
      <trkpt lat="46.02448" lon="6.57846">
        <ele>1443</ele>
        <time>2016-04-03T09:09:27Z</time>
      </trkpt>
      <trkpt lat="46.02445" lon="6.57845">
        <ele>1444</ele>
        <time>2016-04-03T09:09:31Z</time>
      </trkpt>
      <trkpt lat="46.02442" lon="6.57844">
        <ele>1445</ele>
        <time>2016-04-03T09:09:36Z</time>
      </trkpt>
      <trkpt lat="46.02438" lon="6.57843">
        <ele>1446</ele>
        <time>2016-04-03T09:09:42Z</time>
      </trkpt>
      <trkpt lat="46.02436" lon="6.57841">
        <ele>1448</ele>
        <time>2016-04-03T09:10:09Z</time>
      </trkpt>
      <trkpt lat="46.02436" lon="6.57842">
        <ele>1449</ele>
        <time>2016-04-03T09:10:13Z</time>
      </trkpt>
      <trkpt lat="46.02435" lon="6.57846">
        <ele>1450</ele>
        <time>2016-04-03T09:10:17Z</time>
      </trkpt>
      <trkpt lat="46.02435" lon="6.5785">
        <ele>1451</ele>
        <time>2016-04-03T09:10:21Z</time>
      </trkpt>
      <trkpt lat="46.02436" lon="6.57857">
        <ele>1452</ele>
        <time>2016-04-03T09:10:28Z</time>
      </trkpt>
      <trkpt lat="46.02435" lon="6.57862">
        <ele>1453</ele>
        <time>2016-04-03T09:10:33Z</time>
      </trkpt>
      <trkpt lat="46.02435" lon="6.57867">
        <ele>1454</ele>
        <time>2016-04-03T09:10:40Z</time>
      </trkpt>
      <trkpt lat="46.02436" lon="6.57875">
        <ele>1455</ele>
        <time>2016-04-03T09:10:48Z</time>
      </trkpt>
      <trkpt lat="46.02435" lon="6.57881">
        <ele>1457</ele>
        <time>2016-04-03T09:10:55Z</time>
      </trkpt>
      <trkpt lat="46.02435" lon="6.57885">
        <ele>1458</ele>
        <time>2016-04-03T09:11:20Z</time>
      </trkpt>
      <trkpt lat="46.02424" lon="6.57879">
        <ele>1459</ele>
        <time>2016-04-03T09:11:52Z</time>
      </trkpt>
      <trkpt lat="46.02423" lon="6.57878">
        <ele>1459</ele>
        <time>2016-04-03T09:11:54Z</time>
      </trkpt>
      <trkpt lat="46.02422" lon="6.57877">
        <ele>1460</ele>
        <time>2016-04-03T09:11:56Z</time>
      </trkpt>
      <trkpt lat="46.0242" lon="6.57874">
        <ele>1461</ele>
        <time>2016-04-03T09:12:01Z</time>
      </trkpt>
      <trkpt lat="46.02418" lon="6.5787">
        <ele>1462</ele>
        <time>2016-04-03T09:12:05Z</time>
      </trkpt>
      <trkpt lat="46.02414" lon="6.57868">
        <ele>1463</ele>
        <time>2016-04-03T09:12:11Z</time>
      </trkpt>
      <trkpt lat="46.0241" lon="6.57863">
        <ele>1464</ele>
        <time>2016-04-03T09:12:18Z</time>
      </trkpt>
      <trkpt lat="46.02406" lon="6.57861">
        <ele>1465</ele>
        <time>2016-04-03T09:12:23Z</time>
      </trkpt>
      <trkpt lat="46.02403" lon="6.5786">
        <ele>1467</ele>
        <time>2016-04-03T09:12:29Z</time>
      </trkpt>
      <trkpt lat="46.02402" lon="6.5786">
        <ele>1468</ele>
        <time>2016-04-03T09:12:36Z</time>
      </trkpt>
      <trkpt lat="46.02401" lon="6.57864">
        <ele>1469</ele>
        <time>2016-04-03T09:12:51Z</time>
      </trkpt>
      <trkpt lat="46.02402" lon="6.57871">
        <ele>1470</ele>
        <time>2016-04-03T09:12:58Z</time>
      </trkpt>
      <trkpt lat="46.02402" lon="6.57874">
        <ele>1471</ele>
        <time>2016-04-03T09:13:03Z</time>
      </trkpt>
      <trkpt lat="46.02403" lon="6.5788">
        <ele>1472</ele>
        <time>2016-04-03T09:13:48Z</time>
      </trkpt>
      <trkpt lat="46.02398" lon="6.57877">
        <ele>1473</ele>
        <time>2016-04-03T09:14:08Z</time>
      </trkpt>
      <trkpt lat="46.02391" lon="6.57873">
        <ele>1474</ele>
        <time>2016-04-03T09:14:17Z</time>
      </trkpt>
      <trkpt lat="46.02389" lon="6.57872">
        <ele>1475</ele>
        <time>2016-04-03T09:14:26Z</time>
      </trkpt>
      <trkpt lat="46.02386" lon="6.5787">
        <ele>1476</ele>
        <time>2016-04-03T09:14:34Z</time>
      </trkpt>
      <trkpt lat="46.02386" lon="6.57869">
        <ele>1477</ele>
        <time>2016-04-03T09:14:38Z</time>
      </trkpt>
      <trkpt lat="46.02387" lon="6.5787">
        <ele>1478</ele>
        <time>2016-04-03T09:14:46Z</time>
      </trkpt>
      <trkpt lat="46.02387" lon="6.57876">
        <ele>1479</ele>
        <time>2016-04-03T09:15:01Z</time>
      </trkpt>
      <trkpt lat="46.02388" lon="6.57878">
        <ele>1480</ele>
        <time>2016-04-03T09:15:12Z</time>
      </trkpt>
      <trkpt lat="46.02389" lon="6.57884">
        <ele>1482</ele>
        <time>2016-04-03T09:15:22Z</time>
      </trkpt>
      <trkpt lat="46.02392" lon="6.57896">
        <ele>1483</ele>
        <time>2016-04-03T09:15:57Z</time>
      </trkpt>
      <trkpt lat="46.02392" lon="6.57899">
        <ele>1484</ele>
        <time>2016-04-03T09:16:05Z</time>
      </trkpt>
      <trkpt lat="46.02392" lon="6.57898">
        <ele>1484</ele>
        <time>2016-04-03T09:16:15Z</time>
      </trkpt>
      <trkpt lat="46.02393" lon="6.57908">
        <ele>1485</ele>
        <time>2016-04-03T09:16:47Z</time>
      </trkpt>
      <trkpt lat="46.0239" lon="6.57909">
        <ele>1486</ele>
        <time>2016-04-03T09:17:04Z</time>
      </trkpt>
      <trkpt lat="46.02385" lon="6.57904">
        <ele>1487</ele>
        <time>2016-04-03T09:17:11Z</time>
      </trkpt>
      <trkpt lat="46.02383" lon="6.57902">
        <ele>1488</ele>
        <time>2016-04-03T09:17:16Z</time>
      </trkpt>
      <trkpt lat="46.02379" lon="6.57899">
        <ele>1489</ele>
        <time>2016-04-03T09:17:22Z</time>
      </trkpt>
      <trkpt lat="46.02376" lon="6.57897">
        <ele>1490</ele>
        <time>2016-04-03T09:17:27Z</time>
      </trkpt>
      <trkpt lat="46.02374" lon="6.57896">
        <ele>1491</ele>
        <time>2016-04-03T09:17:45Z</time>
      </trkpt>
      <trkpt lat="46.02371" lon="6.57894">
        <ele>1492</ele>
        <time>2016-04-03T09:17:56Z</time>
      </trkpt>
      <trkpt lat="46.02372" lon="6.57902">
        <ele>1494</ele>
        <time>2016-04-03T09:18:08Z</time>
      </trkpt>
      <trkpt lat="46.02372" lon="6.57908">
        <ele>1495</ele>
        <time>2016-04-03T09:18:14Z</time>
      </trkpt>
      <trkpt lat="46.02372" lon="6.57914">
        <ele>1496</ele>
        <time>2016-04-03T09:18:20Z</time>
      </trkpt>
      <trkpt lat="46.02372" lon="6.57914">
        <ele>1497</ele>
        <time>2016-04-03T09:18:25Z</time>
      </trkpt>
      <trkpt lat="46.02373" lon="6.57914">
        <ele>1497</ele>
        <time>2016-04-03T09:18:27Z</time>
      </trkpt>
      <trkpt lat="46.0237" lon="6.57918">
        <ele>1498</ele>
        <time>2016-04-03T09:18:51Z</time>
      </trkpt>
      <trkpt lat="46.02366" lon="6.57915">
        <ele>1499</ele>
        <time>2016-04-03T09:18:56Z</time>
      </trkpt>
      <trkpt lat="46.02365" lon="6.57915">
        <ele>1499</ele>
        <time>2016-04-03T09:18:57Z</time>
      </trkpt>
      <trkpt lat="46.02365" lon="6.57915">
        <ele>1499</ele>
        <time>2016-04-03T09:18:58Z</time>
      </trkpt>
      <trkpt lat="46.02362" lon="6.57913">
        <ele>1500</ele>
        <time>2016-04-03T09:19:02Z</time>
      </trkpt>
      <trkpt lat="46.02359" lon="6.57911">
        <ele>1501</ele>
        <time>2016-04-03T09:19:06Z</time>
      </trkpt>
      <trkpt lat="46.02359" lon="6.57911">
        <ele>1502</ele>
        <time>2016-04-03T09:19:12Z</time>
      </trkpt>
      <trkpt lat="46.02355" lon="6.57911">
        <ele>1504</ele>
        <time>2016-04-03T09:19:26Z</time>
      </trkpt>
      <trkpt lat="46.02355" lon="6.57914">
        <ele>1505</ele>
        <time>2016-04-03T09:19:32Z</time>
      </trkpt>
      <trkpt lat="46.02357" lon="6.5792">
        <ele>1506</ele>
        <time>2016-04-03T09:19:39Z</time>
      </trkpt>
      <trkpt lat="46.02357" lon="6.57923">
        <ele>1507</ele>
        <time>2016-04-03T09:19:44Z</time>
      </trkpt>
      <trkpt lat="46.02357" lon="6.57929">
        <ele>1508</ele>
        <time>2016-04-03T09:20:07Z</time>
      </trkpt>
      <trkpt lat="46.02357" lon="6.57938">
        <ele>1509</ele>
        <time>2016-04-03T09:20:16Z</time>
      </trkpt>
      <trkpt lat="46.02357" lon="6.57943">
        <ele>1510</ele>
        <time>2016-04-03T09:20:20Z</time>
      </trkpt>
      <trkpt lat="46.02357" lon="6.57944">
        <ele>1510</ele>
        <time>2016-04-03T09:20:21Z</time>
      </trkpt>
      <trkpt lat="46.02358" lon="6.57948">
        <ele>1510</ele>
        <time>2016-04-03T09:20:24Z</time>
      </trkpt>
      <trkpt lat="46.02358" lon="6.57951">
        <ele>1511</ele>
        <time>2016-04-03T09:20:27Z</time>
      </trkpt>
      <trkpt lat="46.02359" lon="6.57953">
        <ele>1512</ele>
        <time>2016-04-03T09:20:29Z</time>
      </trkpt>
      <trkpt lat="46.02359" lon="6.57957">
        <ele>1512</ele>
        <time>2016-04-03T09:20:32Z</time>
      </trkpt>
      <trkpt lat="46.02358" lon="6.5796">
        <ele>1513</ele>
        <time>2016-04-03T09:20:37Z</time>
      </trkpt>
      <trkpt lat="46.02357" lon="6.57967">
        <ele>1515</ele>
        <time>2016-04-03T09:20:46Z</time>
      </trkpt>
      <trkpt lat="46.02357" lon="6.57969">
        <ele>1515</ele>
        <time>2016-04-03T09:20:48Z</time>
      </trkpt>
      <trkpt lat="46.02357" lon="6.57973">
        <ele>1516</ele>
        <time>2016-04-03T09:20:51Z</time>
      </trkpt>
      <trkpt lat="46.02357" lon="6.57975">
        <ele>1516</ele>
        <time>2016-04-03T09:20:53Z</time>
      </trkpt>
      <trkpt lat="46.02358" lon="6.57979">
        <ele>1517</ele>
        <time>2016-04-03T09:20:56Z</time>
      </trkpt>
      <trkpt lat="46.02357" lon="6.57985">
        <ele>1518</ele>
        <time>2016-04-03T09:21:01Z</time>
      </trkpt>
      <trkpt lat="46.02356" lon="6.57991">
        <ele>1519</ele>
        <time>2016-04-03T09:21:06Z</time>
      </trkpt>
      <trkpt lat="46.02356" lon="6.57992">
        <ele>1519</ele>
        <time>2016-04-03T09:21:07Z</time>
      </trkpt>
      <trkpt lat="46.02355" lon="6.57995">
        <ele>1519</ele>
        <time>2016-04-03T09:21:10Z</time>
      </trkpt>
      <trkpt lat="46.02354" lon="6.57997">
        <ele>1520</ele>
        <time>2016-04-03T09:21:13Z</time>
      </trkpt>
      <trkpt lat="46.02352" lon="6.58001">
        <ele>1521</ele>
        <time>2016-04-03T09:21:17Z</time>
      </trkpt>
      <trkpt lat="46.0235" lon="6.58003">
        <ele>1522</ele>
        <time>2016-04-03T09:21:21Z</time>
      </trkpt>
      <trkpt lat="46.0235" lon="6.58004">
        <ele>1523</ele>
        <time>2016-04-03T09:21:27Z</time>
      </trkpt>
      <trkpt lat="46.02348" lon="6.58012">
        <ele>1524</ele>
        <time>2016-04-03T09:21:35Z</time>
      </trkpt>
      <trkpt lat="46.02348" lon="6.58014">
        <ele>1525</ele>
        <time>2016-04-03T09:21:40Z</time>
      </trkpt>
      <trkpt lat="46.02345" lon="6.58022">
        <ele>1527</ele>
        <time>2016-04-03T09:21:49Z</time>
      </trkpt>
      <trkpt lat="46.02344" lon="6.58027">
        <ele>1528</ele>
        <time>2016-04-03T09:21:53Z</time>
      </trkpt>
      <trkpt lat="46.02341" lon="6.58031">
        <ele>1529</ele>
        <time>2016-04-03T09:21:58Z</time>
      </trkpt>
      <trkpt lat="46.0234" lon="6.58035">
        <ele>1530</ele>
        <time>2016-04-03T09:22:03Z</time>
      </trkpt>
      <trkpt lat="46.0234" lon="6.58038">
        <ele>1531</ele>
        <time>2016-04-03T09:22:09Z</time>
      </trkpt>
      <trkpt lat="46.02339" lon="6.58039">
        <ele>1531</ele>
        <time>2016-04-03T09:22:12Z</time>
      </trkpt>
      <trkpt lat="46.02337" lon="6.58048">
        <ele>1532</ele>
        <time>2016-04-03T09:22:22Z</time>
      </trkpt>
      <trkpt lat="46.02337" lon="6.5805">
        <ele>1532</ele>
        <time>2016-04-03T09:22:24Z</time>
      </trkpt>
      <trkpt lat="46.02336" lon="6.58054">
        <ele>1533</ele>
        <time>2016-04-03T09:22:28Z</time>
      </trkpt>
      <trkpt lat="46.02335" lon="6.58054">
        <ele>1533</ele>
        <time>2016-04-03T09:22:29Z</time>
      </trkpt>
      <trkpt lat="46.02334" lon="6.58059">
        <ele>1534</ele>
        <time>2016-04-03T09:22:37Z</time>
      </trkpt>
      <trkpt lat="46.02333" lon="6.58061">
        <ele>1535</ele>
        <time>2016-04-03T09:22:40Z</time>
      </trkpt>
      <trkpt lat="46.02333" lon="6.58061">
        <ele>1535</ele>
        <time>2016-04-03T09:22:42Z</time>
      </trkpt>
      <trkpt lat="46.0233" lon="6.58046">
        <ele>1535</ele>
        <time>2016-04-03T09:23:57Z</time>
      </trkpt>
      <trkpt lat="46.02331" lon="6.58051">
        <ele>1536</ele>
        <time>2016-04-03T09:24:21Z</time>
      </trkpt>
      <trkpt lat="46.02331" lon="6.58051">
        <ele>1535</ele>
        <time>2016-04-03T09:24:33Z</time>
      </trkpt>
      <trkpt lat="46.02329" lon="6.5804">
        <ele>1536</ele>
        <time>2016-04-03T09:25:15Z</time>
      </trkpt>
      <trkpt lat="46.0233" lon="6.58036">
        <ele>1536</ele>
        <time>2016-04-03T09:25:19Z</time>
      </trkpt>
      <trkpt lat="46.02326" lon="6.58028">
        <ele>1538</ele>
        <time>2016-04-03T09:25:28Z</time>
      </trkpt>
      <trkpt lat="46.02322" lon="6.58021">
        <ele>1539</ele>
        <time>2016-04-03T09:25:36Z</time>
      </trkpt>
      <trkpt lat="46.02321" lon="6.5802">
        <ele>1539</ele>
        <time>2016-04-03T09:25:37Z</time>
      </trkpt>
      <trkpt lat="46.0232" lon="6.58018">
        <ele>1539</ele>
        <time>2016-04-03T09:25:39Z</time>
      </trkpt>
      <trkpt lat="46.02317" lon="6.58013">
        <ele>1540</ele>
        <time>2016-04-03T09:25:44Z</time>
      </trkpt>
      <trkpt lat="46.02315" lon="6.58012">
        <ele>1540</ele>
        <time>2016-04-03T09:25:46Z</time>
      </trkpt>
      <trkpt lat="46.02311" lon="6.58008">
        <ele>1541</ele>
        <time>2016-04-03T09:25:52Z</time>
      </trkpt>
      <trkpt lat="46.0231" lon="6.58008">
        <ele>1541</ele>
        <time>2016-04-03T09:25:53Z</time>
      </trkpt>
      <trkpt lat="46.02307" lon="6.58004">
        <ele>1542</ele>
        <time>2016-04-03T09:25:56Z</time>
      </trkpt>
      <trkpt lat="46.02306" lon="6.58002">
        <ele>1542</ele>
        <time>2016-04-03T09:25:58Z</time>
      </trkpt>
      <trkpt lat="46.02303" lon="6.57997">
        <ele>1542</ele>
        <time>2016-04-03T09:26:04Z</time>
      </trkpt>
      <trkpt lat="46.02302" lon="6.57993">
        <ele>1543</ele>
        <time>2016-04-03T09:26:08Z</time>
      </trkpt>
      <trkpt lat="46.02299" lon="6.57988">
        <ele>1544</ele>
        <time>2016-04-03T09:26:16Z</time>
      </trkpt>
      <trkpt lat="46.02295" lon="6.57983">
        <ele>1545</ele>
        <time>2016-04-03T09:26:23Z</time>
      </trkpt>
      <trkpt lat="46.02291" lon="6.57979">
        <ele>1546</ele>
        <time>2016-04-03T09:26:29Z</time>
      </trkpt>
      <trkpt lat="46.02286" lon="6.57973">
        <ele>1547</ele>
        <time>2016-04-03T09:26:39Z</time>
      </trkpt>
      <trkpt lat="46.02281" lon="6.57964">
        <ele>1548</ele>
        <time>2016-04-03T09:26:51Z</time>
      </trkpt>
      <trkpt lat="46.02276" lon="6.5796">
        <ele>1550</ele>
        <time>2016-04-03T09:26:59Z</time>
      </trkpt>
      <trkpt lat="46.0227" lon="6.57954">
        <ele>1551</ele>
        <time>2016-04-03T09:27:07Z</time>
      </trkpt>
      <trkpt lat="46.02269" lon="6.57952">
        <ele>1551</ele>
        <time>2016-04-03T09:27:09Z</time>
      </trkpt>
      <trkpt lat="46.02268" lon="6.57951">
        <ele>1551</ele>
        <time>2016-04-03T09:27:11Z</time>
      </trkpt>
      <trkpt lat="46.02265" lon="6.57949">
        <ele>1551</ele>
        <time>2016-04-03T09:27:14Z</time>
      </trkpt>
      <trkpt lat="46.02264" lon="6.57949">
        <ele>1552</ele>
        <time>2016-04-03T09:27:15Z</time>
      </trkpt>
      <trkpt lat="46.02264" lon="6.57948">
        <ele>1552</ele>
        <time>2016-04-03T09:27:16Z</time>
      </trkpt>
      <trkpt lat="46.0226" lon="6.57944">
        <ele>1553</ele>
        <time>2016-04-03T09:27:23Z</time>
      </trkpt>
      <trkpt lat="46.02255" lon="6.5794">
        <ele>1553</ele>
        <time>2016-04-03T09:27:31Z</time>
      </trkpt>
      <trkpt lat="46.02255" lon="6.5794">
        <ele>1554</ele>
        <time>2016-04-03T09:27:33Z</time>
      </trkpt>
      <trkpt lat="46.02252" lon="6.5794">
        <ele>1555</ele>
        <time>2016-04-03T09:27:37Z</time>
      </trkpt>
      <trkpt lat="46.02246" lon="6.57937">
        <ele>1556</ele>
        <time>2016-04-03T09:27:54Z</time>
      </trkpt>
      <trkpt lat="46.0224" lon="6.57933">
        <ele>1557</ele>
        <time>2016-04-03T09:28:01Z</time>
      </trkpt>
      <trkpt lat="46.02235" lon="6.57932">
        <ele>1558</ele>
        <time>2016-04-03T09:28:06Z</time>
      </trkpt>
      <trkpt lat="46.02233" lon="6.57932">
        <ele>1559</ele>
        <time>2016-04-03T09:28:08Z</time>
      </trkpt>
      <trkpt lat="46.02232" lon="6.57933">
        <ele>1559</ele>
        <time>2016-04-03T09:28:10Z</time>
      </trkpt>
      <trkpt lat="46.02233" lon="6.57934">
        <ele>1561</ele>
        <time>2016-04-03T09:28:14Z</time>
      </trkpt>
      <trkpt lat="46.0224" lon="6.57937">
        <ele>1562</ele>
        <time>2016-04-03T09:28:19Z</time>
      </trkpt>
      <trkpt lat="46.02241" lon="6.57937">
        <ele>1562</ele>
        <time>2016-04-03T09:28:20Z</time>
      </trkpt>
      <trkpt lat="46.02244" lon="6.57939">
        <ele>1562</ele>
        <time>2016-04-03T09:28:22Z</time>
      </trkpt>
      <trkpt lat="46.02245" lon="6.5794">
        <ele>1562</ele>
        <time>2016-04-03T09:28:24Z</time>
      </trkpt>
      <trkpt lat="46.02252" lon="6.57945">
        <ele>1563</ele>
        <time>2016-04-03T09:28:31Z</time>
      </trkpt>
      <trkpt lat="46.02253" lon="6.57947">
        <ele>1563</ele>
        <time>2016-04-03T09:28:33Z</time>
      </trkpt>
      <trkpt lat="46.02255" lon="6.5795">
        <ele>1564</ele>
        <time>2016-04-03T09:28:36Z</time>
      </trkpt>
      <trkpt lat="46.02255" lon="6.57951">
        <ele>1564</ele>
        <time>2016-04-03T09:28:38Z</time>
      </trkpt>
      <trkpt lat="46.02255" lon="6.57959">
        <ele>1565</ele>
        <time>2016-04-03T09:28:45Z</time>
      </trkpt>
      <trkpt lat="46.02258" lon="6.57965">
        <ele>1566</ele>
        <time>2016-04-03T09:28:51Z</time>
      </trkpt>
      <trkpt lat="46.02256" lon="6.57972">
        <ele>1567</ele>
        <time>2016-04-03T09:29:13Z</time>
      </trkpt>
      <trkpt lat="46.02259" lon="6.5798">
        <ele>1568</ele>
        <time>2016-04-03T09:29:22Z</time>
      </trkpt>
      <trkpt lat="46.02261" lon="6.57987">
        <ele>1569</ele>
        <time>2016-04-03T09:29:30Z</time>
      </trkpt>
      <trkpt lat="46.02266" lon="6.57994">
        <ele>1571</ele>
        <time>2016-04-03T09:29:37Z</time>
      </trkpt>
      <trkpt lat="46.02267" lon="6.57997">
        <ele>1571</ele>
        <time>2016-04-03T09:29:40Z</time>
      </trkpt>
      <trkpt lat="46.02268" lon="6.58">
        <ele>1571</ele>
        <time>2016-04-03T09:29:43Z</time>
      </trkpt>
      <trkpt lat="46.02269" lon="6.58008">
        <ele>1572</ele>
        <time>2016-04-03T09:29:51Z</time>
      </trkpt>
      <trkpt lat="46.0227" lon="6.58014">
        <ele>1572</ele>
        <time>2016-04-03T09:29:55Z</time>
      </trkpt>
      <trkpt lat="46.0227" lon="6.58015">
        <ele>1573</ele>
        <time>2016-04-03T09:29:56Z</time>
      </trkpt>
      <trkpt lat="46.0227" lon="6.58018">
        <ele>1573</ele>
        <time>2016-04-03T09:29:58Z</time>
      </trkpt>
      <trkpt lat="46.02271" lon="6.58025">
        <ele>1574</ele>
        <time>2016-04-03T09:30:03Z</time>
      </trkpt>
      <trkpt lat="46.02271" lon="6.58026">
        <ele>1574</ele>
        <time>2016-04-03T09:30:04Z</time>
      </trkpt>
      <trkpt lat="46.0227" lon="6.5803">
        <ele>1574</ele>
        <time>2016-04-03T09:30:07Z</time>
      </trkpt>
      <trkpt lat="46.0227" lon="6.58032">
        <ele>1575</ele>
        <time>2016-04-03T09:30:09Z</time>
      </trkpt>
      <trkpt lat="46.0227" lon="6.58033">
        <ele>1575</ele>
        <time>2016-04-03T09:30:10Z</time>
      </trkpt>
      <trkpt lat="46.0227" lon="6.58034">
        <ele>1575</ele>
        <time>2016-04-03T09:30:11Z</time>
      </trkpt>
      <trkpt lat="46.02269" lon="6.58038">
        <ele>1576</ele>
        <time>2016-04-03T09:30:15Z</time>
      </trkpt>
      <trkpt lat="46.02269" lon="6.58041">
        <ele>1576</ele>
        <time>2016-04-03T09:30:17Z</time>
      </trkpt>
      <trkpt lat="46.02268" lon="6.58042">
        <ele>1576</ele>
        <time>2016-04-03T09:30:18Z</time>
      </trkpt>
      <trkpt lat="46.02268" lon="6.58045">
        <ele>1577</ele>
        <time>2016-04-03T09:30:23Z</time>
      </trkpt>
      <trkpt lat="46.02266" lon="6.58055">
        <ele>1578</ele>
        <time>2016-04-03T09:30:35Z</time>
      </trkpt>
      <trkpt lat="46.02265" lon="6.58057">
        <ele>1578</ele>
        <time>2016-04-03T09:30:36Z</time>
      </trkpt>
      <trkpt lat="46.02265" lon="6.58058">
        <ele>1579</ele>
        <time>2016-04-03T09:30:37Z</time>
      </trkpt>
      <trkpt lat="46.02264" lon="6.58064">
        <ele>1580</ele>
        <time>2016-04-03T09:30:41Z</time>
      </trkpt>
      <trkpt lat="46.02262" lon="6.58066">
        <ele>1581</ele>
        <time>2016-04-03T09:31:10Z</time>
      </trkpt>
      <trkpt lat="46.02259" lon="6.58075">
        <ele>1581</ele>
        <time>2016-04-03T09:32:09Z</time>
      </trkpt>
      <trkpt lat="46.02257" lon="6.5808">
        <ele>1582</ele>
        <time>2016-04-03T09:32:12Z</time>
      </trkpt>
      <trkpt lat="46.02253" lon="6.58088">
        <ele>1583</ele>
        <time>2016-04-03T09:32:17Z</time>
      </trkpt>
      <trkpt lat="46.02249" lon="6.58093">
        <ele>1584</ele>
        <time>2016-04-03T09:32:21Z</time>
      </trkpt>
      <trkpt lat="46.02246" lon="6.58097">
        <ele>1585</ele>
        <time>2016-04-03T09:32:25Z</time>
      </trkpt>
      <trkpt lat="46.02245" lon="6.58098">
        <ele>1585</ele>
        <time>2016-04-03T09:32:26Z</time>
      </trkpt>
      <trkpt lat="46.02244" lon="6.58098">
        <ele>1585</ele>
        <time>2016-04-03T09:32:27Z</time>
      </trkpt>
      <trkpt lat="46.02242" lon="6.58101">
        <ele>1586</ele>
        <time>2016-04-03T09:32:30Z</time>
      </trkpt>
      <trkpt lat="46.02239" lon="6.58103">
        <ele>1586</ele>
        <time>2016-04-03T09:32:32Z</time>
      </trkpt>
      <trkpt lat="46.02236" lon="6.58106">
        <ele>1586</ele>
        <time>2016-04-03T09:32:35Z</time>
      </trkpt>
      <trkpt lat="46.02233" lon="6.5811">
        <ele>1587</ele>
        <time>2016-04-03T09:32:38Z</time>
      </trkpt>
      <trkpt lat="46.0223" lon="6.58114">
        <ele>1587</ele>
        <time>2016-04-03T09:32:41Z</time>
      </trkpt>
      <trkpt lat="46.0223" lon="6.58115">
        <ele>1587</ele>
        <time>2016-04-03T09:32:42Z</time>
      </trkpt>
      <trkpt lat="46.02223" lon="6.58119">
        <ele>1588</ele>
        <time>2016-04-03T09:32:47Z</time>
      </trkpt>
      <trkpt lat="46.02222" lon="6.5812">
        <ele>1589</ele>
        <time>2016-04-03T09:32:48Z</time>
      </trkpt>
      <trkpt lat="46.02214" lon="6.58126">
        <ele>1589</ele>
        <time>2016-04-03T09:32:55Z</time>
      </trkpt>
      <trkpt lat="46.02213" lon="6.58127">
        <ele>1590</ele>
        <time>2016-04-03T09:32:56Z</time>
      </trkpt>
      <trkpt lat="46.02209" lon="6.58135">
        <ele>1590</ele>
        <time>2016-04-03T09:33:01Z</time>
      </trkpt>
      <trkpt lat="46.02208" lon="6.58138">
        <ele>1591</ele>
        <time>2016-04-03T09:33:03Z</time>
      </trkpt>
      <trkpt lat="46.02206" lon="6.58142">
        <ele>1591</ele>
        <time>2016-04-03T09:33:06Z</time>
      </trkpt>
      <trkpt lat="46.02205" lon="6.58144">
        <ele>1591</ele>
        <time>2016-04-03T09:33:08Z</time>
      </trkpt>
      <trkpt lat="46.02204" lon="6.58147">
        <ele>1592</ele>
        <time>2016-04-03T09:33:10Z</time>
      </trkpt>
      <trkpt lat="46.02201" lon="6.58152">
        <ele>1592</ele>
        <time>2016-04-03T09:33:14Z</time>
      </trkpt>
      <trkpt lat="46.022" lon="6.58154">
        <ele>1593</ele>
        <time>2016-04-03T09:33:16Z</time>
      </trkpt>
      <trkpt lat="46.02199" lon="6.58155">
        <ele>1593</ele>
        <time>2016-04-03T09:33:17Z</time>
      </trkpt>
      <trkpt lat="46.02197" lon="6.58158">
        <ele>1593</ele>
        <time>2016-04-03T09:33:20Z</time>
      </trkpt>
      <trkpt lat="46.02197" lon="6.58157">
        <ele>1594</ele>
        <time>2016-04-03T09:33:22Z</time>
      </trkpt>
      <trkpt lat="46.02189" lon="6.58163">
        <ele>1594</ele>
        <time>2016-04-03T09:33:50Z</time>
      </trkpt>
      <trkpt lat="46.02189" lon="6.58168">
        <ele>1595</ele>
        <time>2016-04-03T09:33:52Z</time>
      </trkpt>
      <trkpt lat="46.02189" lon="6.58173">
        <ele>1596</ele>
        <time>2016-04-03T09:33:54Z</time>
      </trkpt>
      <trkpt lat="46.02189" lon="6.58176">
        <ele>1596</ele>
        <time>2016-04-03T09:33:55Z</time>
      </trkpt>
      <trkpt lat="46.02189" lon="6.58183">
        <ele>1597</ele>
        <time>2016-04-03T09:33:58Z</time>
      </trkpt>
      <trkpt lat="46.02189" lon="6.58184">
        <ele>1597</ele>
        <time>2016-04-03T09:33:59Z</time>
      </trkpt>
      <trkpt lat="46.02189" lon="6.58191">
        <ele>1598</ele>
        <time>2016-04-03T09:34:04Z</time>
      </trkpt>
      <trkpt lat="46.0219" lon="6.58195">
        <ele>1599</ele>
        <time>2016-04-03T09:34:07Z</time>
      </trkpt>
      <trkpt lat="46.02191" lon="6.58196">
        <ele>1600</ele>
        <time>2016-04-03T09:34:09Z</time>
      </trkpt>
      <trkpt lat="46.02193" lon="6.58198">
        <ele>1600</ele>
        <time>2016-04-03T09:34:10Z</time>
      </trkpt>
      <trkpt lat="46.02196" lon="6.58201">
        <ele>1600</ele>
        <time>2016-04-03T09:34:14Z</time>
      </trkpt>
      <trkpt lat="46.02198" lon="6.58203">
        <ele>1601</ele>
        <time>2016-04-03T09:34:16Z</time>
      </trkpt>
      <trkpt lat="46.02201" lon="6.58205">
        <ele>1601</ele>
        <time>2016-04-03T09:34:18Z</time>
      </trkpt>
      <trkpt lat="46.02209" lon="6.58208">
        <ele>1602</ele>
        <time>2016-04-03T09:34:23Z</time>
      </trkpt>
      <trkpt lat="46.02224" lon="6.58212">
        <ele>1603</ele>
        <time>2016-04-03T09:34:33Z</time>
      </trkpt>
      <trkpt lat="46.02225" lon="6.58218">
        <ele>1603</ele>
        <time>2016-04-03T09:34:38Z</time>
      </trkpt>
      <trkpt lat="46.02226" lon="6.58222">
        <ele>1604</ele>
        <time>2016-04-03T09:34:40Z</time>
      </trkpt>
      <trkpt lat="46.02226" lon="6.58229">
        <ele>1605</ele>
        <time>2016-04-03T09:34:44Z</time>
      </trkpt>
      <trkpt lat="46.02226" lon="6.58231">
        <ele>1605</ele>
        <time>2016-04-03T09:34:45Z</time>
      </trkpt>
      <trkpt lat="46.02221" lon="6.58243">
        <ele>1606</ele>
        <time>2016-04-03T09:34:52Z</time>
      </trkpt>
      <trkpt lat="46.02218" lon="6.5825">
        <ele>1607</ele>
        <time>2016-04-03T09:34:56Z</time>
      </trkpt>
      <trkpt lat="46.02216" lon="6.58254">
        <ele>1607</ele>
        <time>2016-04-03T09:34:59Z</time>
      </trkpt>
      <trkpt lat="46.02211" lon="6.58265">
        <ele>1608</ele>
        <time>2016-04-03T09:35:06Z</time>
      </trkpt>
      <trkpt lat="46.0221" lon="6.58267">
        <ele>1608</ele>
        <time>2016-04-03T09:35:08Z</time>
      </trkpt>
      <trkpt lat="46.02209" lon="6.5827">
        <ele>1609</ele>
        <time>2016-04-03T09:35:10Z</time>
      </trkpt>
      <trkpt lat="46.02208" lon="6.58274">
        <ele>1609</ele>
        <time>2016-04-03T09:35:13Z</time>
      </trkpt>
      <trkpt lat="46.02208" lon="6.58275">
        <ele>1610</ele>
        <time>2016-04-03T09:35:15Z</time>
      </trkpt>
      <trkpt lat="46.02209" lon="6.58279">
        <ele>1610</ele>
        <time>2016-04-03T09:35:18Z</time>
      </trkpt>
      <trkpt lat="46.02208" lon="6.58282">
        <ele>1611</ele>
        <time>2016-04-03T09:35:20Z</time>
      </trkpt>
      <trkpt lat="46.02208" lon="6.58284">
        <ele>1611</ele>
        <time>2016-04-03T09:35:22Z</time>
      </trkpt>
      <trkpt lat="46.02209" lon="6.58286">
        <ele>1612</ele>
        <time>2016-04-03T09:35:24Z</time>
      </trkpt>
      <trkpt lat="46.0221" lon="6.58291">
        <ele>1612</ele>
        <time>2016-04-03T09:35:28Z</time>
      </trkpt>
      <trkpt lat="46.02211" lon="6.58296">
        <ele>1612</ele>
        <time>2016-04-03T09:35:31Z</time>
      </trkpt>
      <trkpt lat="46.02211" lon="6.58297">
        <ele>1613</ele>
        <time>2016-04-03T09:35:32Z</time>
      </trkpt>
      <trkpt lat="46.02211" lon="6.58301">
        <ele>1613</ele>
        <time>2016-04-03T09:35:34Z</time>
      </trkpt>
      <trkpt lat="46.02211" lon="6.58305">
        <ele>1613</ele>
        <time>2016-04-03T09:35:37Z</time>
      </trkpt>
      <trkpt lat="46.02211" lon="6.58309">
        <ele>1614</ele>
        <time>2016-04-03T09:35:39Z</time>
      </trkpt>
      <trkpt lat="46.02211" lon="6.58314">
        <ele>1614</ele>
        <time>2016-04-03T09:35:42Z</time>
      </trkpt>
      <trkpt lat="46.02211" lon="6.58317">
        <ele>1614</ele>
        <time>2016-04-03T09:35:44Z</time>
      </trkpt>
      <trkpt lat="46.02211" lon="6.5832">
        <ele>1615</ele>
        <time>2016-04-03T09:35:46Z</time>
      </trkpt>
      <trkpt lat="46.02212" lon="6.58323">
        <ele>1615</ele>
        <time>2016-04-03T09:35:49Z</time>
      </trkpt>
      <trkpt lat="46.02213" lon="6.58325">
        <ele>1616</ele>
        <time>2016-04-03T09:35:52Z</time>
      </trkpt>
      <trkpt lat="46.02215" lon="6.58327">
        <ele>1616</ele>
        <time>2016-04-03T09:35:54Z</time>
      </trkpt>
      <trkpt lat="46.02214" lon="6.58329">
        <ele>1617</ele>
        <time>2016-04-03T09:35:56Z</time>
      </trkpt>
      <trkpt lat="46.02214" lon="6.58329">
        <ele>1617</ele>
        <time>2016-04-03T09:35:57Z</time>
      </trkpt>
      <trkpt lat="46.02217" lon="6.58336">
        <ele>1618</ele>
        <time>2016-04-03T09:36:05Z</time>
      </trkpt>
      <trkpt lat="46.02219" lon="6.58342">
        <ele>1619</ele>
        <time>2016-04-03T09:36:12Z</time>
      </trkpt>
      <trkpt lat="46.02223" lon="6.58349">
        <ele>1620</ele>
        <time>2016-04-03T09:36:22Z</time>
      </trkpt>
      <trkpt lat="46.02227" lon="6.58352">
        <ele>1621</ele>
        <time>2016-04-03T09:36:29Z</time>
      </trkpt>
      <trkpt lat="46.02227" lon="6.5836">
        <ele>1622</ele>
        <time>2016-04-03T09:36:34Z</time>
      </trkpt>
      <trkpt lat="46.02228" lon="6.58364">
        <ele>1623</ele>
        <time>2016-04-03T09:36:38Z</time>
      </trkpt>
      <trkpt lat="46.02228" lon="6.58365">
        <ele>1623</ele>
        <time>2016-04-03T09:36:39Z</time>
      </trkpt>
      <trkpt lat="46.02227" lon="6.58372">
        <ele>1624</ele>
        <time>2016-04-03T09:36:46Z</time>
      </trkpt>
      <trkpt lat="46.02228" lon="6.5838">
        <ele>1625</ele>
        <time>2016-04-03T09:36:54Z</time>
      </trkpt>
      <trkpt lat="46.02228" lon="6.58387">
        <ele>1626</ele>
        <time>2016-04-03T09:37:01Z</time>
      </trkpt>
      <trkpt lat="46.0223" lon="6.58397">
        <ele>1627</ele>
        <time>2016-04-03T09:37:10Z</time>
      </trkpt>
      <trkpt lat="46.02231" lon="6.58402">
        <ele>1628</ele>
        <time>2016-04-03T09:37:16Z</time>
      </trkpt>
      <trkpt lat="46.02236" lon="6.58412">
        <ele>1629</ele>
        <time>2016-04-03T09:37:26Z</time>
      </trkpt>
      <trkpt lat="46.02236" lon="6.58418">
        <ele>1630</ele>
        <time>2016-04-03T09:37:33Z</time>
      </trkpt>
      <trkpt lat="46.02237" lon="6.58425">
        <ele>1631</ele>
        <time>2016-04-03T09:37:40Z</time>
      </trkpt>
      <trkpt lat="46.02236" lon="6.58434">
        <ele>1632</ele>
        <time>2016-04-03T09:37:49Z</time>
      </trkpt>
      <trkpt lat="46.02236" lon="6.58439">
        <ele>1633</ele>
        <time>2016-04-03T09:37:53Z</time>
      </trkpt>
      <trkpt lat="46.02236" lon="6.58442">
        <ele>1633</ele>
        <time>2016-04-03T09:37:55Z</time>
      </trkpt>
      <trkpt lat="46.02236" lon="6.58444">
        <ele>1633</ele>
        <time>2016-04-03T09:37:57Z</time>
      </trkpt>
      <trkpt lat="46.02236" lon="6.58448">
        <ele>1633</ele>
        <time>2016-04-03T09:38:00Z</time>
      </trkpt>
      <trkpt lat="46.02236" lon="6.58451">
        <ele>1633</ele>
        <time>2016-04-03T09:38:03Z</time>
      </trkpt>
      <trkpt lat="46.02236" lon="6.58454">
        <ele>1634</ele>
        <time>2016-04-03T09:38:06Z</time>
      </trkpt>
      <trkpt lat="46.02236" lon="6.58456">
        <ele>1634</ele>
        <time>2016-04-03T09:38:08Z</time>
      </trkpt>
      <trkpt lat="46.02236" lon="6.58461">
        <ele>1634</ele>
        <time>2016-04-03T09:38:12Z</time>
      </trkpt>
      <trkpt lat="46.02237" lon="6.58463">
        <ele>1634</ele>
        <time>2016-04-03T09:38:14Z</time>
      </trkpt>
      <trkpt lat="46.02238" lon="6.58469">
        <ele>1635</ele>
        <time>2016-04-03T09:38:18Z</time>
      </trkpt>
      <trkpt lat="46.0224" lon="6.58476">
        <ele>1635</ele>
        <time>2016-04-03T09:38:25Z</time>
      </trkpt>
      <trkpt lat="46.0224" lon="6.58477">
        <ele>1635</ele>
        <time>2016-04-03T09:38:26Z</time>
      </trkpt>
      <trkpt lat="46.02242" lon="6.58483">
        <ele>1636</ele>
        <time>2016-04-03T09:38:31Z</time>
      </trkpt>
      <trkpt lat="46.02243" lon="6.58486">
        <ele>1636</ele>
        <time>2016-04-03T09:38:34Z</time>
      </trkpt>
      <trkpt lat="46.02244" lon="6.58489">
        <ele>1636</ele>
        <time>2016-04-03T09:38:37Z</time>
      </trkpt>
      <trkpt lat="46.02244" lon="6.5849">
        <ele>1636</ele>
        <time>2016-04-03T09:38:38Z</time>
      </trkpt>
      <trkpt lat="46.02243" lon="6.58493">
        <ele>1637</ele>
        <time>2016-04-03T09:38:41Z</time>
      </trkpt>
      <trkpt lat="46.02243" lon="6.58498">
        <ele>1637</ele>
        <time>2016-04-03T09:38:45Z</time>
      </trkpt>
      <trkpt lat="46.02242" lon="6.58501">
        <ele>1637</ele>
        <time>2016-04-03T09:38:47Z</time>
      </trkpt>
      <trkpt lat="46.02242" lon="6.58507">
        <ele>1637</ele>
        <time>2016-04-03T09:38:51Z</time>
      </trkpt>
      <trkpt lat="46.02242" lon="6.5851">
        <ele>1637</ele>
        <time>2016-04-03T09:38:53Z</time>
      </trkpt>
      <trkpt lat="46.02241" lon="6.58513">
        <ele>1637</ele>
        <time>2016-04-03T09:38:56Z</time>
      </trkpt>
      <trkpt lat="46.02241" lon="6.58515">
        <ele>1637</ele>
        <time>2016-04-03T09:38:57Z</time>
      </trkpt>
      <trkpt lat="46.0224" lon="6.5852">
        <ele>1638</ele>
        <time>2016-04-03T09:39:00Z</time>
      </trkpt>
      <trkpt lat="46.02239" lon="6.58524">
        <ele>1638</ele>
        <time>2016-04-03T09:39:03Z</time>
      </trkpt>
      <trkpt lat="46.02238" lon="6.58525">
        <ele>1638</ele>
        <time>2016-04-03T09:39:05Z</time>
      </trkpt>
      <trkpt lat="46.02236" lon="6.58531">
        <ele>1638</ele>
        <time>2016-04-03T09:39:11Z</time>
      </trkpt>
      <trkpt lat="46.02233" lon="6.58544">
        <ele>1639</ele>
        <time>2016-04-03T09:39:22Z</time>
      </trkpt>
      <trkpt lat="46.0223" lon="6.5855">
        <ele>1641</ele>
        <time>2016-04-03T09:39:28Z</time>
      </trkpt>
      <trkpt lat="46.02228" lon="6.58559">
        <ele>1642</ele>
        <time>2016-04-03T09:39:37Z</time>
      </trkpt>
      <trkpt lat="46.02225" lon="6.58567">
        <ele>1642</ele>
        <time>2016-04-03T09:39:44Z</time>
      </trkpt>
      <trkpt lat="46.02224" lon="6.58569">
        <ele>1643</ele>
        <time>2016-04-03T09:39:46Z</time>
      </trkpt>
      <trkpt lat="46.02224" lon="6.58571">
        <ele>1643</ele>
        <time>2016-04-03T09:39:47Z</time>
      </trkpt>
      <trkpt lat="46.02224" lon="6.58572">
        <ele>1643</ele>
        <time>2016-04-03T09:39:48Z</time>
      </trkpt>
      <trkpt lat="46.02223" lon="6.58575">
        <ele>1643</ele>
        <time>2016-04-03T09:39:51Z</time>
      </trkpt>
      <trkpt lat="46.02219" lon="6.58581">
        <ele>1644</ele>
        <time>2016-04-03T09:39:57Z</time>
      </trkpt>
      <trkpt lat="46.02218" lon="6.58584">
        <ele>1644</ele>
        <time>2016-04-03T09:39:59Z</time>
      </trkpt>
      <trkpt lat="46.02216" lon="6.58586">
        <ele>1644</ele>
        <time>2016-04-03T09:40:01Z</time>
      </trkpt>
      <trkpt lat="46.02215" lon="6.58588">
        <ele>1644</ele>
        <time>2016-04-03T09:40:03Z</time>
      </trkpt>
      <trkpt lat="46.0221" lon="6.58593">
        <ele>1645</ele>
        <time>2016-04-03T09:40:08Z</time>
      </trkpt>
      <trkpt lat="46.02208" lon="6.58595">
        <ele>1645</ele>
        <time>2016-04-03T09:40:11Z</time>
      </trkpt>
      <trkpt lat="46.02204" lon="6.58596">
        <ele>1645</ele>
        <time>2016-04-03T09:40:16Z</time>
      </trkpt>
      <trkpt lat="46.02199" lon="6.586">
        <ele>1646</ele>
        <time>2016-04-03T09:40:23Z</time>
      </trkpt>
      <trkpt lat="46.02198" lon="6.586">
        <ele>1646</ele>
        <time>2016-04-03T09:40:24Z</time>
      </trkpt>
      <trkpt lat="46.02193" lon="6.58602">
        <ele>1646</ele>
        <time>2016-04-03T09:40:29Z</time>
      </trkpt>
      <trkpt lat="46.0219" lon="6.58606">
        <ele>1647</ele>
        <time>2016-04-03T09:40:33Z</time>
      </trkpt>
      <trkpt lat="46.02189" lon="6.58607">
        <ele>1647</ele>
        <time>2016-04-03T09:40:34Z</time>
      </trkpt>
      <trkpt lat="46.02186" lon="6.5861">
        <ele>1647</ele>
        <time>2016-04-03T09:40:39Z</time>
      </trkpt>
      <trkpt lat="46.02183" lon="6.58613">
        <ele>1648</ele>
        <time>2016-04-03T09:40:42Z</time>
      </trkpt>
      <trkpt lat="46.02182" lon="6.58614">
        <ele>1648</ele>
        <time>2016-04-03T09:40:44Z</time>
      </trkpt>
      <trkpt lat="46.02176" lon="6.58617">
        <ele>1649</ele>
        <time>2016-04-03T09:40:51Z</time>
      </trkpt>
      <trkpt lat="46.02174" lon="6.58619">
        <ele>1649</ele>
        <time>2016-04-03T09:40:54Z</time>
      </trkpt>
      <trkpt lat="46.02169" lon="6.58624">
        <ele>1650</ele>
        <time>2016-04-03T09:41:02Z</time>
      </trkpt>
      <trkpt lat="46.02164" lon="6.58626">
        <ele>1650</ele>
        <time>2016-04-03T09:41:08Z</time>
      </trkpt>
      <trkpt lat="46.0216" lon="6.58627">
        <ele>1651</ele>
        <time>2016-04-03T09:41:11Z</time>
      </trkpt>
      <trkpt lat="46.02157" lon="6.58629">
        <ele>1651</ele>
        <time>2016-04-03T09:41:15Z</time>
      </trkpt>
      <trkpt lat="46.02153" lon="6.5863">
        <ele>1651</ele>
        <time>2016-04-03T09:41:19Z</time>
      </trkpt>
      <trkpt lat="46.02152" lon="6.58631">
        <ele>1651</ele>
        <time>2016-04-03T09:41:20Z</time>
      </trkpt>
      <trkpt lat="46.0215" lon="6.58632">
        <ele>1652</ele>
        <time>2016-04-03T09:41:23Z</time>
      </trkpt>
      <trkpt lat="46.02145" lon="6.58635">
        <ele>1652</ele>
        <time>2016-04-03T09:41:28Z</time>
      </trkpt>
      <trkpt lat="46.02143" lon="6.58637">
        <ele>1652</ele>
        <time>2016-04-03T09:41:30Z</time>
      </trkpt>
      <trkpt lat="46.02141" lon="6.58639">
        <ele>1652</ele>
        <time>2016-04-03T09:41:33Z</time>
      </trkpt>
      <trkpt lat="46.02137" lon="6.58641">
        <ele>1652</ele>
        <time>2016-04-03T09:41:37Z</time>
      </trkpt>
      <trkpt lat="46.02135" lon="6.58642">
        <ele>1652</ele>
        <time>2016-04-03T09:41:39Z</time>
      </trkpt>
      <trkpt lat="46.02133" lon="6.58643">
        <ele>1652</ele>
        <time>2016-04-03T09:41:41Z</time>
      </trkpt>
      <trkpt lat="46.02129" lon="6.58646">
        <ele>1653</ele>
        <time>2016-04-03T09:41:46Z</time>
      </trkpt>
      <trkpt lat="46.02127" lon="6.58647">
        <ele>1653</ele>
        <time>2016-04-03T09:41:49Z</time>
      </trkpt>
      <trkpt lat="46.02127" lon="6.58649">
        <ele>1653</ele>
        <time>2016-04-03T09:41:50Z</time>
      </trkpt>
      <trkpt lat="46.02126" lon="6.5865">
        <ele>1653</ele>
        <time>2016-04-03T09:41:52Z</time>
      </trkpt>
      <trkpt lat="46.02125" lon="6.58654">
        <ele>1654</ele>
        <time>2016-04-03T09:41:58Z</time>
      </trkpt>
      <trkpt lat="46.02123" lon="6.58664">
        <ele>1655</ele>
        <time>2016-04-03T09:42:08Z</time>
      </trkpt>
      <trkpt lat="46.0212" lon="6.58665">
        <ele>1656</ele>
        <time>2016-04-03T09:42:11Z</time>
      </trkpt>
      <trkpt lat="46.02117" lon="6.58667">
        <ele>1656</ele>
        <time>2016-04-03T09:42:14Z</time>
      </trkpt>
      <trkpt lat="46.0211" lon="6.58671">
        <ele>1656</ele>
        <time>2016-04-03T09:42:20Z</time>
      </trkpt>
      <trkpt lat="46.02109" lon="6.58672">
        <ele>1656</ele>
        <time>2016-04-03T09:42:21Z</time>
      </trkpt>
      <trkpt lat="46.02108" lon="6.58673">
        <ele>1656</ele>
        <time>2016-04-03T09:42:23Z</time>
      </trkpt>
      <trkpt lat="46.02106" lon="6.58675">
        <ele>1657</ele>
        <time>2016-04-03T09:42:25Z</time>
      </trkpt>
      <trkpt lat="46.02103" lon="6.58677">
        <ele>1657</ele>
        <time>2016-04-03T09:42:28Z</time>
      </trkpt>
      <trkpt lat="46.02102" lon="6.58679">
        <ele>1657</ele>
        <time>2016-04-03T09:42:30Z</time>
      </trkpt>
      <trkpt lat="46.02102" lon="6.5868">
        <ele>1657</ele>
        <time>2016-04-03T09:42:31Z</time>
      </trkpt>
      <trkpt lat="46.02101" lon="6.58681">
        <ele>1658</ele>
        <time>2016-04-03T09:42:33Z</time>
      </trkpt>
      <trkpt lat="46.021" lon="6.58682">
        <ele>1658</ele>
        <time>2016-04-03T09:42:34Z</time>
      </trkpt>
      <trkpt lat="46.02098" lon="6.58684">
        <ele>1658</ele>
        <time>2016-04-03T09:42:38Z</time>
      </trkpt>
      <trkpt lat="46.02093" lon="6.58687">
        <ele>1660</ele>
        <time>2016-04-03T09:42:46Z</time>
      </trkpt>
      <trkpt lat="46.02091" lon="6.58691">
        <ele>1661</ele>
        <time>2016-04-03T09:42:51Z</time>
      </trkpt>
      <trkpt lat="46.02088" lon="6.58695">
        <ele>1662</ele>
        <time>2016-04-03T09:42:56Z</time>
      </trkpt>
      <trkpt lat="46.02087" lon="6.58697">
        <ele>1663</ele>
        <time>2016-04-03T09:43:00Z</time>
      </trkpt>
      <trkpt lat="46.02085" lon="6.587">
        <ele>1664</ele>
        <time>2016-04-03T09:43:05Z</time>
      </trkpt>
      <trkpt lat="46.02083" lon="6.58702">
        <ele>1665</ele>
        <time>2016-04-03T09:43:09Z</time>
      </trkpt>
      <trkpt lat="46.02081" lon="6.58707">
        <ele>1666</ele>
        <time>2016-04-03T09:43:14Z</time>
      </trkpt>
      <trkpt lat="46.0208" lon="6.5871">
        <ele>1668</ele>
        <time>2016-04-03T09:43:18Z</time>
      </trkpt>
      <trkpt lat="46.0208" lon="6.5871">
        <ele>1669</ele>
        <time>2016-04-03T09:43:22Z</time>
      </trkpt>
      <trkpt lat="46.02069" lon="6.58696">
        <ele>1670</ele>
        <time>2016-04-03T09:44:41Z</time>
      </trkpt>
      <trkpt lat="46.02069" lon="6.58692">
        <ele>1670</ele>
        <time>2016-04-03T09:44:43Z</time>
      </trkpt>
      <trkpt lat="46.02069" lon="6.58687">
        <ele>1670</ele>
        <time>2016-04-03T09:44:46Z</time>
      </trkpt>
      <trkpt lat="46.02068" lon="6.58684">
        <ele>1671</ele>
        <time>2016-04-03T09:44:49Z</time>
      </trkpt>
      <trkpt lat="46.02068" lon="6.58682">
        <ele>1671</ele>
        <time>2016-04-03T09:44:51Z</time>
      </trkpt>
      <trkpt lat="46.02059" lon="6.58677">
        <ele>1672</ele>
        <time>2016-04-03T09:45:02Z</time>
      </trkpt>
      <trkpt lat="46.02051" lon="6.5867">
        <ele>1673</ele>
        <time>2016-04-03T09:45:11Z</time>
      </trkpt>
      <trkpt lat="46.0205" lon="6.58657">
        <ele>1674</ele>
        <time>2016-04-03T09:45:19Z</time>
      </trkpt>
      <trkpt lat="46.0205" lon="6.58653">
        <ele>1674</ele>
        <time>2016-04-03T09:45:21Z</time>
      </trkpt>
      <trkpt lat="46.02051" lon="6.58648">
        <ele>1674</ele>
        <time>2016-04-03T09:45:24Z</time>
      </trkpt>
      <trkpt lat="46.02051" lon="6.58646">
        <ele>1674</ele>
        <time>2016-04-03T09:45:26Z</time>
      </trkpt>
      <trkpt lat="46.02051" lon="6.58641">
        <ele>1674</ele>
        <time>2016-04-03T09:45:30Z</time>
      </trkpt>
      <trkpt lat="46.02052" lon="6.58635">
        <ele>1675</ele>
        <time>2016-04-03T09:45:36Z</time>
      </trkpt>
      <trkpt lat="46.02051" lon="6.58632">
        <ele>1675</ele>
        <time>2016-04-03T09:45:39Z</time>
      </trkpt>
      <trkpt lat="46.0205" lon="6.58629">
        <ele>1676</ele>
        <time>2016-04-03T09:45:43Z</time>
      </trkpt>
      <trkpt lat="46.02054" lon="6.58615">
        <ele>1677</ele>
        <time>2016-04-03T09:45:51Z</time>
      </trkpt>
      <trkpt lat="46.02058" lon="6.58605">
        <ele>1678</ele>
        <time>2016-04-03T09:45:58Z</time>
      </trkpt>
      <trkpt lat="46.0206" lon="6.58596">
        <ele>1679</ele>
        <time>2016-04-03T09:46:04Z</time>
      </trkpt>
      <trkpt lat="46.02062" lon="6.58594">
        <ele>1679</ele>
        <time>2016-04-03T09:46:06Z</time>
      </trkpt>
      <trkpt lat="46.02067" lon="6.58586">
        <ele>1680</ele>
        <time>2016-04-03T09:46:15Z</time>
      </trkpt>
      <trkpt lat="46.02068" lon="6.58583">
        <ele>1680</ele>
        <time>2016-04-03T09:46:18Z</time>
      </trkpt>
      <trkpt lat="46.02068" lon="6.58579">
        <ele>1680</ele>
        <time>2016-04-03T09:46:21Z</time>
      </trkpt>
      <trkpt lat="46.02068" lon="6.58578">
        <ele>1681</ele>
        <time>2016-04-03T09:46:22Z</time>
      </trkpt>
      <trkpt lat="46.02065" lon="6.5857">
        <ele>1681</ele>
        <time>2016-04-03T09:46:29Z</time>
      </trkpt>
      <trkpt lat="46.02064" lon="6.58568">
        <ele>1682</ele>
        <time>2016-04-03T09:46:31Z</time>
      </trkpt>
      <trkpt lat="46.02062" lon="6.58564">
        <ele>1682</ele>
        <time>2016-04-03T09:46:37Z</time>
      </trkpt>
      <trkpt lat="46.02061" lon="6.58555">
        <ele>1684</ele>
        <time>2016-04-03T09:46:46Z</time>
      </trkpt>
      <trkpt lat="46.02061" lon="6.5855">
        <ele>1684</ele>
        <time>2016-04-03T09:46:50Z</time>
      </trkpt>
      <trkpt lat="46.02062" lon="6.5854">
        <ele>1685</ele>
        <time>2016-04-03T09:46:57Z</time>
      </trkpt>
      <trkpt lat="46.02063" lon="6.58534">
        <ele>1685</ele>
        <time>2016-04-03T09:47:02Z</time>
      </trkpt>
      <trkpt lat="46.02063" lon="6.58532">
        <ele>1685</ele>
        <time>2016-04-03T09:47:04Z</time>
      </trkpt>
      <trkpt lat="46.02063" lon="6.58526">
        <ele>1686</ele>
        <time>2016-04-03T09:47:09Z</time>
      </trkpt>
      <trkpt lat="46.02063" lon="6.58518">
        <ele>1686</ele>
        <time>2016-04-03T09:47:16Z</time>
      </trkpt>
      <trkpt lat="46.02064" lon="6.58511">
        <ele>1687</ele>
        <time>2016-04-03T09:47:21Z</time>
      </trkpt>
      <trkpt lat="46.02063" lon="6.5851">
        <ele>1687</ele>
        <time>2016-04-03T09:47:22Z</time>
      </trkpt>
      <trkpt lat="46.02063" lon="6.58509">
        <ele>1687</ele>
        <time>2016-04-03T09:47:23Z</time>
      </trkpt>
      <trkpt lat="46.02063" lon="6.58506">
        <ele>1687</ele>
        <time>2016-04-03T09:47:26Z</time>
      </trkpt>
      <trkpt lat="46.02063" lon="6.58502">
        <ele>1688</ele>
        <time>2016-04-03T09:47:30Z</time>
      </trkpt>
      <trkpt lat="46.02065" lon="6.58495">
        <ele>1688</ele>
        <time>2016-04-03T09:47:35Z</time>
      </trkpt>
      <trkpt lat="46.02069" lon="6.58475">
        <ele>1689</ele>
        <time>2016-04-03T09:47:49Z</time>
      </trkpt>
      <trkpt lat="46.0207" lon="6.58463">
        <ele>1689</ele>
        <time>2016-04-03T09:47:58Z</time>
      </trkpt>
      <trkpt lat="46.02071" lon="6.58457">
        <ele>1690</ele>
        <time>2016-04-03T09:48:03Z</time>
      </trkpt>
      <trkpt lat="46.02071" lon="6.58449">
        <ele>1690</ele>
        <time>2016-04-03T09:48:08Z</time>
      </trkpt>
      <trkpt lat="46.02071" lon="6.58446">
        <ele>1690</ele>
        <time>2016-04-03T09:48:10Z</time>
      </trkpt>
      <trkpt lat="46.0207" lon="6.58443">
        <ele>1691</ele>
        <time>2016-04-03T09:48:13Z</time>
      </trkpt>
      <trkpt lat="46.02069" lon="6.5844">
        <ele>1691</ele>
        <time>2016-04-03T09:48:15Z</time>
      </trkpt>
      <trkpt lat="46.02065" lon="6.58434">
        <ele>1692</ele>
        <time>2016-04-03T09:48:21Z</time>
      </trkpt>
      <trkpt lat="46.02064" lon="6.58427">
        <ele>1692</ele>
        <time>2016-04-03T09:48:27Z</time>
      </trkpt>
      <trkpt lat="46.02064" lon="6.58424">
        <ele>1692</ele>
        <time>2016-04-03T09:48:30Z</time>
      </trkpt>
      <trkpt lat="46.02064" lon="6.58414">
        <ele>1693</ele>
        <time>2016-04-03T09:48:40Z</time>
      </trkpt>
      <trkpt lat="46.02066" lon="6.58407">
        <ele>1693</ele>
        <time>2016-04-03T09:48:44Z</time>
      </trkpt>
      <trkpt lat="46.02066" lon="6.58405">
        <ele>1693</ele>
        <time>2016-04-03T09:48:45Z</time>
      </trkpt>
      <trkpt lat="46.02067" lon="6.58403">
        <ele>1693</ele>
        <time>2016-04-03T09:48:46Z</time>
      </trkpt>
      <trkpt lat="46.02067" lon="6.58399">
        <ele>1693</ele>
        <time>2016-04-03T09:48:49Z</time>
      </trkpt>
      <trkpt lat="46.02067" lon="6.58392">
        <ele>1693</ele>
        <time>2016-04-03T09:48:54Z</time>
      </trkpt>
      <trkpt lat="46.02065" lon="6.58382">
        <ele>1694</ele>
        <time>2016-04-03T09:49:00Z</time>
      </trkpt>
      <trkpt lat="46.02066" lon="6.58378">
        <ele>1694</ele>
        <time>2016-04-03T09:49:03Z</time>
      </trkpt>
      <trkpt lat="46.02067" lon="6.58366">
        <ele>1695</ele>
        <time>2016-04-03T09:49:12Z</time>
      </trkpt>
      <trkpt lat="46.02066" lon="6.5836">
        <ele>1696</ele>
        <time>2016-04-03T09:49:16Z</time>
      </trkpt>
      <trkpt lat="46.02067" lon="6.58355">
        <ele>1696</ele>
        <time>2016-04-03T09:49:20Z</time>
      </trkpt>
      <trkpt lat="46.02066" lon="6.58352">
        <ele>1696</ele>
        <time>2016-04-03T09:49:23Z</time>
      </trkpt>
      <trkpt lat="46.02062" lon="6.58347">
        <ele>1697</ele>
        <time>2016-04-03T09:49:29Z</time>
      </trkpt>
      <trkpt lat="46.02062" lon="6.58346">
        <ele>1697</ele>
        <time>2016-04-03T09:49:32Z</time>
      </trkpt>
      <trkpt lat="46.02056" lon="6.58343">
        <ele>1699</ele>
        <time>2016-04-03T09:49:40Z</time>
      </trkpt>
      <trkpt lat="46.02052" lon="6.5834">
        <ele>1699</ele>
        <time>2016-04-03T09:49:44Z</time>
      </trkpt>
      <trkpt lat="46.02051" lon="6.58338">
        <ele>1700</ele>
        <time>2016-04-03T09:49:46Z</time>
      </trkpt>
      <trkpt lat="46.02049" lon="6.58335">
        <ele>1700</ele>
        <time>2016-04-03T09:49:49Z</time>
      </trkpt>
      <trkpt lat="46.02046" lon="6.58333">
        <ele>1700</ele>
        <time>2016-04-03T09:49:52Z</time>
      </trkpt>
      <trkpt lat="46.02044" lon="6.58331">
        <ele>1700</ele>
        <time>2016-04-03T09:49:54Z</time>
      </trkpt>
      <trkpt lat="46.02042" lon="6.58329">
        <ele>1701</ele>
        <time>2016-04-03T09:49:57Z</time>
      </trkpt>
      <trkpt lat="46.02041" lon="6.58327">
        <ele>1701</ele>
        <time>2016-04-03T09:49:59Z</time>
      </trkpt>
      <trkpt lat="46.02037" lon="6.58323">
        <ele>1702</ele>
        <time>2016-04-03T09:50:04Z</time>
      </trkpt>
      <trkpt lat="46.02033" lon="6.58319">
        <ele>1702</ele>
        <time>2016-04-03T09:50:10Z</time>
      </trkpt>
      <trkpt lat="46.0203" lon="6.58316">
        <ele>1703</ele>
        <time>2016-04-03T09:50:15Z</time>
      </trkpt>
      <trkpt lat="46.02026" lon="6.58311">
        <ele>1704</ele>
        <time>2016-04-03T09:50:20Z</time>
      </trkpt>
      <trkpt lat="46.02026" lon="6.5831">
        <ele>1704</ele>
        <time>2016-04-03T09:50:21Z</time>
      </trkpt>
      <trkpt lat="46.02025" lon="6.58309">
        <ele>1704</ele>
        <time>2016-04-03T09:50:23Z</time>
      </trkpt>
      <trkpt lat="46.0202" lon="6.58303">
        <ele>1704</ele>
        <time>2016-04-03T09:50:29Z</time>
      </trkpt>
      <trkpt lat="46.02018" lon="6.58298">
        <ele>1705</ele>
        <time>2016-04-03T09:50:33Z</time>
      </trkpt>
      <trkpt lat="46.02012" lon="6.58287">
        <ele>1706</ele>
        <time>2016-04-03T09:50:43Z</time>
      </trkpt>
      <trkpt lat="46.0201" lon="6.58282">
        <ele>1706</ele>
        <time>2016-04-03T09:50:47Z</time>
      </trkpt>
      <trkpt lat="46.02005" lon="6.58275">
        <ele>1707</ele>
        <time>2016-04-03T09:50:53Z</time>
      </trkpt>
      <trkpt lat="46.02004" lon="6.58275">
        <ele>1707</ele>
        <time>2016-04-03T09:50:55Z</time>
      </trkpt>
      <trkpt lat="46.01999" lon="6.5827">
        <ele>1708</ele>
        <time>2016-04-03T09:51:03Z</time>
      </trkpt>
      <trkpt lat="46.01995" lon="6.58265">
        <ele>1709</ele>
        <time>2016-04-03T09:51:09Z</time>
      </trkpt>
      <trkpt lat="46.01992" lon="6.58261">
        <ele>1710</ele>
        <time>2016-04-03T09:51:13Z</time>
      </trkpt>
      <trkpt lat="46.01991" lon="6.5826">
        <ele>1710</ele>
        <time>2016-04-03T09:51:15Z</time>
      </trkpt>
      <trkpt lat="46.01987" lon="6.58249">
        <ele>1711</ele>
        <time>2016-04-03T09:51:26Z</time>
      </trkpt>
      <trkpt lat="46.01985" lon="6.58249">
        <ele>1712</ele>
        <time>2016-04-03T09:51:29Z</time>
      </trkpt>
      <trkpt lat="46.01983" lon="6.58248">
        <ele>1712</ele>
        <time>2016-04-03T09:51:33Z</time>
      </trkpt>
      <trkpt lat="46.01978" lon="6.58254">
        <ele>1713</ele>
        <time>2016-04-03T09:51:42Z</time>
      </trkpt>
      <trkpt lat="46.01977" lon="6.58263">
        <ele>1715</ele>
        <time>2016-04-03T09:51:50Z</time>
      </trkpt>
      <trkpt lat="46.01982" lon="6.58277">
        <ele>1716</ele>
        <time>2016-04-03T09:52:06Z</time>
      </trkpt>
      <trkpt lat="46.01991" lon="6.5829">
        <ele>1716</ele>
        <time>2016-04-03T09:52:19Z</time>
      </trkpt>
      <trkpt lat="46.01992" lon="6.58291">
        <ele>1717</ele>
        <time>2016-04-03T09:52:20Z</time>
      </trkpt>
      <trkpt lat="46.02002" lon="6.58296">
        <ele>1717</ele>
        <time>2016-04-03T09:52:29Z</time>
      </trkpt>
      <trkpt lat="46.02003" lon="6.58296">
        <ele>1718</ele>
        <time>2016-04-03T09:52:31Z</time>
      </trkpt>
      <trkpt lat="46.02006" lon="6.58299">
        <ele>1719</ele>
        <time>2016-04-03T09:52:40Z</time>
      </trkpt>
      <trkpt lat="46.02013" lon="6.58311">
        <ele>1720</ele>
        <time>2016-04-03T09:52:55Z</time>
      </trkpt>
      <trkpt lat="46.02014" lon="6.58314">
        <ele>1720</ele>
        <time>2016-04-03T09:52:57Z</time>
      </trkpt>
      <trkpt lat="46.02016" lon="6.58316">
        <ele>1720</ele>
        <time>2016-04-03T09:52:59Z</time>
      </trkpt>
      <trkpt lat="46.02016" lon="6.58319">
        <ele>1721</ele>
        <time>2016-04-03T09:53:01Z</time>
      </trkpt>
      <trkpt lat="46.02018" lon="6.58321">
        <ele>1721</ele>
        <time>2016-04-03T09:53:03Z</time>
      </trkpt>
      <trkpt lat="46.02019" lon="6.58323">
        <ele>1722</ele>
        <time>2016-04-03T09:53:05Z</time>
      </trkpt>
      <trkpt lat="46.02021" lon="6.58326">
        <ele>1722</ele>
        <time>2016-04-03T09:53:07Z</time>
      </trkpt>
      <trkpt lat="46.02023" lon="6.5833">
        <ele>1722</ele>
        <time>2016-04-03T09:53:10Z</time>
      </trkpt>
      <trkpt lat="46.02024" lon="6.58335">
        <ele>1723</ele>
        <time>2016-04-03T09:53:13Z</time>
      </trkpt>
      <trkpt lat="46.02023" lon="6.58338">
        <ele>1723</ele>
        <time>2016-04-03T09:53:16Z</time>
      </trkpt>
      <trkpt lat="46.02022" lon="6.5834">
        <ele>1723</ele>
        <time>2016-04-03T09:53:17Z</time>
      </trkpt>
      <trkpt lat="46.02022" lon="6.5834">
        <ele>1723</ele>
        <time>2016-04-03T09:53:18Z</time>
      </trkpt>
      <trkpt lat="46.02017" lon="6.58342">
        <ele>1724</ele>
        <time>2016-04-03T09:53:22Z</time>
      </trkpt>
      <trkpt lat="46.02014" lon="6.58339">
        <ele>1724</ele>
        <time>2016-04-03T09:53:25Z</time>
      </trkpt>
      <trkpt lat="46.0201" lon="6.58333">
        <ele>1725</ele>
        <time>2016-04-03T09:53:32Z</time>
      </trkpt>
      <trkpt lat="46.02008" lon="6.58333">
        <ele>1725</ele>
        <time>2016-04-03T09:53:33Z</time>
      </trkpt>
      <trkpt lat="46.02007" lon="6.58332">
        <ele>1725</ele>
        <time>2016-04-03T09:53:35Z</time>
      </trkpt>
      <trkpt lat="46.01997" lon="6.58334">
        <ele>1726</ele>
        <time>2016-04-03T09:53:45Z</time>
      </trkpt>
      <trkpt lat="46.01988" lon="6.58333">
        <ele>1727</ele>
        <time>2016-04-03T09:53:57Z</time>
      </trkpt>
      <trkpt lat="46.01985" lon="6.58333">
        <ele>1727</ele>
        <time>2016-04-03T09:54:00Z</time>
      </trkpt>
      <trkpt lat="46.01975" lon="6.58326">
        <ele>1729</ele>
        <time>2016-04-03T09:54:17Z</time>
      </trkpt>
      <trkpt lat="46.01969" lon="6.58323">
        <ele>1729</ele>
        <time>2016-04-03T09:54:24Z</time>
      </trkpt>
      <trkpt lat="46.01968" lon="6.58323">
        <ele>1729</ele>
        <time>2016-04-03T09:54:26Z</time>
      </trkpt>
      <trkpt lat="46.01965" lon="6.58323">
        <ele>1730</ele>
        <time>2016-04-03T09:54:29Z</time>
      </trkpt>
      <trkpt lat="46.01961" lon="6.58321">
        <ele>1730</ele>
        <time>2016-04-03T09:54:34Z</time>
      </trkpt>
      <trkpt lat="46.01959" lon="6.5832">
        <ele>1730</ele>
        <time>2016-04-03T09:54:36Z</time>
      </trkpt>
      <trkpt lat="46.01958" lon="6.58318">
        <ele>1731</ele>
        <time>2016-04-03T09:54:38Z</time>
      </trkpt>
      <trkpt lat="46.01955" lon="6.58312">
        <ele>1731</ele>
        <time>2016-04-03T09:54:42Z</time>
      </trkpt>
      <trkpt lat="46.01953" lon="6.58311">
        <ele>1731</ele>
        <time>2016-04-03T09:54:44Z</time>
      </trkpt>
      <trkpt lat="46.01952" lon="6.58308">
        <ele>1732</ele>
        <time>2016-04-03T09:54:46Z</time>
      </trkpt>
      <trkpt lat="46.01949" lon="6.58303">
        <ele>1732</ele>
        <time>2016-04-03T09:54:49Z</time>
      </trkpt>
      <trkpt lat="46.01946" lon="6.58299">
        <ele>1732</ele>
        <time>2016-04-03T09:54:53Z</time>
      </trkpt>
      <trkpt lat="46.01942" lon="6.5829">
        <ele>1733</ele>
        <time>2016-04-03T09:55:00Z</time>
      </trkpt>
      <trkpt lat="46.01941" lon="6.58289">
        <ele>1733</ele>
        <time>2016-04-03T09:55:01Z</time>
      </trkpt>
      <trkpt lat="46.0194" lon="6.58287">
        <ele>1733</ele>
        <time>2016-04-03T09:55:04Z</time>
      </trkpt>
      <trkpt lat="46.01939" lon="6.58283">
        <ele>1733</ele>
        <time>2016-04-03T09:55:07Z</time>
      </trkpt>
      <trkpt lat="46.01937" lon="6.58279">
        <ele>1734</ele>
        <time>2016-04-03T09:55:10Z</time>
      </trkpt>
      <trkpt lat="46.01936" lon="6.58276">
        <ele>1734</ele>
        <time>2016-04-03T09:55:13Z</time>
      </trkpt>
      <trkpt lat="46.01934" lon="6.5827">
        <ele>1734</ele>
        <time>2016-04-03T09:55:17Z</time>
      </trkpt>
      <trkpt lat="46.01932" lon="6.58268">
        <ele>1735</ele>
        <time>2016-04-03T09:55:19Z</time>
      </trkpt>
      <trkpt lat="46.01932" lon="6.58264">
        <ele>1735</ele>
        <time>2016-04-03T09:55:21Z</time>
      </trkpt>
      <trkpt lat="46.01933" lon="6.58259">
        <ele>1735</ele>
        <time>2016-04-03T09:55:24Z</time>
      </trkpt>
      <trkpt lat="46.01933" lon="6.58251">
        <ele>1736</ele>
        <time>2016-04-03T09:55:29Z</time>
      </trkpt>
      <trkpt lat="46.01933" lon="6.5825">
        <ele>1736</ele>
        <time>2016-04-03T09:55:30Z</time>
      </trkpt>
      <trkpt lat="46.01933" lon="6.58235">
        <ele>1737</ele>
        <time>2016-04-03T09:55:39Z</time>
      </trkpt>
      <trkpt lat="46.01936" lon="6.58219">
        <ele>1737</ele>
        <time>2016-04-03T09:55:48Z</time>
      </trkpt>
      <trkpt lat="46.01936" lon="6.58216">
        <ele>1738</ele>
        <time>2016-04-03T09:55:50Z</time>
      </trkpt>
      <trkpt lat="46.0194" lon="6.58208">
        <ele>1738</ele>
        <time>2016-04-03T09:55:58Z</time>
      </trkpt>
      <trkpt lat="46.01943" lon="6.58205">
        <ele>1738</ele>
        <time>2016-04-03T09:56:01Z</time>
      </trkpt>
      <trkpt lat="46.01943" lon="6.58204">
        <ele>1738</ele>
        <time>2016-04-03T09:56:02Z</time>
      </trkpt>
      <trkpt lat="46.01945" lon="6.58202">
        <ele>1738</ele>
        <time>2016-04-03T09:56:04Z</time>
      </trkpt>
      <trkpt lat="46.01946" lon="6.582">
        <ele>1739</ele>
        <time>2016-04-03T09:56:06Z</time>
      </trkpt>
      <trkpt lat="46.0195" lon="6.58196">
        <ele>1739</ele>
        <time>2016-04-03T09:56:10Z</time>
      </trkpt>
      <trkpt lat="46.01954" lon="6.58193">
        <ele>1739</ele>
        <time>2016-04-03T09:56:14Z</time>
      </trkpt>
      <trkpt lat="46.01955" lon="6.5819">
        <ele>1739</ele>
        <time>2016-04-03T09:56:17Z</time>
      </trkpt>
      <trkpt lat="46.01956" lon="6.58189">
        <ele>1739</ele>
        <time>2016-04-03T09:56:18Z</time>
      </trkpt>
      <trkpt lat="46.01961" lon="6.58185">
        <ele>1739</ele>
        <time>2016-04-03T09:56:25Z</time>
      </trkpt>
      <trkpt lat="46.01962" lon="6.58182">
        <ele>1740</ele>
        <time>2016-04-03T09:56:29Z</time>
      </trkpt>
      <trkpt lat="46.0196" lon="6.58182">
        <ele>1740</ele>
        <time>2016-04-03T09:56:32Z</time>
      </trkpt>
      <trkpt lat="46.01957" lon="6.58183">
        <ele>1741</ele>
        <time>2016-04-03T09:56:35Z</time>
      </trkpt>
      <trkpt lat="46.01954" lon="6.58184">
        <ele>1742</ele>
        <time>2016-04-03T09:56:37Z</time>
      </trkpt>
      <trkpt lat="46.01947" lon="6.58191">
        <ele>1743</ele>
        <time>2016-04-03T09:56:43Z</time>
      </trkpt>
      <trkpt lat="46.01939" lon="6.582">
        <ele>1743</ele>
        <time>2016-04-03T09:56:52Z</time>
      </trkpt>
      <trkpt lat="46.01937" lon="6.58201">
        <ele>1743</ele>
        <time>2016-04-03T09:56:54Z</time>
      </trkpt>
      <trkpt lat="46.01937" lon="6.58202">
        <ele>1744</ele>
        <time>2016-04-03T09:56:56Z</time>
      </trkpt>
      <trkpt lat="46.01936" lon="6.58203">
        <ele>1744</ele>
        <time>2016-04-03T09:56:58Z</time>
      </trkpt>
      <trkpt lat="46.01931" lon="6.58208">
        <ele>1745</ele>
        <time>2016-04-03T09:57:06Z</time>
      </trkpt>
      <trkpt lat="46.01929" lon="6.58209">
        <ele>1745</ele>
        <time>2016-04-03T09:57:08Z</time>
      </trkpt>
      <trkpt lat="46.01927" lon="6.58211">
        <ele>1745</ele>
        <time>2016-04-03T09:57:11Z</time>
      </trkpt>
      <trkpt lat="46.01925" lon="6.58213">
        <ele>1746</ele>
        <time>2016-04-03T09:57:14Z</time>
      </trkpt>
      <trkpt lat="46.01924" lon="6.58214">
        <ele>1746</ele>
        <time>2016-04-03T09:57:15Z</time>
      </trkpt>
      <trkpt lat="46.01922" lon="6.58216">
        <ele>1746</ele>
        <time>2016-04-03T09:57:19Z</time>
      </trkpt>
      <trkpt lat="46.01922" lon="6.58219">
        <ele>1747</ele>
        <time>2016-04-03T09:57:22Z</time>
      </trkpt>
      <trkpt lat="46.0192" lon="6.58226">
        <ele>1748</ele>
        <time>2016-04-03T09:57:30Z</time>
      </trkpt>
      <trkpt lat="46.01914" lon="6.58226">
        <ele>1749</ele>
        <time>2016-04-03T09:57:36Z</time>
      </trkpt>
      <trkpt lat="46.01913" lon="6.58216">
        <ele>1749</ele>
        <time>2016-04-03T09:57:42Z</time>
      </trkpt>
      <trkpt lat="46.01913" lon="6.58215">
        <ele>1749</ele>
        <time>2016-04-03T09:57:43Z</time>
      </trkpt>
      <trkpt lat="46.01915" lon="6.58209">
        <ele>1750</ele>
        <time>2016-04-03T09:57:47Z</time>
      </trkpt>
      <trkpt lat="46.01917" lon="6.58204">
        <ele>1750</ele>
        <time>2016-04-03T09:57:50Z</time>
      </trkpt>
      <trkpt lat="46.01917" lon="6.58202">
        <ele>1750</ele>
        <time>2016-04-03T09:57:51Z</time>
      </trkpt>
      <trkpt lat="46.01924" lon="6.58187">
        <ele>1751</ele>
        <time>2016-04-03T09:58:04Z</time>
      </trkpt>
      <trkpt lat="46.01926" lon="6.58185">
        <ele>1752</ele>
        <time>2016-04-03T09:58:06Z</time>
      </trkpt>
      <trkpt lat="46.0193" lon="6.58177">
        <ele>1752</ele>
        <time>2016-04-03T09:58:13Z</time>
      </trkpt>
      <trkpt lat="46.0193" lon="6.58175">
        <ele>1752</ele>
        <time>2016-04-03T09:58:14Z</time>
      </trkpt>
      <trkpt lat="46.01931" lon="6.58174">
        <ele>1752</ele>
        <time>2016-04-03T09:58:15Z</time>
      </trkpt>
      <trkpt lat="46.01939" lon="6.58163">
        <ele>1753</ele>
        <time>2016-04-03T09:58:27Z</time>
      </trkpt>
      <trkpt lat="46.01941" lon="6.5816">
        <ele>1754</ele>
        <time>2016-04-03T09:58:30Z</time>
      </trkpt>
      <trkpt lat="46.01947" lon="6.58156">
        <ele>1754</ele>
        <time>2016-04-03T09:58:40Z</time>
      </trkpt>
      <trkpt lat="46.01955" lon="6.58149">
        <ele>1755</ele>
        <time>2016-04-03T09:58:52Z</time>
      </trkpt>
      <trkpt lat="46.01956" lon="6.58146">
        <ele>1756</ele>
        <time>2016-04-03T09:58:54Z</time>
      </trkpt>
      <trkpt lat="46.01958" lon="6.5814">
        <ele>1757</ele>
        <time>2016-04-03T09:58:59Z</time>
      </trkpt>
      <trkpt lat="46.01959" lon="6.58138">
        <ele>1757</ele>
        <time>2016-04-03T09:59:01Z</time>
      </trkpt>
      <trkpt lat="46.0196" lon="6.58133">
        <ele>1758</ele>
        <time>2016-04-03T09:59:10Z</time>
      </trkpt>
      <trkpt lat="46.01954" lon="6.58128">
        <ele>1759</ele>
        <time>2016-04-03T09:59:23Z</time>
      </trkpt>
      <trkpt lat="46.01951" lon="6.58125">
        <ele>1759</ele>
        <time>2016-04-03T09:59:27Z</time>
      </trkpt>
      <trkpt lat="46.01947" lon="6.58122">
        <ele>1759</ele>
        <time>2016-04-03T09:59:30Z</time>
      </trkpt>
      <trkpt lat="46.01944" lon="6.58117">
        <ele>1760</ele>
        <time>2016-04-03T09:59:34Z</time>
      </trkpt>
      <trkpt lat="46.01938" lon="6.58112">
        <ele>1761</ele>
        <time>2016-04-03T09:59:41Z</time>
      </trkpt>
      <trkpt lat="46.01935" lon="6.5811">
        <ele>1762</ele>
        <time>2016-04-03T09:59:45Z</time>
      </trkpt>
      <trkpt lat="46.01933" lon="6.58107">
        <ele>1762</ele>
        <time>2016-04-03T09:59:49Z</time>
      </trkpt>
      <trkpt lat="46.0193" lon="6.58106">
        <ele>1762</ele>
        <time>2016-04-03T09:59:52Z</time>
      </trkpt>
      <trkpt lat="46.01924" lon="6.58104">
        <ele>1763</ele>
        <time>2016-04-03T09:59:58Z</time>
      </trkpt>
      <trkpt lat="46.01918" lon="6.58102">
        <ele>1764</ele>
        <time>2016-04-03T10:00:05Z</time>
      </trkpt>
      <trkpt lat="46.01915" lon="6.58102">
        <ele>1764</ele>
        <time>2016-04-03T10:00:07Z</time>
      </trkpt>
      <trkpt lat="46.01914" lon="6.58101">
        <ele>1764</ele>
        <time>2016-04-03T10:00:08Z</time>
      </trkpt>
      <trkpt lat="46.01906" lon="6.58099">
        <ele>1765</ele>
        <time>2016-04-03T10:00:17Z</time>
      </trkpt>
      <trkpt lat="46.01903" lon="6.58099">
        <ele>1766</ele>
        <time>2016-04-03T10:00:20Z</time>
      </trkpt>
      <trkpt lat="46.01899" lon="6.58098">
        <ele>1766</ele>
        <time>2016-04-03T10:00:25Z</time>
      </trkpt>
      <trkpt lat="46.01893" lon="6.58098">
        <ele>1767</ele>
        <time>2016-04-03T10:00:37Z</time>
      </trkpt>
      <trkpt lat="46.01889" lon="6.58092">
        <ele>1769</ele>
        <time>2016-04-03T10:01:03Z</time>
      </trkpt>
      <trkpt lat="46.01886" lon="6.58093">
        <ele>1770</ele>
        <time>2016-04-03T10:01:09Z</time>
      </trkpt>
      <trkpt lat="46.01877" lon="6.58098">
        <ele>1771</ele>
        <time>2016-04-03T10:01:20Z</time>
      </trkpt>
      <trkpt lat="46.01871" lon="6.58096">
        <ele>1771</ele>
        <time>2016-04-03T10:01:28Z</time>
      </trkpt>
      <trkpt lat="46.01866" lon="6.58094">
        <ele>1772</ele>
        <time>2016-04-03T10:01:33Z</time>
      </trkpt>
      <trkpt lat="46.01861" lon="6.58093">
        <ele>1773</ele>
        <time>2016-04-03T10:01:39Z</time>
      </trkpt>
      <trkpt lat="46.01856" lon="6.58091">
        <ele>1774</ele>
        <time>2016-04-03T10:01:46Z</time>
      </trkpt>
      <trkpt lat="46.01851" lon="6.58086">
        <ele>1775</ele>
        <time>2016-04-03T10:01:53Z</time>
      </trkpt>
      <trkpt lat="46.01847" lon="6.58081">
        <ele>1776</ele>
        <time>2016-04-03T10:02:01Z</time>
      </trkpt>
      <trkpt lat="46.01842" lon="6.58076">
        <ele>1777</ele>
        <time>2016-04-03T10:02:10Z</time>
      </trkpt>
      <trkpt lat="46.01841" lon="6.58075">
        <ele>1778</ele>
        <time>2016-04-03T10:02:12Z</time>
      </trkpt>
      <trkpt lat="46.01837" lon="6.58073">
        <ele>1778</ele>
        <time>2016-04-03T10:02:17Z</time>
      </trkpt>
      <trkpt lat="46.01837" lon="6.58072">
        <ele>1778</ele>
        <time>2016-04-03T10:02:18Z</time>
      </trkpt>
      <trkpt lat="46.01834" lon="6.58072">
        <ele>1779</ele>
        <time>2016-04-03T10:02:21Z</time>
      </trkpt>
      <trkpt lat="46.01833" lon="6.58071">
        <ele>1779</ele>
        <time>2016-04-03T10:02:23Z</time>
      </trkpt>
      <trkpt lat="46.01832" lon="6.5807">
        <ele>1779</ele>
        <time>2016-04-03T10:02:24Z</time>
      </trkpt>
      <trkpt lat="46.01831" lon="6.58069">
        <ele>1780</ele>
        <time>2016-04-03T10:02:26Z</time>
      </trkpt>
      <trkpt lat="46.01829" lon="6.58067">
        <ele>1780</ele>
        <time>2016-04-03T10:02:29Z</time>
      </trkpt>
      <trkpt lat="46.01827" lon="6.58066">
        <ele>1780</ele>
        <time>2016-04-03T10:02:31Z</time>
      </trkpt>
      <trkpt lat="46.01825" lon="6.58065">
        <ele>1781</ele>
        <time>2016-04-03T10:02:35Z</time>
      </trkpt>
      <trkpt lat="46.01819" lon="6.58061">
        <ele>1781</ele>
        <time>2016-04-03T10:02:42Z</time>
      </trkpt>
      <trkpt lat="46.01818" lon="6.5806">
        <ele>1781</ele>
        <time>2016-04-03T10:02:44Z</time>
      </trkpt>
      <trkpt lat="46.01817" lon="6.58059">
        <ele>1782</ele>
        <time>2016-04-03T10:02:46Z</time>
      </trkpt>
      <trkpt lat="46.01816" lon="6.58059">
        <ele>1782</ele>
        <time>2016-04-03T10:02:47Z</time>
      </trkpt>
      <trkpt lat="46.01811" lon="6.58057">
        <ele>1783</ele>
        <time>2016-04-03T10:02:53Z</time>
      </trkpt>
      <trkpt lat="46.01807" lon="6.58054">
        <ele>1784</ele>
        <time>2016-04-03T10:03:00Z</time>
      </trkpt>
      <trkpt lat="46.01801" lon="6.58053">
        <ele>1785</ele>
        <time>2016-04-03T10:03:07Z</time>
      </trkpt>
      <trkpt lat="46.01793" lon="6.58051">
        <ele>1786</ele>
        <time>2016-04-03T10:03:18Z</time>
      </trkpt>
      <trkpt lat="46.01788" lon="6.58047">
        <ele>1787</ele>
        <time>2016-04-03T10:03:26Z</time>
      </trkpt>
      <trkpt lat="46.01782" lon="6.58044">
        <ele>1788</ele>
        <time>2016-04-03T10:03:34Z</time>
      </trkpt>
      <trkpt lat="46.01778" lon="6.58041">
        <ele>1789</ele>
        <time>2016-04-03T10:03:41Z</time>
      </trkpt>
      <trkpt lat="46.01772" lon="6.58037">
        <ele>1790</ele>
        <time>2016-04-03T10:03:49Z</time>
      </trkpt>
      <trkpt lat="46.01768" lon="6.58036">
        <ele>1791</ele>
        <time>2016-04-03T10:03:54Z</time>
      </trkpt>
      <trkpt lat="46.01764" lon="6.58035">
        <ele>1792</ele>
        <time>2016-04-03T10:04:03Z</time>
      </trkpt>
      <trkpt lat="46.01761" lon="6.58035">
        <ele>1793</ele>
        <time>2016-04-03T10:04:08Z</time>
      </trkpt>
      <trkpt lat="46.01759" lon="6.58037">
        <ele>1795</ele>
        <time>2016-04-03T10:04:14Z</time>
      </trkpt>
      <trkpt lat="46.01761" lon="6.58044">
        <ele>1796</ele>
        <time>2016-04-03T10:04:23Z</time>
      </trkpt>
      <trkpt lat="46.01756" lon="6.58049">
        <ele>1797</ele>
        <time>2016-04-03T10:04:36Z</time>
      </trkpt>
      <trkpt lat="46.01752" lon="6.58048">
        <ele>1798</ele>
        <time>2016-04-03T10:04:40Z</time>
      </trkpt>
      <trkpt lat="46.01752" lon="6.58048">
        <ele>1798</ele>
        <time>2016-04-03T10:04:42Z</time>
      </trkpt>
      <trkpt lat="46.01747" lon="6.58046">
        <ele>1799</ele>
        <time>2016-04-03T10:04:50Z</time>
      </trkpt>
      <trkpt lat="46.01743" lon="6.58044">
        <ele>1800</ele>
        <time>2016-04-03T10:04:57Z</time>
      </trkpt>
      <trkpt lat="46.0174" lon="6.58042">
        <ele>1801</ele>
        <time>2016-04-03T10:05:02Z</time>
      </trkpt>
      <trkpt lat="46.01732" lon="6.58039">
        <ele>1802</ele>
        <time>2016-04-03T10:05:12Z</time>
      </trkpt>
      <trkpt lat="46.01732" lon="6.58038">
        <ele>1803</ele>
        <time>2016-04-03T10:05:13Z</time>
      </trkpt>
      <trkpt lat="46.01731" lon="6.58036">
        <ele>1803</ele>
        <time>2016-04-03T10:05:16Z</time>
      </trkpt>
      <trkpt lat="46.0173" lon="6.58038">
        <ele>1805</ele>
        <time>2016-04-03T10:05:20Z</time>
      </trkpt>
      <trkpt lat="46.01729" lon="6.5804">
        <ele>1806</ele>
        <time>2016-04-03T10:05:23Z</time>
      </trkpt>
      <trkpt lat="46.01729" lon="6.58044">
        <ele>1807</ele>
        <time>2016-04-03T10:05:28Z</time>
      </trkpt>
      <trkpt lat="46.01729" lon="6.58048">
        <ele>1808</ele>
        <time>2016-04-03T10:05:35Z</time>
      </trkpt>
      <trkpt lat="46.01721" lon="6.58039">
        <ele>1809</ele>
        <time>2016-04-03T10:06:06Z</time>
      </trkpt>
      <trkpt lat="46.0172" lon="6.58043">
        <ele>1810</ele>
        <time>2016-04-03T10:06:10Z</time>
      </trkpt>
      <trkpt lat="46.01721" lon="6.58048">
        <ele>1811</ele>
        <time>2016-04-03T10:06:14Z</time>
      </trkpt>
      <trkpt lat="46.01716" lon="6.58051">
        <ele>1812</ele>
        <time>2016-04-03T10:06:31Z</time>
      </trkpt>
      <trkpt lat="46.01712" lon="6.58055">
        <ele>1813</ele>
        <time>2016-04-03T10:06:38Z</time>
      </trkpt>
      <trkpt lat="46.01711" lon="6.58056">
        <ele>1814</ele>
        <time>2016-04-03T10:06:39Z</time>
      </trkpt>
      <trkpt lat="46.01709" lon="6.58057">
        <ele>1814</ele>
        <time>2016-04-03T10:06:42Z</time>
      </trkpt>
      <trkpt lat="46.01709" lon="6.58058">
        <ele>1815</ele>
        <time>2016-04-03T10:06:43Z</time>
      </trkpt>
      <trkpt lat="46.01707" lon="6.58059">
        <ele>1815</ele>
        <time>2016-04-03T10:06:44Z</time>
      </trkpt>
      <trkpt lat="46.01706" lon="6.5806">
        <ele>1816</ele>
        <time>2016-04-03T10:06:46Z</time>
      </trkpt>
      <trkpt lat="46.01706" lon="6.5806">
        <ele>1816</ele>
        <time>2016-04-03T10:06:47Z</time>
      </trkpt>
      <trkpt lat="46.01703" lon="6.5806">
        <ele>1817</ele>
        <time>2016-04-03T10:06:51Z</time>
      </trkpt>
      <trkpt lat="46.01701" lon="6.5806">
        <ele>1818</ele>
        <time>2016-04-03T10:06:54Z</time>
      </trkpt>
      <trkpt lat="46.01698" lon="6.58059">
        <ele>1819</ele>
        <time>2016-04-03T10:07:34Z</time>
      </trkpt>
      <trkpt lat="46.01695" lon="6.58061">
        <ele>1821</ele>
        <time>2016-04-03T10:07:42Z</time>
      </trkpt>
      <trkpt lat="46.01692" lon="6.58063">
        <ele>1822</ele>
        <time>2016-04-03T10:07:45Z</time>
      </trkpt>
      <trkpt lat="46.01689" lon="6.58064">
        <ele>1823</ele>
        <time>2016-04-03T10:07:49Z</time>
      </trkpt>
      <trkpt lat="46.01685" lon="6.58066">
        <ele>1824</ele>
        <time>2016-04-03T10:07:53Z</time>
      </trkpt>
      <trkpt lat="46.01685" lon="6.58066">
        <ele>1824</ele>
        <time>2016-04-03T10:07:54Z</time>
      </trkpt>
      <trkpt lat="46.01682" lon="6.58067">
        <ele>1825</ele>
        <time>2016-04-03T10:07:57Z</time>
      </trkpt>
      <trkpt lat="46.0168" lon="6.58067">
        <ele>1825</ele>
        <time>2016-04-03T10:07:59Z</time>
      </trkpt>
      <trkpt lat="46.01676" lon="6.58067">
        <ele>1826</ele>
        <time>2016-04-03T10:08:05Z</time>
      </trkpt>
      <trkpt lat="46.01673" lon="6.58066">
        <ele>1827</ele>
        <time>2016-04-03T10:08:09Z</time>
      </trkpt>
      <trkpt lat="46.01671" lon="6.58067">
        <ele>1828</ele>
        <time>2016-04-03T10:08:11Z</time>
      </trkpt>
      <trkpt lat="46.01666" lon="6.58067">
        <ele>1829</ele>
        <time>2016-04-03T10:08:18Z</time>
      </trkpt>
      <trkpt lat="46.01659" lon="6.58068">
        <ele>1830</ele>
        <time>2016-04-03T10:08:26Z</time>
      </trkpt>
      <trkpt lat="46.01659" lon="6.58068">
        <ele>1830</ele>
        <time>2016-04-03T10:08:27Z</time>
      </trkpt>
      <trkpt lat="46.01658" lon="6.58068">
        <ele>1831</ele>
        <time>2016-04-03T10:08:37Z</time>
      </trkpt>
      <trkpt lat="46.01658" lon="6.58066">
        <ele>1831</ele>
        <time>2016-04-03T10:09:27Z</time>
      </trkpt>
      <trkpt lat="46.01661" lon="6.58064">
        <ele>1830</ele>
        <time>2016-04-03T10:10:49Z</time>
      </trkpt>
      <trkpt lat="46.01652" lon="6.58066">
        <ele>1831</ele>
        <time>2016-04-03T10:11:00Z</time>
      </trkpt>
      <trkpt lat="46.01651" lon="6.58066">
        <ele>1831</ele>
        <time>2016-04-03T10:11:02Z</time>
      </trkpt>
      <trkpt lat="46.0165" lon="6.58067">
        <ele>1832</ele>
        <time>2016-04-03T10:11:04Z</time>
      </trkpt>
      <trkpt lat="46.01648" lon="6.58068">
        <ele>1832</ele>
        <time>2016-04-03T10:11:06Z</time>
      </trkpt>
      <trkpt lat="46.01648" lon="6.58068">
        <ele>1832</ele>
        <time>2016-04-03T10:11:07Z</time>
      </trkpt>
      <trkpt lat="46.01646" lon="6.58068">
        <ele>1833</ele>
        <time>2016-04-03T10:11:12Z</time>
      </trkpt>
      <trkpt lat="46.01638" lon="6.58071">
        <ele>1835</ele>
        <time>2016-04-03T10:11:55Z</time>
      </trkpt>
      <trkpt lat="46.01635" lon="6.5807">
        <ele>1836</ele>
        <time>2016-04-03T10:11:59Z</time>
      </trkpt>
      <trkpt lat="46.01629" lon="6.5807">
        <ele>1837</ele>
        <time>2016-04-03T10:12:05Z</time>
      </trkpt>
      <trkpt lat="46.01622" lon="6.58071">
        <ele>1838</ele>
        <time>2016-04-03T10:12:11Z</time>
      </trkpt>
      <trkpt lat="46.01618" lon="6.58071">
        <ele>1839</ele>
        <time>2016-04-03T10:12:15Z</time>
      </trkpt>
      <trkpt lat="46.01615" lon="6.58072">
        <ele>1840</ele>
        <time>2016-04-03T10:12:17Z</time>
      </trkpt>
      <trkpt lat="46.01614" lon="6.58071">
        <ele>1840</ele>
        <time>2016-04-03T10:12:19Z</time>
      </trkpt>
      <trkpt lat="46.01608" lon="6.58074">
        <ele>1841</ele>
        <time>2016-04-03T10:12:25Z</time>
      </trkpt>
      <trkpt lat="46.01607" lon="6.58074">
        <ele>1841</ele>
        <time>2016-04-03T10:12:26Z</time>
      </trkpt>
      <trkpt lat="46.01602" lon="6.58075">
        <ele>1842</ele>
        <time>2016-04-03T10:12:31Z</time>
      </trkpt>
      <trkpt lat="46.01598" lon="6.58076">
        <ele>1844</ele>
        <time>2016-04-03T10:12:36Z</time>
      </trkpt>
      <trkpt lat="46.01593" lon="6.58077">
        <ele>1845</ele>
        <time>2016-04-03T10:12:42Z</time>
      </trkpt>
      <trkpt lat="46.01592" lon="6.58076">
        <ele>1845</ele>
        <time>2016-04-03T10:12:43Z</time>
      </trkpt>
      <trkpt lat="46.0159" lon="6.58076">
        <ele>1845</ele>
        <time>2016-04-03T10:12:45Z</time>
      </trkpt>
      <trkpt lat="46.01582" lon="6.58073">
        <ele>1846</ele>
        <time>2016-04-03T10:12:52Z</time>
      </trkpt>
      <trkpt lat="46.01581" lon="6.58073">
        <ele>1846</ele>
        <time>2016-04-03T10:12:53Z</time>
      </trkpt>
      <trkpt lat="46.01576" lon="6.58071">
        <ele>1847</ele>
        <time>2016-04-03T10:12:58Z</time>
      </trkpt>
      <trkpt lat="46.01574" lon="6.58069">
        <ele>1847</ele>
        <time>2016-04-03T10:13:01Z</time>
      </trkpt>
      <trkpt lat="46.01572" lon="6.58067">
        <ele>1848</ele>
        <time>2016-04-03T10:13:04Z</time>
      </trkpt>
      <trkpt lat="46.01571" lon="6.58067">
        <ele>1848</ele>
        <time>2016-04-03T10:13:05Z</time>
      </trkpt>
      <trkpt lat="46.01567" lon="6.58063">
        <ele>1849</ele>
        <time>2016-04-03T10:13:11Z</time>
      </trkpt>
      <trkpt lat="46.01564" lon="6.58061">
        <ele>1850</ele>
        <time>2016-04-03T10:13:14Z</time>
      </trkpt>
      <trkpt lat="46.01562" lon="6.58061">
        <ele>1850</ele>
        <time>2016-04-03T10:13:16Z</time>
      </trkpt>
      <trkpt lat="46.01562" lon="6.5806">
        <ele>1850</ele>
        <time>2016-04-03T10:13:17Z</time>
      </trkpt>
      <trkpt lat="46.01561" lon="6.58059">
        <ele>1850</ele>
        <time>2016-04-03T10:13:18Z</time>
      </trkpt>
      <trkpt lat="46.01558" lon="6.58057">
        <ele>1851</ele>
        <time>2016-04-03T10:13:22Z</time>
      </trkpt>
      <trkpt lat="46.01557" lon="6.58056">
        <ele>1851</ele>
        <time>2016-04-03T10:13:24Z</time>
      </trkpt>
      <trkpt lat="46.01555" lon="6.58054">
        <ele>1852</ele>
        <time>2016-04-03T10:13:28Z</time>
      </trkpt>
      <trkpt lat="46.01552" lon="6.58054">
        <ele>1852</ele>
        <time>2016-04-03T10:13:31Z</time>
      </trkpt>
      <trkpt lat="46.01551" lon="6.58054">
        <ele>1852</ele>
        <time>2016-04-03T10:13:32Z</time>
      </trkpt>
      <trkpt lat="46.01545" lon="6.58051">
        <ele>1853</ele>
        <time>2016-04-03T10:13:49Z</time>
      </trkpt>
      <trkpt lat="46.01539" lon="6.5805">
        <ele>1854</ele>
        <time>2016-04-03T10:13:56Z</time>
      </trkpt>
      <trkpt lat="46.01536" lon="6.58049">
        <ele>1855</ele>
        <time>2016-04-03T10:13:59Z</time>
      </trkpt>
      <trkpt lat="46.01535" lon="6.58049">
        <ele>1855</ele>
        <time>2016-04-03T10:14:01Z</time>
      </trkpt>
      <trkpt lat="46.01533" lon="6.58049">
        <ele>1856</ele>
        <time>2016-04-03T10:14:03Z</time>
      </trkpt>
      <trkpt lat="46.01531" lon="6.58048">
        <ele>1857</ele>
        <time>2016-04-03T10:14:06Z</time>
      </trkpt>
      <trkpt lat="46.01529" lon="6.58048">
        <ele>1857</ele>
        <time>2016-04-03T10:14:08Z</time>
      </trkpt>
      <trkpt lat="46.01525" lon="6.58047">
        <ele>1858</ele>
        <time>2016-04-03T10:14:11Z</time>
      </trkpt>
      <trkpt lat="46.01522" lon="6.58046">
        <ele>1858</ele>
        <time>2016-04-03T10:14:14Z</time>
      </trkpt>
      <trkpt lat="46.0152" lon="6.58045">
        <ele>1859</ele>
        <time>2016-04-03T10:14:17Z</time>
      </trkpt>
      <trkpt lat="46.01517" lon="6.58044">
        <ele>1859</ele>
        <time>2016-04-03T10:14:20Z</time>
      </trkpt>
      <trkpt lat="46.01515" lon="6.58044">
        <ele>1860</ele>
        <time>2016-04-03T10:14:22Z</time>
      </trkpt>
      <trkpt lat="46.01514" lon="6.58044">
        <ele>1860</ele>
        <time>2016-04-03T10:14:23Z</time>
      </trkpt>
      <trkpt lat="46.01511" lon="6.58043">
        <ele>1861</ele>
        <time>2016-04-03T10:14:25Z</time>
      </trkpt>
      <trkpt lat="46.01509" lon="6.58043">
        <ele>1861</ele>
        <time>2016-04-03T10:14:28Z</time>
      </trkpt>
      <trkpt lat="46.01505" lon="6.58044">
        <ele>1862</ele>
        <time>2016-04-03T10:14:31Z</time>
      </trkpt>
      <trkpt lat="46.01502" lon="6.58045">
        <ele>1862</ele>
        <time>2016-04-03T10:14:34Z</time>
      </trkpt>
      <trkpt lat="46.01498" lon="6.58046">
        <ele>1863</ele>
        <time>2016-04-03T10:14:40Z</time>
      </trkpt>
      <trkpt lat="46.01493" lon="6.58047">
        <ele>1864</ele>
        <time>2016-04-03T10:14:47Z</time>
      </trkpt>
      <trkpt lat="46.01488" lon="6.58046">
        <ele>1865</ele>
        <time>2016-04-03T10:14:54Z</time>
      </trkpt>
      <trkpt lat="46.01484" lon="6.58046">
        <ele>1866</ele>
        <time>2016-04-03T10:14:57Z</time>
      </trkpt>
      <trkpt lat="46.01481" lon="6.58044">
        <ele>1866</ele>
        <time>2016-04-03T10:15:03Z</time>
      </trkpt>
      <trkpt lat="46.0148" lon="6.58044">
        <ele>1867</ele>
        <time>2016-04-03T10:15:05Z</time>
      </trkpt>
      <trkpt lat="46.01475" lon="6.58042">
        <ele>1868</ele>
        <time>2016-04-03T10:15:12Z</time>
      </trkpt>
      <trkpt lat="46.01471" lon="6.58041">
        <ele>1869</ele>
        <time>2016-04-03T10:15:18Z</time>
      </trkpt>
      <trkpt lat="46.01463" lon="6.58041">
        <ele>1870</ele>
        <time>2016-04-03T10:15:28Z</time>
      </trkpt>
      <trkpt lat="46.01457" lon="6.58041">
        <ele>1871</ele>
        <time>2016-04-03T10:15:36Z</time>
      </trkpt>
      <trkpt lat="46.01452" lon="6.58043">
        <ele>1872</ele>
        <time>2016-04-03T10:15:43Z</time>
      </trkpt>
      <trkpt lat="46.0145" lon="6.58044">
        <ele>1872</ele>
        <time>2016-04-03T10:15:45Z</time>
      </trkpt>
      <trkpt lat="46.01445" lon="6.58045">
        <ele>1873</ele>
        <time>2016-04-03T10:15:51Z</time>
      </trkpt>
      <trkpt lat="46.01439" lon="6.58046">
        <ele>1874</ele>
        <time>2016-04-03T10:16:00Z</time>
      </trkpt>
      <trkpt lat="46.01433" lon="6.58047">
        <ele>1875</ele>
        <time>2016-04-03T10:16:08Z</time>
      </trkpt>
      <trkpt lat="46.01426" lon="6.58047">
        <ele>1876</ele>
        <time>2016-04-03T10:16:18Z</time>
      </trkpt>
      <trkpt lat="46.01421" lon="6.58048">
        <ele>1877</ele>
        <time>2016-04-03T10:16:25Z</time>
      </trkpt>
      <trkpt lat="46.01411" lon="6.5805">
        <ele>1878</ele>
        <time>2016-04-03T10:16:37Z</time>
      </trkpt>
      <trkpt lat="46.01405" lon="6.58053">
        <ele>1879</ele>
        <time>2016-04-03T10:16:45Z</time>
      </trkpt>
      <trkpt lat="46.01398" lon="6.58055">
        <ele>1880</ele>
        <time>2016-04-03T10:16:54Z</time>
      </trkpt>
      <trkpt lat="46.01397" lon="6.58056">
        <ele>1881</ele>
        <time>2016-04-03T10:16:55Z</time>
      </trkpt>
      <trkpt lat="46.01394" lon="6.58058">
        <ele>1881</ele>
        <time>2016-04-03T10:16:59Z</time>
      </trkpt>
      <trkpt lat="46.01391" lon="6.58059">
        <ele>1881</ele>
        <time>2016-04-03T10:17:02Z</time>
      </trkpt>
      <trkpt lat="46.01387" lon="6.58062">
        <ele>1882</ele>
        <time>2016-04-03T10:17:08Z</time>
      </trkpt>
      <trkpt lat="46.01385" lon="6.58063">
        <ele>1882</ele>
        <time>2016-04-03T10:17:10Z</time>
      </trkpt>
      <trkpt lat="46.01382" lon="6.58064">
        <ele>1883</ele>
        <time>2016-04-03T10:17:14Z</time>
      </trkpt>
      <trkpt lat="46.0138" lon="6.58065">
        <ele>1883</ele>
        <time>2016-04-03T10:17:16Z</time>
      </trkpt>
      <trkpt lat="46.01378" lon="6.58066">
        <ele>1883</ele>
        <time>2016-04-03T10:17:18Z</time>
      </trkpt>
      <trkpt lat="46.01376" lon="6.58067">
        <ele>1884</ele>
        <time>2016-04-03T10:17:20Z</time>
      </trkpt>
      <trkpt lat="46.01375" lon="6.58067">
        <ele>1884</ele>
        <time>2016-04-03T10:17:21Z</time>
      </trkpt>
      <trkpt lat="46.01373" lon="6.58067">
        <ele>1884</ele>
        <time>2016-04-03T10:17:23Z</time>
      </trkpt>
      <trkpt lat="46.01368" lon="6.58069">
        <ele>1885</ele>
        <time>2016-04-03T10:17:30Z</time>
      </trkpt>
      <trkpt lat="46.01367" lon="6.5807">
        <ele>1885</ele>
        <time>2016-04-03T10:17:31Z</time>
      </trkpt>
      <trkpt lat="46.01364" lon="6.58071">
        <ele>1886</ele>
        <time>2016-04-03T10:17:34Z</time>
      </trkpt>
      <trkpt lat="46.01362" lon="6.58073">
        <ele>1886</ele>
        <time>2016-04-03T10:17:37Z</time>
      </trkpt>
      <trkpt lat="46.01361" lon="6.58075">
        <ele>1886</ele>
        <time>2016-04-03T10:17:39Z</time>
      </trkpt>
      <trkpt lat="46.0136" lon="6.58077">
        <ele>1887</ele>
        <time>2016-04-03T10:17:42Z</time>
      </trkpt>
      <trkpt lat="46.01357" lon="6.58083">
        <ele>1888</ele>
        <time>2016-04-03T10:17:48Z</time>
      </trkpt>
      <trkpt lat="46.01355" lon="6.58086">
        <ele>1889</ele>
        <time>2016-04-03T10:17:52Z</time>
      </trkpt>
      <trkpt lat="46.01353" lon="6.58091">
        <ele>1891</ele>
        <time>2016-04-03T10:17:57Z</time>
      </trkpt>
      <trkpt lat="46.0135" lon="6.58095">
        <ele>1892</ele>
        <time>2016-04-03T10:18:04Z</time>
      </trkpt>
      <trkpt lat="46.0135" lon="6.58097">
        <ele>1891</ele>
        <time>2016-04-03T10:18:34Z</time>
      </trkpt>
      <trkpt lat="46.01351" lon="6.58094">
        <ele>1891</ele>
        <time>2016-04-03T10:20:22Z</time>
      </trkpt>
      <trkpt lat="46.01353" lon="6.58094">
        <ele>1890</ele>
        <time>2016-04-03T10:21:28Z</time>
      </trkpt>
      <trkpt lat="46.01353" lon="6.58094">
        <ele>1890</ele>
        <time>2016-04-03T10:21:42Z</time>
      </trkpt>
      <trkpt lat="46.01352" lon="6.58094">
        <ele>1891</ele>
        <time>2016-04-03T10:23:12Z</time>
      </trkpt>
      <trkpt lat="46.01351" lon="6.58096">
        <ele>1892</ele>
        <time>2016-04-03T10:23:45Z</time>
      </trkpt>
      <trkpt lat="46.0134" lon="6.58095">
        <ele>1892</ele>
        <time>2016-04-03T10:26:42Z</time>
      </trkpt>
      <trkpt lat="46.01339" lon="6.58094">
        <ele>1893</ele>
        <time>2016-04-03T10:26:44Z</time>
      </trkpt>
      <trkpt lat="46.01337" lon="6.58095">
        <ele>1893</ele>
        <time>2016-04-03T10:26:46Z</time>
      </trkpt>
      <trkpt lat="46.01332" lon="6.58094">
        <ele>1893</ele>
        <time>2016-04-03T10:26:54Z</time>
      </trkpt>
      <trkpt lat="46.01327" lon="6.58092">
        <ele>1894</ele>
        <time>2016-04-03T10:26:59Z</time>
      </trkpt>
      <trkpt lat="46.01325" lon="6.58091">
        <ele>1895</ele>
        <time>2016-04-03T10:27:03Z</time>
      </trkpt>
      <trkpt lat="46.01326" lon="6.58092">
        <ele>1895</ele>
        <time>2016-04-03T10:27:08Z</time>
      </trkpt>
      <trkpt lat="46.0132" lon="6.58091">
        <ele>1894</ele>
        <time>2016-04-03T10:27:23Z</time>
      </trkpt>
      <trkpt lat="46.01315" lon="6.58091">
        <ele>1896</ele>
        <time>2016-04-03T10:27:28Z</time>
      </trkpt>
      <trkpt lat="46.01313" lon="6.5809">
        <ele>1896</ele>
        <time>2016-04-03T10:27:30Z</time>
      </trkpt>
      <trkpt lat="46.01309" lon="6.5809">
        <ele>1897</ele>
        <time>2016-04-03T10:27:34Z</time>
      </trkpt>
      <trkpt lat="46.01306" lon="6.5809">
        <ele>1897</ele>
        <time>2016-04-03T10:27:37Z</time>
      </trkpt>
      <trkpt lat="46.01302" lon="6.5809">
        <ele>1898</ele>
        <time>2016-04-03T10:27:41Z</time>
      </trkpt>
      <trkpt lat="46.01298" lon="6.5809">
        <ele>1899</ele>
        <time>2016-04-03T10:27:45Z</time>
      </trkpt>
      <trkpt lat="46.01295" lon="6.58091">
        <ele>1899</ele>
        <time>2016-04-03T10:27:47Z</time>
      </trkpt>
      <trkpt lat="46.01293" lon="6.58091">
        <ele>1900</ele>
        <time>2016-04-03T10:27:49Z</time>
      </trkpt>
      <trkpt lat="46.01288" lon="6.58091">
        <ele>1900</ele>
        <time>2016-04-03T10:27:54Z</time>
      </trkpt>
      <trkpt lat="46.01284" lon="6.58092">
        <ele>1902</ele>
        <time>2016-04-03T10:27:58Z</time>
      </trkpt>
      <trkpt lat="46.01274" lon="6.58097">
        <ele>1903</ele>
        <time>2016-04-03T10:28:10Z</time>
      </trkpt>
      <trkpt lat="46.01272" lon="6.58098">
        <ele>1903</ele>
        <time>2016-04-03T10:28:12Z</time>
      </trkpt>
      <trkpt lat="46.0127" lon="6.58099">
        <ele>1903</ele>
        <time>2016-04-03T10:28:14Z</time>
      </trkpt>
      <trkpt lat="46.01269" lon="6.58099">
        <ele>1903</ele>
        <time>2016-04-03T10:28:16Z</time>
      </trkpt>
      <trkpt lat="46.01267" lon="6.58099">
        <ele>1903</ele>
        <time>2016-04-03T10:28:18Z</time>
      </trkpt>
      <trkpt lat="46.01265" lon="6.581">
        <ele>1903</ele>
        <time>2016-04-03T10:28:20Z</time>
      </trkpt>
      <trkpt lat="46.01263" lon="6.58101">
        <ele>1903</ele>
        <time>2016-04-03T10:28:24Z</time>
      </trkpt>
      <trkpt lat="46.01258" lon="6.58103">
        <ele>1904</ele>
        <time>2016-04-03T10:28:29Z</time>
      </trkpt>
      <trkpt lat="46.01255" lon="6.58104">
        <ele>1904</ele>
        <time>2016-04-03T10:28:32Z</time>
      </trkpt>
      <trkpt lat="46.01247" lon="6.58103">
        <ele>1905</ele>
        <time>2016-04-03T10:28:43Z</time>
      </trkpt>
      <trkpt lat="46.01241" lon="6.58102">
        <ele>1906</ele>
        <time>2016-04-03T10:28:53Z</time>
      </trkpt>
      <trkpt lat="46.01235" lon="6.58103">
        <ele>1907</ele>
        <time>2016-04-03T10:28:59Z</time>
      </trkpt>
      <trkpt lat="46.01228" lon="6.58102">
        <ele>1908</ele>
        <time>2016-04-03T10:29:06Z</time>
      </trkpt>
      <trkpt lat="46.01224" lon="6.58103">
        <ele>1908</ele>
        <time>2016-04-03T10:29:09Z</time>
      </trkpt>
      <trkpt lat="46.01222" lon="6.58103">
        <ele>1908</ele>
        <time>2016-04-03T10:29:12Z</time>
      </trkpt>
      <trkpt lat="46.01216" lon="6.581">
        <ele>1909</ele>
        <time>2016-04-03T10:29:21Z</time>
      </trkpt>
      <trkpt lat="46.01213" lon="6.58094">
        <ele>1910</ele>
        <time>2016-04-03T10:29:29Z</time>
      </trkpt>
      <trkpt lat="46.01208" lon="6.58088">
        <ele>1911</ele>
        <time>2016-04-03T10:29:37Z</time>
      </trkpt>
      <trkpt lat="46.01204" lon="6.58084">
        <ele>1912</ele>
        <time>2016-04-03T10:29:42Z</time>
      </trkpt>
      <trkpt lat="46.01203" lon="6.58084">
        <ele>1912</ele>
        <time>2016-04-03T10:29:43Z</time>
      </trkpt>
      <trkpt lat="46.01199" lon="6.5808">
        <ele>1913</ele>
        <time>2016-04-03T10:29:49Z</time>
      </trkpt>
      <trkpt lat="46.01197" lon="6.58079">
        <ele>1914</ele>
        <time>2016-04-03T10:29:51Z</time>
      </trkpt>
      <trkpt lat="46.01195" lon="6.58077">
        <ele>1915</ele>
        <time>2016-04-03T10:29:55Z</time>
      </trkpt>
      <trkpt lat="46.01188" lon="6.58074">
        <ele>1916</ele>
        <time>2016-04-03T10:30:03Z</time>
      </trkpt>
      <trkpt lat="46.01183" lon="6.58074">
        <ele>1916</ele>
        <time>2016-04-03T10:30:08Z</time>
      </trkpt>
      <trkpt lat="46.01179" lon="6.58075">
        <ele>1917</ele>
        <time>2016-04-03T10:30:13Z</time>
      </trkpt>
      <trkpt lat="46.01175" lon="6.58076">
        <ele>1917</ele>
        <time>2016-04-03T10:30:18Z</time>
      </trkpt>
      <trkpt lat="46.01174" lon="6.58076">
        <ele>1917</ele>
        <time>2016-04-03T10:30:19Z</time>
      </trkpt>
      <trkpt lat="46.01172" lon="6.58076">
        <ele>1917</ele>
        <time>2016-04-03T10:30:20Z</time>
      </trkpt>
      <trkpt lat="46.01169" lon="6.58076">
        <ele>1917</ele>
        <time>2016-04-03T10:30:24Z</time>
      </trkpt>
      <trkpt lat="46.01162" lon="6.58076">
        <ele>1918</ele>
        <time>2016-04-03T10:30:36Z</time>
      </trkpt>
      <trkpt lat="46.01154" lon="6.58075">
        <ele>1919</ele>
        <time>2016-04-03T10:30:50Z</time>
      </trkpt>
      <trkpt lat="46.0115" lon="6.58075">
        <ele>1920</ele>
        <time>2016-04-03T10:30:57Z</time>
      </trkpt>
      <trkpt lat="46.01144" lon="6.58077">
        <ele>1921</ele>
        <time>2016-04-03T10:31:05Z</time>
      </trkpt>
      <trkpt lat="46.01139" lon="6.58078">
        <ele>1922</ele>
        <time>2016-04-03T10:31:13Z</time>
      </trkpt>
      <trkpt lat="46.01131" lon="6.58081">
        <ele>1923</ele>
        <time>2016-04-03T10:31:23Z</time>
      </trkpt>
      <trkpt lat="46.01128" lon="6.58083">
        <ele>1923</ele>
        <time>2016-04-03T10:31:27Z</time>
      </trkpt>
      <trkpt lat="46.01127" lon="6.58084">
        <ele>1924</ele>
        <time>2016-04-03T10:31:29Z</time>
      </trkpt>
      <trkpt lat="46.01125" lon="6.58086">
        <ele>1924</ele>
        <time>2016-04-03T10:31:32Z</time>
      </trkpt>
      <trkpt lat="46.01124" lon="6.58087">
        <ele>1924</ele>
        <time>2016-04-03T10:31:33Z</time>
      </trkpt>
      <trkpt lat="46.01123" lon="6.5809">
        <ele>1925</ele>
        <time>2016-04-03T10:31:36Z</time>
      </trkpt>
      <trkpt lat="46.0112" lon="6.58093">
        <ele>1925</ele>
        <time>2016-04-03T10:31:40Z</time>
      </trkpt>
      <trkpt lat="46.0112" lon="6.58094">
        <ele>1925</ele>
        <time>2016-04-03T10:31:41Z</time>
      </trkpt>
      <trkpt lat="46.01118" lon="6.58098">
        <ele>1926</ele>
        <time>2016-04-03T10:31:49Z</time>
      </trkpt>
      <trkpt lat="46.01114" lon="6.58104">
        <ele>1927</ele>
        <time>2016-04-03T10:31:59Z</time>
      </trkpt>
      <trkpt lat="46.01112" lon="6.5811">
        <ele>1929</ele>
        <time>2016-04-03T10:32:07Z</time>
      </trkpt>
      <trkpt lat="46.01109" lon="6.58114">
        <ele>1930</ele>
        <time>2016-04-03T10:32:13Z</time>
      </trkpt>
      <trkpt lat="46.01107" lon="6.58118">
        <ele>1931</ele>
        <time>2016-04-03T10:32:20Z</time>
      </trkpt>
      <trkpt lat="46.01104" lon="6.58125">
        <ele>1932</ele>
        <time>2016-04-03T10:32:28Z</time>
      </trkpt>
      <trkpt lat="46.01102" lon="6.58131">
        <ele>1933</ele>
        <time>2016-04-03T10:32:36Z</time>
      </trkpt>
      <trkpt lat="46.01099" lon="6.58136">
        <ele>1934</ele>
        <time>2016-04-03T10:32:44Z</time>
      </trkpt>
      <trkpt lat="46.01097" lon="6.58142">
        <ele>1935</ele>
        <time>2016-04-03T10:32:51Z</time>
      </trkpt>
      <trkpt lat="46.01095" lon="6.58147">
        <ele>1936</ele>
        <time>2016-04-03T10:32:59Z</time>
      </trkpt>
      <trkpt lat="46.01092" lon="6.5815">
        <ele>1937</ele>
        <time>2016-04-03T10:33:06Z</time>
      </trkpt>
      <trkpt lat="46.01089" lon="6.58154">
        <ele>1939</ele>
        <time>2016-04-03T10:33:17Z</time>
      </trkpt>
      <trkpt lat="46.01089" lon="6.58159">
        <ele>1940</ele>
        <time>2016-04-03T10:33:24Z</time>
      </trkpt>
      <trkpt lat="46.01088" lon="6.58164">
        <ele>1941</ele>
        <time>2016-04-03T10:33:31Z</time>
      </trkpt>
      <trkpt lat="46.01086" lon="6.58171">
        <ele>1942</ele>
        <time>2016-04-03T10:33:42Z</time>
      </trkpt>
      <trkpt lat="46.01084" lon="6.58171">
        <ele>1942</ele>
        <time>2016-04-03T10:33:45Z</time>
      </trkpt>
      <trkpt lat="46.01082" lon="6.58175">
        <ele>1943</ele>
        <time>2016-04-03T10:33:53Z</time>
      </trkpt>
      <trkpt lat="46.0108" lon="6.5818">
        <ele>1944</ele>
        <time>2016-04-03T10:34:01Z</time>
      </trkpt>
      <trkpt lat="46.01077" lon="6.58185">
        <ele>1945</ele>
        <time>2016-04-03T10:34:08Z</time>
      </trkpt>
      <trkpt lat="46.01073" lon="6.58189">
        <ele>1946</ele>
        <time>2016-04-03T10:34:16Z</time>
      </trkpt>
      <trkpt lat="46.0107" lon="6.58192">
        <ele>1947</ele>
        <time>2016-04-03T10:34:23Z</time>
      </trkpt>
      <trkpt lat="46.01068" lon="6.58195">
        <ele>1948</ele>
        <time>2016-04-03T10:34:30Z</time>
      </trkpt>
      <trkpt lat="46.01066" lon="6.58195">
        <ele>1949</ele>
        <time>2016-04-03T10:34:44Z</time>
      </trkpt>
      <trkpt lat="46.01064" lon="6.58188">
        <ele>1950</ele>
        <time>2016-04-03T10:34:53Z</time>
      </trkpt>
      <trkpt lat="46.01064" lon="6.58183">
        <ele>1951</ele>
        <time>2016-04-03T10:34:58Z</time>
      </trkpt>
      <trkpt lat="46.01063" lon="6.58179">
        <ele>1953</ele>
        <time>2016-04-03T10:35:03Z</time>
      </trkpt>
      <trkpt lat="46.01061" lon="6.58173">
        <ele>1954</ele>
        <time>2016-04-03T10:35:11Z</time>
      </trkpt>
      <trkpt lat="46.0106" lon="6.58166">
        <ele>1955</ele>
        <time>2016-04-03T10:35:18Z</time>
      </trkpt>
      <trkpt lat="46.01057" lon="6.58157">
        <ele>1956</ele>
        <time>2016-04-03T10:35:30Z</time>
      </trkpt>
      <trkpt lat="46.01055" lon="6.58156">
        <ele>1957</ele>
        <time>2016-04-03T10:35:33Z</time>
      </trkpt>
      <trkpt lat="46.01054" lon="6.58156">
        <ele>1958</ele>
        <time>2016-04-03T10:35:36Z</time>
      </trkpt>
      <trkpt lat="46.01053" lon="6.58157">
        <ele>1959</ele>
        <time>2016-04-03T10:35:38Z</time>
      </trkpt>
      <trkpt lat="46.01049" lon="6.58161">
        <ele>1960</ele>
        <time>2016-04-03T10:35:45Z</time>
      </trkpt>
      <trkpt lat="46.01045" lon="6.58165">
        <ele>1961</ele>
        <time>2016-04-03T10:35:51Z</time>
      </trkpt>
      <trkpt lat="46.01043" lon="6.58167">
        <ele>1963</ele>
        <time>2016-04-03T10:35:55Z</time>
      </trkpt>
      <trkpt lat="46.01034" lon="6.5818">
        <ele>1964</ele>
        <time>2016-04-03T10:36:12Z</time>
      </trkpt>
      <trkpt lat="46.01032" lon="6.58182">
        <ele>1965</ele>
        <time>2016-04-03T10:36:15Z</time>
      </trkpt>
      <trkpt lat="46.01026" lon="6.58195">
        <ele>1966</ele>
        <time>2016-04-03T10:36:36Z</time>
      </trkpt>
      <trkpt lat="46.01023" lon="6.582">
        <ele>1967</ele>
        <time>2016-04-03T10:36:44Z</time>
      </trkpt>
      <trkpt lat="46.01019" lon="6.5821">
        <ele>1968</ele>
        <time>2016-04-03T10:36:57Z</time>
      </trkpt>
      <trkpt lat="46.01015" lon="6.58217">
        <ele>1969</ele>
        <time>2016-04-03T10:37:07Z</time>
      </trkpt>
      <trkpt lat="46.01013" lon="6.5822">
        <ele>1970</ele>
        <time>2016-04-03T10:37:13Z</time>
      </trkpt>
      <trkpt lat="46.0101" lon="6.58224">
        <ele>1971</ele>
        <time>2016-04-03T10:37:20Z</time>
      </trkpt>
      <trkpt lat="46.01004" lon="6.58231">
        <ele>1972</ele>
        <time>2016-04-03T10:37:33Z</time>
      </trkpt>
      <trkpt lat="46.01001" lon="6.58233">
        <ele>1973</ele>
        <time>2016-04-03T10:37:38Z</time>
      </trkpt>
      <trkpt lat="46.01" lon="6.58233">
        <ele>1974</ele>
        <time>2016-04-03T10:37:45Z</time>
      </trkpt>
      <trkpt lat="46.00994" lon="6.58239">
        <ele>1975</ele>
        <time>2016-04-03T10:38:02Z</time>
      </trkpt>
      <trkpt lat="46.00991" lon="6.58241">
        <ele>1976</ele>
        <time>2016-04-03T10:38:06Z</time>
      </trkpt>
      <trkpt lat="46.00987" lon="6.58243">
        <ele>1978</ele>
        <time>2016-04-03T10:38:11Z</time>
      </trkpt>
      <trkpt lat="46.00983" lon="6.58245">
        <ele>1979</ele>
        <time>2016-04-03T10:38:16Z</time>
      </trkpt>
      <trkpt lat="46.0098" lon="6.58245">
        <ele>1980</ele>
        <time>2016-04-03T10:38:22Z</time>
      </trkpt>
      <trkpt lat="46.00981" lon="6.58246">
        <ele>1981</ele>
        <time>2016-04-03T10:38:37Z</time>
      </trkpt>
      <trkpt lat="46.00974" lon="6.58244">
        <ele>1980</ele>
        <time>2016-04-03T10:39:00Z</time>
      </trkpt>
      <trkpt lat="46.00969" lon="6.58243">
        <ele>1981</ele>
        <time>2016-04-03T10:39:05Z</time>
      </trkpt>
      <trkpt lat="46.00967" lon="6.58242">
        <ele>1982</ele>
        <time>2016-04-03T10:39:07Z</time>
      </trkpt>
      <trkpt lat="46.00962" lon="6.58239">
        <ele>1983</ele>
        <time>2016-04-03T10:39:12Z</time>
      </trkpt>
      <trkpt lat="46.00959" lon="6.58235">
        <ele>1984</ele>
        <time>2016-04-03T10:39:17Z</time>
      </trkpt>
      <trkpt lat="46.00957" lon="6.58234">
        <ele>1985</ele>
        <time>2016-04-03T10:39:20Z</time>
      </trkpt>
      <trkpt lat="46.00952" lon="6.58233">
        <ele>1986</ele>
        <time>2016-04-03T10:39:27Z</time>
      </trkpt>
      <trkpt lat="46.00949" lon="6.58232">
        <ele>1986</ele>
        <time>2016-04-03T10:39:29Z</time>
      </trkpt>
      <trkpt lat="46.00943" lon="6.58226">
        <ele>1987</ele>
        <time>2016-04-03T10:39:36Z</time>
      </trkpt>
      <trkpt lat="46.00943" lon="6.58226">
        <ele>1988</ele>
        <time>2016-04-03T10:39:40Z</time>
      </trkpt>
      <trkpt lat="46.00943" lon="6.58226">
        <ele>1990</ele>
        <time>2016-04-03T10:40:18Z</time>
      </trkpt>
      <trkpt lat="46.00938" lon="6.58223">
        <ele>1990</ele>
        <time>2016-04-03T10:40:27Z</time>
      </trkpt>
      <trkpt lat="46.00936" lon="6.5822">
        <ele>1991</ele>
        <time>2016-04-03T10:40:29Z</time>
      </trkpt>
      <trkpt lat="46.00932" lon="6.58215">
        <ele>1992</ele>
        <time>2016-04-03T10:40:33Z</time>
      </trkpt>
      <trkpt lat="46.0093" lon="6.58209">
        <ele>1993</ele>
        <time>2016-04-03T10:40:37Z</time>
      </trkpt>
      <trkpt lat="46.00929" lon="6.58206">
        <ele>1993</ele>
        <time>2016-04-03T10:40:39Z</time>
      </trkpt>
      <trkpt lat="46.00926" lon="6.58196">
        <ele>1994</ele>
        <time>2016-04-03T10:40:45Z</time>
      </trkpt>
      <trkpt lat="46.00926" lon="6.58182">
        <ele>1995</ele>
        <time>2016-04-03T10:40:52Z</time>
      </trkpt>
      <trkpt lat="46.00926" lon="6.58175">
        <ele>1996</ele>
        <time>2016-04-03T10:40:57Z</time>
      </trkpt>
      <trkpt lat="46.00926" lon="6.58173">
        <ele>1996</ele>
        <time>2016-04-03T10:40:58Z</time>
      </trkpt>
      <trkpt lat="46.00924" lon="6.58158">
        <ele>1997</ele>
        <time>2016-04-03T10:41:09Z</time>
      </trkpt>
      <trkpt lat="46.00925" lon="6.58142">
        <ele>1996</ele>
        <time>2016-04-03T10:41:33Z</time>
      </trkpt>
      <trkpt lat="46.00933" lon="6.58112">
        <ele>1997</ele>
        <time>2016-04-03T10:41:55Z</time>
      </trkpt>
      <trkpt lat="46.00935" lon="6.58107">
        <ele>1999</ele>
        <time>2016-04-03T10:41:59Z</time>
      </trkpt>
      <trkpt lat="46.00944" lon="6.58088">
        <ele>1999</ele>
        <time>2016-04-03T10:42:14Z</time>
      </trkpt>
      <trkpt lat="46.00952" lon="6.58069">
        <ele>2000</ele>
        <time>2016-04-03T10:42:28Z</time>
      </trkpt>
      <trkpt lat="46.00957" lon="6.58058">
        <ele>2001</ele>
        <time>2016-04-03T10:42:36Z</time>
      </trkpt>
      <trkpt lat="46.0096" lon="6.58054">
        <ele>2002</ele>
        <time>2016-04-03T10:42:40Z</time>
      </trkpt>
      <trkpt lat="46.00964" lon="6.5805">
        <ele>2003</ele>
        <time>2016-04-03T10:42:44Z</time>
      </trkpt>
      <trkpt lat="46.00968" lon="6.58042">
        <ele>2004</ele>
        <time>2016-04-03T10:42:51Z</time>
      </trkpt>
      <trkpt lat="46.00976" lon="6.58021">
        <ele>2005</ele>
        <time>2016-04-03T10:43:07Z</time>
      </trkpt>
      <trkpt lat="46.00979" lon="6.58005">
        <ele>2006</ele>
        <time>2016-04-03T10:43:18Z</time>
      </trkpt>
      <trkpt lat="46.00981" lon="6.57996">
        <ele>2006</ele>
        <time>2016-04-03T10:43:25Z</time>
      </trkpt>
      <trkpt lat="46.00984" lon="6.57978">
        <ele>2007</ele>
        <time>2016-04-03T10:43:47Z</time>
      </trkpt>
      <trkpt lat="46.00991" lon="6.57951">
        <ele>2008</ele>
        <time>2016-04-03T10:44:05Z</time>
      </trkpt>
      <trkpt lat="46.00993" lon="6.57936">
        <ele>2009</ele>
        <time>2016-04-03T10:44:15Z</time>
      </trkpt>
      <trkpt lat="46.00994" lon="6.57923">
        <ele>2009</ele>
        <time>2016-04-03T10:44:25Z</time>
      </trkpt>
      <trkpt lat="46.01002" lon="6.57874">
        <ele>2008</ele>
        <time>2016-04-03T10:44:58Z</time>
      </trkpt>
      <trkpt lat="46.01001" lon="6.57867">
        <ele>2008</ele>
        <time>2016-04-03T10:45:01Z</time>
      </trkpt>
      <trkpt lat="46.00999" lon="6.5786">
        <ele>2007</ele>
        <time>2016-04-03T10:45:05Z</time>
      </trkpt>
      <trkpt lat="46.00995" lon="6.57844">
        <ele>2006</ele>
        <time>2016-04-03T10:45:13Z</time>
      </trkpt>
      <trkpt lat="46.00992" lon="6.57833">
        <ele>2005</ele>
        <time>2016-04-03T10:45:17Z</time>
      </trkpt>
      <trkpt lat="46.0099" lon="6.57828">
        <ele>2004</ele>
        <time>2016-04-03T10:45:19Z</time>
      </trkpt>
      <trkpt lat="46.00986" lon="6.57824">
        <ele>2002</ele>
        <time>2016-04-03T10:45:21Z</time>
      </trkpt>
      <trkpt lat="46.00982" lon="6.57821">
        <ele>2001</ele>
        <time>2016-04-03T10:45:23Z</time>
      </trkpt>
      <trkpt lat="46.00978" lon="6.57818">
        <ele>2000</ele>
        <time>2016-04-03T10:45:25Z</time>
      </trkpt>
      <trkpt lat="46.00975" lon="6.57816">
        <ele>1999</ele>
        <time>2016-04-03T10:45:27Z</time>
      </trkpt>
      <trkpt lat="46.0097" lon="6.5781">
        <ele>1997</ele>
        <time>2016-04-03T10:45:30Z</time>
      </trkpt>
      <trkpt lat="46.00966" lon="6.57805">
        <ele>1996</ele>
        <time>2016-04-03T10:45:32Z</time>
      </trkpt>
      <trkpt lat="46.00963" lon="6.57801">
        <ele>1995</ele>
        <time>2016-04-03T10:45:34Z</time>
      </trkpt>
      <trkpt lat="46.00958" lon="6.57794">
        <ele>1993</ele>
        <time>2016-04-03T10:45:37Z</time>
      </trkpt>
      <trkpt lat="46.00955" lon="6.57789">
        <ele>1992</ele>
        <time>2016-04-03T10:45:39Z</time>
      </trkpt>
      <trkpt lat="46.0095" lon="6.57782">
        <ele>1990</ele>
        <time>2016-04-03T10:45:42Z</time>
      </trkpt>
      <trkpt lat="46.00944" lon="6.57775">
        <ele>1989</ele>
        <time>2016-04-03T10:45:45Z</time>
      </trkpt>
      <trkpt lat="46.00941" lon="6.5777">
        <ele>1988</ele>
        <time>2016-04-03T10:45:47Z</time>
      </trkpt>
      <trkpt lat="46.00939" lon="6.57767">
        <ele>1987</ele>
        <time>2016-04-03T10:45:48Z</time>
      </trkpt>
      <trkpt lat="46.00936" lon="6.57761">
        <ele>1985</ele>
        <time>2016-04-03T10:45:50Z</time>
      </trkpt>
      <trkpt lat="46.00931" lon="6.57755">
        <ele>1984</ele>
        <time>2016-04-03T10:45:52Z</time>
      </trkpt>
      <trkpt lat="46.00929" lon="6.5775">
        <ele>1982</ele>
        <time>2016-04-03T10:45:53Z</time>
      </trkpt>
      <trkpt lat="46.00926" lon="6.57745">
        <ele>1981</ele>
        <time>2016-04-03T10:45:54Z</time>
      </trkpt>
      <trkpt lat="46.00923" lon="6.5774">
        <ele>1979</ele>
        <time>2016-04-03T10:45:55Z</time>
      </trkpt>
      <trkpt lat="46.0092" lon="6.57735">
        <ele>1978</ele>
        <time>2016-04-03T10:45:56Z</time>
      </trkpt>
      <trkpt lat="46.00916" lon="6.5773">
        <ele>1977</ele>
        <time>2016-04-03T10:45:57Z</time>
      </trkpt>
      <trkpt lat="46.0091" lon="6.57719">
        <ele>1975</ele>
        <time>2016-04-03T10:45:59Z</time>
      </trkpt>
      <trkpt lat="46.00907" lon="6.57714">
        <ele>1974</ele>
        <time>2016-04-03T10:46:00Z</time>
      </trkpt>
      <trkpt lat="46.00904" lon="6.57709">
        <ele>1973</ele>
        <time>2016-04-03T10:46:01Z</time>
      </trkpt>
      <trkpt lat="46.00901" lon="6.57704">
        <ele>1971</ele>
        <time>2016-04-03T10:46:02Z</time>
      </trkpt>
      <trkpt lat="46.00898" lon="6.577">
        <ele>1970</ele>
        <time>2016-04-03T10:46:03Z</time>
      </trkpt>
      <trkpt lat="46.00894" lon="6.57693">
        <ele>1969</ele>
        <time>2016-04-03T10:46:05Z</time>
      </trkpt>
      <trkpt lat="46.00891" lon="6.57687">
        <ele>1967</ele>
        <time>2016-04-03T10:46:07Z</time>
      </trkpt>
      <trkpt lat="46.00889" lon="6.57684">
        <ele>1966</ele>
        <time>2016-04-03T10:46:09Z</time>
      </trkpt>
      <trkpt lat="46.00888" lon="6.57681">
        <ele>1965</ele>
        <time>2016-04-03T10:46:12Z</time>
      </trkpt>
      <trkpt lat="46.00886" lon="6.57682">
        <ele>1966</ele>
        <time>2016-04-03T10:46:40Z</time>
      </trkpt>
      <trkpt lat="46.00885" lon="6.57681">
        <ele>1967</ele>
        <time>2016-04-03T10:47:59Z</time>
      </trkpt>
      <trkpt lat="46.00883" lon="6.57676">
        <ele>1966</ele>
        <time>2016-04-03T10:48:10Z</time>
      </trkpt>
      <trkpt lat="46.00881" lon="6.57674">
        <ele>1965</ele>
        <time>2016-04-03T10:48:12Z</time>
      </trkpt>
      <trkpt lat="46.0088" lon="6.57672">
        <ele>1965</ele>
        <time>2016-04-03T10:48:14Z</time>
      </trkpt>
      <trkpt lat="46.00878" lon="6.57669">
        <ele>1964</ele>
        <time>2016-04-03T10:48:16Z</time>
      </trkpt>
      <trkpt lat="46.00855" lon="6.57611">
        <ele>1964</ele>
        <time>2016-04-03T10:48:50Z</time>
      </trkpt>
      <trkpt lat="46.00852" lon="6.57606">
        <ele>1963</ele>
        <time>2016-04-03T10:48:52Z</time>
      </trkpt>
      <trkpt lat="46.00844" lon="6.57599">
        <ele>1962</ele>
        <time>2016-04-03T10:48:57Z</time>
      </trkpt>
      <trkpt lat="46.0084" lon="6.57597">
        <ele>1961</ele>
        <time>2016-04-03T10:49:01Z</time>
      </trkpt>
      <trkpt lat="46.00838" lon="6.57595">
        <ele>1962</ele>
        <time>2016-04-03T10:49:04Z</time>
      </trkpt>
      <trkpt lat="46.00836" lon="6.57593">
        <ele>1962</ele>
        <time>2016-04-03T10:49:06Z</time>
      </trkpt>
      <trkpt lat="46.00834" lon="6.57592">
        <ele>1962</ele>
        <time>2016-04-03T10:49:08Z</time>
      </trkpt>
      <trkpt lat="46.00832" lon="6.57589">
        <ele>1962</ele>
        <time>2016-04-03T10:49:12Z</time>
      </trkpt>
      <trkpt lat="46.0083" lon="6.57584">
        <ele>1962</ele>
        <time>2016-04-03T10:49:16Z</time>
      </trkpt>
      <trkpt lat="46.00826" lon="6.57575">
        <ele>1963</ele>
        <time>2016-04-03T10:49:25Z</time>
      </trkpt>
      <trkpt lat="46.00825" lon="6.5757">
        <ele>1964</ele>
        <time>2016-04-03T10:49:30Z</time>
      </trkpt>
      <trkpt lat="46.00822" lon="6.57566">
        <ele>1966</ele>
        <time>2016-04-03T10:49:36Z</time>
      </trkpt>
      <trkpt lat="46.00818" lon="6.57566">
        <ele>1967</ele>
        <time>2016-04-03T10:49:41Z</time>
      </trkpt>
      <trkpt lat="46.00815" lon="6.57564">
        <ele>1968</ele>
        <time>2016-04-03T10:49:47Z</time>
      </trkpt>
      <trkpt lat="46.00813" lon="6.57552">
        <ele>1969</ele>
        <time>2016-04-03T10:49:58Z</time>
      </trkpt>
      <trkpt lat="46.00813" lon="6.57546">
        <ele>1970</ele>
        <time>2016-04-03T10:50:05Z</time>
      </trkpt>
      <trkpt lat="46.00814" lon="6.5754">
        <ele>1971</ele>
        <time>2016-04-03T10:50:11Z</time>
      </trkpt>
      <trkpt lat="46.00811" lon="6.57523">
        <ele>1972</ele>
        <time>2016-04-03T10:50:30Z</time>
      </trkpt>
      <trkpt lat="46.0081" lon="6.57519">
        <ele>1973</ele>
        <time>2016-04-03T10:50:35Z</time>
      </trkpt>
      <trkpt lat="46.00808" lon="6.57518">
        <ele>1975</ele>
        <time>2016-04-03T10:50:38Z</time>
      </trkpt>
      <trkpt lat="46.00806" lon="6.57517">
        <ele>1976</ele>
        <time>2016-04-03T10:50:42Z</time>
      </trkpt>
      <trkpt lat="46.00805" lon="6.57517">
        <ele>1976</ele>
        <time>2016-04-03T10:50:45Z</time>
      </trkpt>
      <trkpt lat="46.00802" lon="6.57515">
        <ele>1977</ele>
        <time>2016-04-03T10:50:49Z</time>
      </trkpt>
      <trkpt lat="46.00797" lon="6.57511">
        <ele>1978</ele>
        <time>2016-04-03T10:51:01Z</time>
      </trkpt>
      <trkpt lat="46.00792" lon="6.57506">
        <ele>1979</ele>
        <time>2016-04-03T10:51:10Z</time>
      </trkpt>
      <trkpt lat="46.00797" lon="6.57495">
        <ele>1980</ele>
        <time>2016-04-03T10:51:22Z</time>
      </trkpt>
      <trkpt lat="46.00798" lon="6.57492">
        <ele>1981</ele>
        <time>2016-04-03T10:51:26Z</time>
      </trkpt>
      <trkpt lat="46.008" lon="6.57486">
        <ele>1982</ele>
        <time>2016-04-03T10:51:35Z</time>
      </trkpt>
      <trkpt lat="46.00799" lon="6.57484">
        <ele>1983</ele>
        <time>2016-04-03T10:51:42Z</time>
      </trkpt>
      <trkpt lat="46.00796" lon="6.57483">
        <ele>1984</ele>
        <time>2016-04-03T10:51:48Z</time>
      </trkpt>
      <trkpt lat="46.00791" lon="6.57482">
        <ele>1985</ele>
        <time>2016-04-03T10:51:56Z</time>
      </trkpt>
      <trkpt lat="46.00787" lon="6.5748">
        <ele>1987</ele>
        <time>2016-04-03T10:52:03Z</time>
      </trkpt>
      <trkpt lat="46.0078" lon="6.57476">
        <ele>1988</ele>
        <time>2016-04-03T10:52:13Z</time>
      </trkpt>
      <trkpt lat="46.00779" lon="6.57475">
        <ele>1988</ele>
        <time>2016-04-03T10:52:14Z</time>
      </trkpt>
      <trkpt lat="46.00775" lon="6.57472">
        <ele>1989</ele>
        <time>2016-04-03T10:52:20Z</time>
      </trkpt>
      <trkpt lat="46.00769" lon="6.57466">
        <ele>1990</ele>
        <time>2016-04-03T10:52:30Z</time>
      </trkpt>
      <trkpt lat="46.00763" lon="6.57459">
        <ele>1991</ele>
        <time>2016-04-03T10:52:43Z</time>
      </trkpt>
      <trkpt lat="46.00759" lon="6.57449">
        <ele>1992</ele>
        <time>2016-04-03T10:52:55Z</time>
      </trkpt>
      <trkpt lat="46.00757" lon="6.57445">
        <ele>1993</ele>
        <time>2016-04-03T10:53:25Z</time>
      </trkpt>
      <trkpt lat="46.00727" lon="6.57398">
        <ele>1993</ele>
        <time>2016-04-03T10:54:45Z</time>
      </trkpt>
      <trkpt lat="46.00707" lon="6.57368">
        <ele>1993</ele>
        <time>2016-04-03T10:55:09Z</time>
      </trkpt>
      <trkpt lat="46.00695" lon="6.57354">
        <ele>1994</ele>
        <time>2016-04-03T10:55:23Z</time>
      </trkpt>
      <trkpt lat="46.00686" lon="6.57341">
        <ele>1995</ele>
        <time>2016-04-03T10:55:34Z</time>
      </trkpt>
      <trkpt lat="46.00671" lon="6.57328">
        <ele>1995</ele>
        <time>2016-04-03T10:55:49Z</time>
      </trkpt>
      <trkpt lat="46.00669" lon="6.57326">
        <ele>1995</ele>
        <time>2016-04-03T10:55:51Z</time>
      </trkpt>
      <trkpt lat="46.00668" lon="6.57323">
        <ele>1995</ele>
        <time>2016-04-03T10:55:54Z</time>
      </trkpt>
      <trkpt lat="46.00669" lon="6.57324">
        <ele>1996</ele>
        <time>2016-04-03T10:56:56Z</time>
      </trkpt>
      <trkpt lat="46.00668" lon="6.57319">
        <ele>1996</ele>
        <time>2016-04-03T10:57:48Z</time>
      </trkpt>
      <trkpt lat="46.00668" lon="6.57317">
        <ele>1996</ele>
        <time>2016-04-03T10:57:50Z</time>
      </trkpt>
      <trkpt lat="46.00668" lon="6.57318">
        <ele>1996</ele>
        <time>2016-04-03T10:57:57Z</time>
      </trkpt>
      <trkpt lat="46.00666" lon="6.57311">
        <ele>1996</ele>
        <time>2016-04-03T10:58:09Z</time>
      </trkpt>
      <trkpt lat="46.00666" lon="6.5731">
        <ele>1996</ele>
        <time>2016-04-03T10:58:11Z</time>
      </trkpt>
      <trkpt lat="46.00665" lon="6.57305">
        <ele>1997</ele>
        <time>2016-04-03T10:59:57Z</time>
      </trkpt>
      <trkpt lat="46.00661" lon="6.57311">
        <ele>1996</ele>
        <time>2016-04-03T11:06:28Z</time>
      </trkpt>
      <trkpt lat="46.00661" lon="6.57314">
        <ele>1996</ele>
        <time>2016-04-03T11:06:30Z</time>
      </trkpt>
      <trkpt lat="46.00663" lon="6.57309">
        <ele>1996</ele>
        <time>2016-04-03T11:06:44Z</time>
      </trkpt>
      <trkpt lat="46.00663" lon="6.57308">
        <ele>1995</ele>
        <time>2016-04-03T11:07:56Z</time>
      </trkpt>
      <trkpt lat="46.00659" lon="6.57305">
        <ele>1995</ele>
        <time>2016-04-03T11:08:43Z</time>
      </trkpt>
      <trkpt lat="46.00638" lon="6.57285">
        <ele>1994</ele>
        <time>2016-04-03T11:08:56Z</time>
      </trkpt>
      <trkpt lat="46.00636" lon="6.5728">
        <ele>1993</ele>
        <time>2016-04-03T11:08:58Z</time>
      </trkpt>
      <trkpt lat="46.00636" lon="6.57279">
        <ele>1992</ele>
        <time>2016-04-03T11:08:59Z</time>
      </trkpt>
      <trkpt lat="46.00636" lon="6.57279">
        <ele>1991</ele>
        <time>2016-04-03T11:09:01Z</time>
      </trkpt>
      <trkpt lat="46.00635" lon="6.57278">
        <ele>1990</ele>
        <time>2016-04-03T11:09:03Z</time>
      </trkpt>
      <trkpt lat="46.00632" lon="6.57271">
        <ele>1989</ele>
        <time>2016-04-03T11:09:06Z</time>
      </trkpt>
      <trkpt lat="46.00631" lon="6.57267">
        <ele>1989</ele>
        <time>2016-04-03T11:09:09Z</time>
      </trkpt>
      <trkpt lat="46.0063" lon="6.57276">
        <ele>1989</ele>
        <time>2016-04-03T11:09:24Z</time>
      </trkpt>
      <trkpt lat="46.00624" lon="6.57288">
        <ele>1989</ele>
        <time>2016-04-03T11:09:27Z</time>
      </trkpt>
      <trkpt lat="46.00621" lon="6.57286">
        <ele>1987</ele>
        <time>2016-04-03T11:09:29Z</time>
      </trkpt>
      <trkpt lat="46.00619" lon="6.57284">
        <ele>1985</ele>
        <time>2016-04-03T11:09:30Z</time>
      </trkpt>
      <trkpt lat="46.00618" lon="6.57283">
        <ele>1983</ele>
        <time>2016-04-03T11:09:31Z</time>
      </trkpt>
      <trkpt lat="46.00618" lon="6.57282">
        <ele>1981</ele>
        <time>2016-04-03T11:09:32Z</time>
      </trkpt>
      <trkpt lat="46.00617" lon="6.57282">
        <ele>1980</ele>
        <time>2016-04-03T11:09:33Z</time>
      </trkpt>
      <trkpt lat="46.00617" lon="6.57281">
        <ele>1978</ele>
        <time>2016-04-03T11:09:34Z</time>
      </trkpt>
      <trkpt lat="46.00617" lon="6.57281">
        <ele>1977</ele>
        <time>2016-04-03T11:09:36Z</time>
      </trkpt>
      <trkpt lat="46.00615" lon="6.57274">
        <ele>1976</ele>
        <time>2016-04-03T11:09:58Z</time>
      </trkpt>
      <trkpt lat="46.00599" lon="6.57271">
        <ele>1974</ele>
        <time>2016-04-03T11:10:16Z</time>
      </trkpt>
      <trkpt lat="46.00595" lon="6.57271">
        <ele>1973</ele>
        <time>2016-04-03T11:10:17Z</time>
      </trkpt>
      <trkpt lat="46.00591" lon="6.5727">
        <ele>1971</ele>
        <time>2016-04-03T11:10:18Z</time>
      </trkpt>
      <trkpt lat="46.00585" lon="6.57269">
        <ele>1969</ele>
        <time>2016-04-03T11:10:19Z</time>
      </trkpt>
      <trkpt lat="46.00581" lon="6.57265">
        <ele>1967</ele>
        <time>2016-04-03T11:10:20Z</time>
      </trkpt>
      <trkpt lat="46.00579" lon="6.57262">
        <ele>1964</ele>
        <time>2016-04-03T11:10:21Z</time>
      </trkpt>
      <trkpt lat="46.00578" lon="6.57259">
        <ele>1961</ele>
        <time>2016-04-03T11:10:22Z</time>
      </trkpt>
      <trkpt lat="46.00578" lon="6.57258">
        <ele>1960</ele>
        <time>2016-04-03T11:10:23Z</time>
      </trkpt>
      <trkpt lat="46.00578" lon="6.57258">
        <ele>1958</ele>
        <time>2016-04-03T11:10:25Z</time>
      </trkpt>
      <trkpt lat="46.00573" lon="6.57265">
        <ele>1957</ele>
        <time>2016-04-03T11:10:35Z</time>
      </trkpt>
      <trkpt lat="46.00571" lon="6.57271">
        <ele>1957</ele>
        <time>2016-04-03T11:10:36Z</time>
      </trkpt>
      <trkpt lat="46.00567" lon="6.57277">
        <ele>1956</ele>
        <time>2016-04-03T11:10:37Z</time>
      </trkpt>
      <trkpt lat="46.00564" lon="6.57282">
        <ele>1955</ele>
        <time>2016-04-03T11:10:38Z</time>
      </trkpt>
      <trkpt lat="46.00562" lon="6.57287">
        <ele>1953</ele>
        <time>2016-04-03T11:10:39Z</time>
      </trkpt>
      <trkpt lat="46.00561" lon="6.57291">
        <ele>1952</ele>
        <time>2016-04-03T11:10:40Z</time>
      </trkpt>
      <trkpt lat="46.0056" lon="6.57301">
        <ele>1951</ele>
        <time>2016-04-03T11:10:42Z</time>
      </trkpt>
      <trkpt lat="46.00564" lon="6.5731">
        <ele>1950</ele>
        <time>2016-04-03T11:10:44Z</time>
      </trkpt>
      <trkpt lat="46.00568" lon="6.57319">
        <ele>1948</ele>
        <time>2016-04-03T11:10:46Z</time>
      </trkpt>
      <trkpt lat="46.00574" lon="6.57329">
        <ele>1947</ele>
        <time>2016-04-03T11:10:48Z</time>
      </trkpt>
      <trkpt lat="46.00577" lon="6.57343">
        <ele>1946</ele>
        <time>2016-04-03T11:10:50Z</time>
      </trkpt>
      <trkpt lat="46.00576" lon="6.57349">
        <ele>1945</ele>
        <time>2016-04-03T11:10:51Z</time>
      </trkpt>
      <trkpt lat="46.00574" lon="6.57357">
        <ele>1943</ele>
        <time>2016-04-03T11:10:52Z</time>
      </trkpt>
      <trkpt lat="46.00571" lon="6.57365">
        <ele>1942</ele>
        <time>2016-04-03T11:10:53Z</time>
      </trkpt>
      <trkpt lat="46.00572" lon="6.57374">
        <ele>1940</ele>
        <time>2016-04-03T11:10:54Z</time>
      </trkpt>
      <trkpt lat="46.00575" lon="6.57381">
        <ele>1938</ele>
        <time>2016-04-03T11:10:55Z</time>
      </trkpt>
      <trkpt lat="46.00578" lon="6.57388">
        <ele>1936</ele>
        <time>2016-04-03T11:10:56Z</time>
      </trkpt>
      <trkpt lat="46.00582" lon="6.57395">
        <ele>1934</ele>
        <time>2016-04-03T11:10:57Z</time>
      </trkpt>
      <trkpt lat="46.00585" lon="6.57401">
        <ele>1932</ele>
        <time>2016-04-03T11:10:58Z</time>
      </trkpt>
      <trkpt lat="46.00588" lon="6.57407">
        <ele>1930</ele>
        <time>2016-04-03T11:10:59Z</time>
      </trkpt>
      <trkpt lat="46.0059" lon="6.57414">
        <ele>1929</ele>
        <time>2016-04-03T11:11:00Z</time>
      </trkpt>
      <trkpt lat="46.00592" lon="6.5742">
        <ele>1928</ele>
        <time>2016-04-03T11:11:01Z</time>
      </trkpt>
      <trkpt lat="46.00593" lon="6.57426">
        <ele>1927</ele>
        <time>2016-04-03T11:11:02Z</time>
      </trkpt>
      <trkpt lat="46.00594" lon="6.57431">
        <ele>1926</ele>
        <time>2016-04-03T11:11:03Z</time>
      </trkpt>
      <trkpt lat="46.00595" lon="6.57437">
        <ele>1925</ele>
        <time>2016-04-03T11:11:04Z</time>
      </trkpt>
      <trkpt lat="46.00597" lon="6.57448">
        <ele>1923</ele>
        <time>2016-04-03T11:11:06Z</time>
      </trkpt>
      <trkpt lat="46.00599" lon="6.57458">
        <ele>1921</ele>
        <time>2016-04-03T11:11:08Z</time>
      </trkpt>
      <trkpt lat="46.00601" lon="6.57466">
        <ele>1920</ele>
        <time>2016-04-03T11:11:10Z</time>
      </trkpt>
      <trkpt lat="46.00603" lon="6.57473">
        <ele>1919</ele>
        <time>2016-04-03T11:11:12Z</time>
      </trkpt>
      <trkpt lat="46.00606" lon="6.57483">
        <ele>1918</ele>
        <time>2016-04-03T11:11:15Z</time>
      </trkpt>
      <trkpt lat="46.00609" lon="6.57494">
        <ele>1917</ele>
        <time>2016-04-03T11:11:18Z</time>
      </trkpt>
      <trkpt lat="46.00612" lon="6.57505">
        <ele>1916</ele>
        <time>2016-04-03T11:11:21Z</time>
      </trkpt>
      <trkpt lat="46.00613" lon="6.57509">
        <ele>1915</ele>
        <time>2016-04-03T11:11:22Z</time>
      </trkpt>
      <trkpt lat="46.00615" lon="6.57517">
        <ele>1915</ele>
        <time>2016-04-03T11:11:24Z</time>
      </trkpt>
      <trkpt lat="46.0062" lon="6.57527">
        <ele>1913</ele>
        <time>2016-04-03T11:11:27Z</time>
      </trkpt>
      <trkpt lat="46.00625" lon="6.57541">
        <ele>1912</ele>
        <time>2016-04-03T11:11:31Z</time>
      </trkpt>
      <trkpt lat="46.0063" lon="6.57555">
        <ele>1911</ele>
        <time>2016-04-03T11:11:34Z</time>
      </trkpt>
      <trkpt lat="46.00633" lon="6.57566">
        <ele>1909</ele>
        <time>2016-04-03T11:11:36Z</time>
      </trkpt>
      <trkpt lat="46.00636" lon="6.57576">
        <ele>1907</ele>
        <time>2016-04-03T11:11:38Z</time>
      </trkpt>
      <trkpt lat="46.00639" lon="6.57587">
        <ele>1906</ele>
        <time>2016-04-03T11:11:40Z</time>
      </trkpt>
      <trkpt lat="46.00643" lon="6.57597">
        <ele>1904</ele>
        <time>2016-04-03T11:11:42Z</time>
      </trkpt>
      <trkpt lat="46.00649" lon="6.57608">
        <ele>1903</ele>
        <time>2016-04-03T11:11:44Z</time>
      </trkpt>
      <trkpt lat="46.00651" lon="6.57616">
        <ele>1901</ele>
        <time>2016-04-03T11:11:46Z</time>
      </trkpt>
      <trkpt lat="46.00654" lon="6.57623">
        <ele>1899</ele>
        <time>2016-04-03T11:11:48Z</time>
      </trkpt>
      <trkpt lat="46.0066" lon="6.57634">
        <ele>1898</ele>
        <time>2016-04-03T11:11:51Z</time>
      </trkpt>
      <trkpt lat="46.00663" lon="6.57646">
        <ele>1897</ele>
        <time>2016-04-03T11:11:53Z</time>
      </trkpt>
      <trkpt lat="46.00665" lon="6.5766">
        <ele>1896</ele>
        <time>2016-04-03T11:11:55Z</time>
      </trkpt>
      <trkpt lat="46.00666" lon="6.5767">
        <ele>1894</ele>
        <time>2016-04-03T11:11:57Z</time>
      </trkpt>
      <trkpt lat="46.00665" lon="6.57678">
        <ele>1892</ele>
        <time>2016-04-03T11:11:59Z</time>
      </trkpt>
      <trkpt lat="46.00666" lon="6.5768">
        <ele>1892</ele>
        <time>2016-04-03T11:12:00Z</time>
      </trkpt>
      <trkpt lat="46.00668" lon="6.57683">
        <ele>1891</ele>
        <time>2016-04-03T11:12:02Z</time>
      </trkpt>
      <trkpt lat="46.00668" lon="6.57683">
        <ele>1891</ele>
        <time>2016-04-03T11:12:03Z</time>
      </trkpt>
      <trkpt lat="46.00672" lon="6.57686">
        <ele>1891</ele>
        <time>2016-04-03T11:12:14Z</time>
      </trkpt>
      <trkpt lat="46.00685" lon="6.57704">
        <ele>1890</ele>
        <time>2016-04-03T11:12:21Z</time>
      </trkpt>
      <trkpt lat="46.00691" lon="6.57714">
        <ele>1889</ele>
        <time>2016-04-03T11:12:23Z</time>
      </trkpt>
      <trkpt lat="46.00697" lon="6.57722">
        <ele>1887</ele>
        <time>2016-04-03T11:12:25Z</time>
      </trkpt>
      <trkpt lat="46.007" lon="6.57729">
        <ele>1886</ele>
        <time>2016-04-03T11:12:27Z</time>
      </trkpt>
      <trkpt lat="46.00705" lon="6.57736">
        <ele>1885</ele>
        <time>2016-04-03T11:12:30Z</time>
      </trkpt>
      <trkpt lat="46.00713" lon="6.57749">
        <ele>1884</ele>
        <time>2016-04-03T11:12:34Z</time>
      </trkpt>
      <trkpt lat="46.00717" lon="6.57758">
        <ele>1883</ele>
        <time>2016-04-03T11:12:37Z</time>
      </trkpt>
      <trkpt lat="46.00721" lon="6.57764">
        <ele>1882</ele>
        <time>2016-04-03T11:12:40Z</time>
      </trkpt>
      <trkpt lat="46.00724" lon="6.57768">
        <ele>1882</ele>
        <time>2016-04-03T11:12:43Z</time>
      </trkpt>
      <trkpt lat="46.00727" lon="6.57779">
        <ele>1881</ele>
        <time>2016-04-03T11:12:50Z</time>
      </trkpt>
      <trkpt lat="46.00724" lon="6.57802">
        <ele>1880</ele>
        <time>2016-04-03T11:13:13Z</time>
      </trkpt>
      <trkpt lat="46.00723" lon="6.57804">
        <ele>1880</ele>
        <time>2016-04-03T11:13:14Z</time>
      </trkpt>
      <trkpt lat="46.00722" lon="6.57811">
        <ele>1880</ele>
        <time>2016-04-03T11:13:18Z</time>
      </trkpt>
      <trkpt lat="46.00721" lon="6.57817">
        <ele>1880</ele>
        <time>2016-04-03T11:13:27Z</time>
      </trkpt>
      <trkpt lat="46.0072" lon="6.57819">
        <ele>1880</ele>
        <time>2016-04-03T11:13:29Z</time>
      </trkpt>
      <trkpt lat="46.0072" lon="6.57821">
        <ele>1880</ele>
        <time>2016-04-03T11:13:31Z</time>
      </trkpt>
      <trkpt lat="46.00718" lon="6.5783">
        <ele>1881</ele>
        <time>2016-04-03T11:13:39Z</time>
      </trkpt>
      <trkpt lat="46.00717" lon="6.57835">
        <ele>1881</ele>
        <time>2016-04-03T11:13:41Z</time>
      </trkpt>
      <trkpt lat="46.00718" lon="6.57842">
        <ele>1881</ele>
        <time>2016-04-03T11:13:44Z</time>
      </trkpt>
      <trkpt lat="46.00719" lon="6.57845">
        <ele>1880</ele>
        <time>2016-04-03T11:13:46Z</time>
      </trkpt>
      <trkpt lat="46.00721" lon="6.57849">
        <ele>1880</ele>
        <time>2016-04-03T11:13:51Z</time>
      </trkpt>
      <trkpt lat="46.00721" lon="6.57852">
        <ele>1880</ele>
        <time>2016-04-03T11:13:54Z</time>
      </trkpt>
      <trkpt lat="46.00728" lon="6.57871">
        <ele>1881</ele>
        <time>2016-04-03T11:14:18Z</time>
      </trkpt>
      <trkpt lat="46.00729" lon="6.57871">
        <ele>1882</ele>
        <time>2016-04-03T11:14:22Z</time>
      </trkpt>
      <trkpt lat="46.00733" lon="6.57873">
        <ele>1883</ele>
        <time>2016-04-03T11:14:34Z</time>
      </trkpt>
      <trkpt lat="46.00734" lon="6.57872">
        <ele>1884</ele>
        <time>2016-04-03T11:14:44Z</time>
      </trkpt>
      <trkpt lat="46.00734" lon="6.57868">
        <ele>1885</ele>
        <time>2016-04-03T11:14:55Z</time>
      </trkpt>
      <trkpt lat="46.00737" lon="6.57864">
        <ele>1885</ele>
        <time>2016-04-03T11:14:59Z</time>
      </trkpt>
      <trkpt lat="46.00739" lon="6.57863">
        <ele>1885</ele>
        <time>2016-04-03T11:15:01Z</time>
      </trkpt>
      <trkpt lat="46.00742" lon="6.57864">
        <ele>1886</ele>
        <time>2016-04-03T11:15:15Z</time>
      </trkpt>
      <trkpt lat="46.00744" lon="6.57866">
        <ele>1887</ele>
        <time>2016-04-03T11:15:36Z</time>
      </trkpt>
      <trkpt lat="46.00747" lon="6.5786">
        <ele>1888</ele>
        <time>2016-04-03T11:17:28Z</time>
      </trkpt>
      <trkpt lat="46.00747" lon="6.57859">
        <ele>1889</ele>
        <time>2016-04-03T11:17:34Z</time>
      </trkpt>
      <trkpt lat="46.00744" lon="6.5786">
        <ele>1889</ele>
        <time>2016-04-03T11:17:49Z</time>
      </trkpt>
      <trkpt lat="46.00753" lon="6.57853">
        <ele>1896</ele>
        <time>2016-04-03T11:51:30Z</time>
      </trkpt>
      <trkpt lat="46.00753" lon="6.57853">
        <ele>1896</ele>
        <time>2016-04-03T11:51:35Z</time>
      </trkpt>
      <trkpt lat="46.00753" lon="6.57853">
        <ele>1896</ele>
        <time>2016-04-03T11:51:36Z</time>
      </trkpt>
      <trkpt lat="46.00755" lon="6.57853">
        <ele>1895</ele>
        <time>2016-04-03T11:51:43Z</time>
      </trkpt>
      <trkpt lat="46.00763" lon="6.57855">
        <ele>1897</ele>
        <time>2016-04-03T11:51:53Z</time>
      </trkpt>
      <trkpt lat="46.00766" lon="6.57859">
        <ele>1898</ele>
        <time>2016-04-03T11:51:57Z</time>
      </trkpt>
      <trkpt lat="46.00769" lon="6.57862">
        <ele>1899</ele>
        <time>2016-04-03T11:52:01Z</time>
      </trkpt>
      <trkpt lat="46.00775" lon="6.57868">
        <ele>1900</ele>
        <time>2016-04-03T11:52:07Z</time>
      </trkpt>
      <trkpt lat="46.00775" lon="6.5787">
        <ele>1900</ele>
        <time>2016-04-03T11:52:09Z</time>
      </trkpt>
      <trkpt lat="46.00777" lon="6.57873">
        <ele>1901</ele>
        <time>2016-04-03T11:52:13Z</time>
      </trkpt>
      <trkpt lat="46.00778" lon="6.57874">
        <ele>1901</ele>
        <time>2016-04-03T11:52:14Z</time>
      </trkpt>
      <trkpt lat="46.00779" lon="6.57877">
        <ele>1901</ele>
        <time>2016-04-03T11:52:16Z</time>
      </trkpt>
      <trkpt lat="46.00779" lon="6.57879">
        <ele>1902</ele>
        <time>2016-04-03T11:52:18Z</time>
      </trkpt>
      <trkpt lat="46.00779" lon="6.5788">
        <ele>1902</ele>
        <time>2016-04-03T11:52:20Z</time>
      </trkpt>
      <trkpt lat="46.0078" lon="6.57885">
        <ele>1903</ele>
        <time>2016-04-03T11:52:26Z</time>
      </trkpt>
      <trkpt lat="46.0078" lon="6.57888">
        <ele>1904</ele>
        <time>2016-04-03T11:52:31Z</time>
      </trkpt>
      <trkpt lat="46.00781" lon="6.57892">
        <ele>1905</ele>
        <time>2016-04-03T11:52:37Z</time>
      </trkpt>
      <trkpt lat="46.00781" lon="6.57894">
        <ele>1906</ele>
        <time>2016-04-03T11:52:40Z</time>
      </trkpt>
      <trkpt lat="46.00781" lon="6.57895">
        <ele>1906</ele>
        <time>2016-04-03T11:52:42Z</time>
      </trkpt>
      <trkpt lat="46.00781" lon="6.57902">
        <ele>1907</ele>
        <time>2016-04-03T11:52:50Z</time>
      </trkpt>
      <trkpt lat="46.00781" lon="6.57907">
        <ele>1908</ele>
        <time>2016-04-03T11:52:56Z</time>
      </trkpt>
      <trkpt lat="46.00782" lon="6.57911">
        <ele>1909</ele>
        <time>2016-04-03T11:53:03Z</time>
      </trkpt>
      <trkpt lat="46.00785" lon="6.57905">
        <ele>1911</ele>
        <time>2016-04-03T11:53:19Z</time>
      </trkpt>
      <trkpt lat="46.00789" lon="6.57904">
        <ele>1912</ele>
        <time>2016-04-03T11:53:29Z</time>
      </trkpt>
      <trkpt lat="46.00796" lon="6.57901">
        <ele>1913</ele>
        <time>2016-04-03T11:53:46Z</time>
      </trkpt>
      <trkpt lat="46.00798" lon="6.579">
        <ele>1914</ele>
        <time>2016-04-03T11:53:52Z</time>
      </trkpt>
      <trkpt lat="46.00802" lon="6.57895">
        <ele>1915</ele>
        <time>2016-04-03T11:54:01Z</time>
      </trkpt>
      <trkpt lat="46.00802" lon="6.57895">
        <ele>1915</ele>
        <time>2016-04-03T11:54:02Z</time>
      </trkpt>
      <trkpt lat="46.00805" lon="6.57886">
        <ele>1916</ele>
        <time>2016-04-03T11:54:12Z</time>
      </trkpt>
      <trkpt lat="46.00809" lon="6.57884">
        <ele>1918</ele>
        <time>2016-04-03T11:54:18Z</time>
      </trkpt>
      <trkpt lat="46.00813" lon="6.57884">
        <ele>1919</ele>
        <time>2016-04-03T11:54:24Z</time>
      </trkpt>
      <trkpt lat="46.00816" lon="6.57882">
        <ele>1920</ele>
        <time>2016-04-03T11:54:30Z</time>
      </trkpt>
      <trkpt lat="46.00819" lon="6.5788">
        <ele>1921</ele>
        <time>2016-04-03T11:54:37Z</time>
      </trkpt>
      <trkpt lat="46.00822" lon="6.57879">
        <ele>1921</ele>
        <time>2016-04-03T11:54:41Z</time>
      </trkpt>
      <trkpt lat="46.00824" lon="6.57878">
        <ele>1922</ele>
        <time>2016-04-03T11:54:44Z</time>
      </trkpt>
      <trkpt lat="46.00826" lon="6.57876">
        <ele>1923</ele>
        <time>2016-04-03T11:54:49Z</time>
      </trkpt>
      <trkpt lat="46.00828" lon="6.57871">
        <ele>1924</ele>
        <time>2016-04-03T11:54:55Z</time>
      </trkpt>
      <trkpt lat="46.0083" lon="6.5787">
        <ele>1925</ele>
        <time>2016-04-03T11:55:03Z</time>
      </trkpt>
      <trkpt lat="46.0083" lon="6.57867">
        <ele>1924</ele>
        <time>2016-04-03T11:55:17Z</time>
      </trkpt>
      <trkpt lat="46.00834" lon="6.57862">
        <ele>1925</ele>
        <time>2016-04-03T11:55:32Z</time>
      </trkpt>
      <trkpt lat="46.00844" lon="6.57852">
        <ele>1924</ele>
        <time>2016-04-03T11:55:50Z</time>
      </trkpt>
      <trkpt lat="46.00846" lon="6.57846">
        <ele>1925</ele>
        <time>2016-04-03T11:55:57Z</time>
      </trkpt>
      <trkpt lat="46.00847" lon="6.57845">
        <ele>1927</ele>
        <time>2016-04-03T11:55:59Z</time>
      </trkpt>
      <trkpt lat="46.00848" lon="6.57844">
        <ele>1928</ele>
        <time>2016-04-03T11:56:00Z</time>
      </trkpt>
      <trkpt lat="46.00849" lon="6.57843">
        <ele>1930</ele>
        <time>2016-04-03T11:56:02Z</time>
      </trkpt>
      <trkpt lat="46.00851" lon="6.5784">
        <ele>1931</ele>
        <time>2016-04-03T11:56:07Z</time>
      </trkpt>
      <trkpt lat="46.00854" lon="6.57836">
        <ele>1932</ele>
        <time>2016-04-03T11:56:13Z</time>
      </trkpt>
      <trkpt lat="46.00856" lon="6.5783">
        <ele>1933</ele>
        <time>2016-04-03T11:56:23Z</time>
      </trkpt>
      <trkpt lat="46.00861" lon="6.57823">
        <ele>1934</ele>
        <time>2016-04-03T11:56:36Z</time>
      </trkpt>
      <trkpt lat="46.00863" lon="6.57826">
        <ele>1935</ele>
        <time>2016-04-03T11:56:41Z</time>
      </trkpt>
      <trkpt lat="46.00868" lon="6.5783">
        <ele>1936</ele>
        <time>2016-04-03T11:56:48Z</time>
      </trkpt>
      <trkpt lat="46.00868" lon="6.57829">
        <ele>1937</ele>
        <time>2016-04-03T11:56:54Z</time>
      </trkpt>
      <trkpt lat="46.00868" lon="6.57818">
        <ele>1938</ele>
        <time>2016-04-03T11:57:04Z</time>
      </trkpt>
      <trkpt lat="46.00868" lon="6.57816">
        <ele>1939</ele>
        <time>2016-04-03T11:57:06Z</time>
      </trkpt>
      <trkpt lat="46.00869" lon="6.57817">
        <ele>1939</ele>
        <time>2016-04-03T11:57:10Z</time>
      </trkpt>
      <trkpt lat="46.00872" lon="6.57825">
        <ele>1941</ele>
        <time>2016-04-03T11:57:22Z</time>
      </trkpt>
      <trkpt lat="46.00876" lon="6.57829">
        <ele>1942</ele>
        <time>2016-04-03T11:57:28Z</time>
      </trkpt>
      <trkpt lat="46.00878" lon="6.57833">
        <ele>1943</ele>
        <time>2016-04-03T11:57:34Z</time>
      </trkpt>
      <trkpt lat="46.00878" lon="6.57837">
        <ele>1944</ele>
        <time>2016-04-03T11:57:39Z</time>
      </trkpt>
      <trkpt lat="46.00879" lon="6.57841">
        <ele>1945</ele>
        <time>2016-04-03T11:57:43Z</time>
      </trkpt>
      <trkpt lat="46.0088" lon="6.57848">
        <ele>1946</ele>
        <time>2016-04-03T11:57:50Z</time>
      </trkpt>
      <trkpt lat="46.00881" lon="6.57854">
        <ele>1947</ele>
        <time>2016-04-03T11:57:56Z</time>
      </trkpt>
      <trkpt lat="46.00881" lon="6.57864">
        <ele>1948</ele>
        <time>2016-04-03T11:58:05Z</time>
      </trkpt>
      <trkpt lat="46.00881" lon="6.57876">
        <ele>1949</ele>
        <time>2016-04-03T11:58:18Z</time>
      </trkpt>
      <trkpt lat="46.0088" lon="6.57892">
        <ele>1950</ele>
        <time>2016-04-03T11:58:33Z</time>
      </trkpt>
      <trkpt lat="46.0088" lon="6.57904">
        <ele>1951</ele>
        <time>2016-04-03T11:58:44Z</time>
      </trkpt>
      <trkpt lat="46.00881" lon="6.57917">
        <ele>1952</ele>
        <time>2016-04-03T11:58:55Z</time>
      </trkpt>
      <trkpt lat="46.0088" lon="6.57929">
        <ele>1953</ele>
        <time>2016-04-03T11:59:06Z</time>
      </trkpt>
      <trkpt lat="46.0088" lon="6.57941">
        <ele>1954</ele>
        <time>2016-04-03T11:59:17Z</time>
      </trkpt>
      <trkpt lat="46.0088" lon="6.57953">
        <ele>1955</ele>
        <time>2016-04-03T11:59:29Z</time>
      </trkpt>
      <trkpt lat="46.0088" lon="6.57952">
        <ele>1956</ele>
        <time>2016-04-03T11:59:38Z</time>
      </trkpt>
      <trkpt lat="46.00885" lon="6.57941">
        <ele>1957</ele>
        <time>2016-04-03T11:59:52Z</time>
      </trkpt>
      <trkpt lat="46.0089" lon="6.57932">
        <ele>1958</ele>
        <time>2016-04-03T12:00:03Z</time>
      </trkpt>
      <trkpt lat="46.00896" lon="6.57925">
        <ele>1960</ele>
        <time>2016-04-03T12:00:15Z</time>
      </trkpt>
      <trkpt lat="46.00898" lon="6.57929">
        <ele>1961</ele>
        <time>2016-04-03T12:00:25Z</time>
      </trkpt>
      <trkpt lat="46.00897" lon="6.57938">
        <ele>1962</ele>
        <time>2016-04-03T12:00:32Z</time>
      </trkpt>
      <trkpt lat="46.00897" lon="6.5794">
        <ele>1962</ele>
        <time>2016-04-03T12:00:34Z</time>
      </trkpt>
      <trkpt lat="46.00896" lon="6.57941">
        <ele>1962</ele>
        <time>2016-04-03T12:00:35Z</time>
      </trkpt>
      <trkpt lat="46.00892" lon="6.57962">
        <ele>1963</ele>
        <time>2016-04-03T12:00:54Z</time>
      </trkpt>
      <trkpt lat="46.00889" lon="6.57974">
        <ele>1964</ele>
        <time>2016-04-03T12:01:08Z</time>
      </trkpt>
      <trkpt lat="46.00887" lon="6.57978">
        <ele>1965</ele>
        <time>2016-04-03T12:01:16Z</time>
      </trkpt>
      <trkpt lat="46.00882" lon="6.57996">
        <ele>1966</ele>
        <time>2016-04-03T12:01:39Z</time>
      </trkpt>
      <trkpt lat="46.00882" lon="6.57998">
        <ele>1966</ele>
        <time>2016-04-03T12:01:41Z</time>
      </trkpt>
      <trkpt lat="46.00881" lon="6.58001">
        <ele>1967</ele>
        <time>2016-04-03T12:01:44Z</time>
      </trkpt>
      <trkpt lat="46.00881" lon="6.58005">
        <ele>1967</ele>
        <time>2016-04-03T12:01:47Z</time>
      </trkpt>
      <trkpt lat="46.0088" lon="6.58008">
        <ele>1968</ele>
        <time>2016-04-03T12:01:50Z</time>
      </trkpt>
      <trkpt lat="46.0088" lon="6.5801">
        <ele>1968</ele>
        <time>2016-04-03T12:01:52Z</time>
      </trkpt>
      <trkpt lat="46.0088" lon="6.58012">
        <ele>1968</ele>
        <time>2016-04-03T12:01:53Z</time>
      </trkpt>
      <trkpt lat="46.00879" lon="6.58016">
        <ele>1969</ele>
        <time>2016-04-03T12:01:57Z</time>
      </trkpt>
      <trkpt lat="46.00878" lon="6.58017">
        <ele>1969</ele>
        <time>2016-04-03T12:01:58Z</time>
      </trkpt>
      <trkpt lat="46.00877" lon="6.58022">
        <ele>1970</ele>
        <time>2016-04-03T12:02:03Z</time>
      </trkpt>
      <trkpt lat="46.00876" lon="6.58025">
        <ele>1971</ele>
        <time>2016-04-03T12:02:06Z</time>
      </trkpt>
      <trkpt lat="46.00876" lon="6.58027">
        <ele>1972</ele>
        <time>2016-04-03T12:02:08Z</time>
      </trkpt>
      <trkpt lat="46.00875" lon="6.58029">
        <ele>1972</ele>
        <time>2016-04-03T12:02:10Z</time>
      </trkpt>
      <trkpt lat="46.00874" lon="6.58032">
        <ele>1972</ele>
        <time>2016-04-03T12:02:13Z</time>
      </trkpt>
      <trkpt lat="46.00874" lon="6.58033">
        <ele>1973</ele>
        <time>2016-04-03T12:02:14Z</time>
      </trkpt>
      <trkpt lat="46.00873" lon="6.58036">
        <ele>1973</ele>
        <time>2016-04-03T12:02:16Z</time>
      </trkpt>
      <trkpt lat="46.00873" lon="6.58039">
        <ele>1973</ele>
        <time>2016-04-03T12:02:19Z</time>
      </trkpt>
      <trkpt lat="46.00873" lon="6.58042">
        <ele>1974</ele>
        <time>2016-04-03T12:02:22Z</time>
      </trkpt>
      <trkpt lat="46.00874" lon="6.58051">
        <ele>1975</ele>
        <time>2016-04-03T12:02:33Z</time>
      </trkpt>
      <trkpt lat="46.00874" lon="6.58058">
        <ele>1976</ele>
        <time>2016-04-03T12:02:39Z</time>
      </trkpt>
      <trkpt lat="46.00875" lon="6.58064">
        <ele>1977</ele>
        <time>2016-04-03T12:02:45Z</time>
      </trkpt>
      <trkpt lat="46.00877" lon="6.58067">
        <ele>1978</ele>
        <time>2016-04-03T12:02:50Z</time>
      </trkpt>
      <trkpt lat="46.00878" lon="6.58069">
        <ele>1980</ele>
        <time>2016-04-03T12:02:56Z</time>
      </trkpt>
      <trkpt lat="46.00881" lon="6.58071">
        <ele>1981</ele>
        <time>2016-04-03T12:03:12Z</time>
      </trkpt>
      <trkpt lat="46.00884" lon="6.58072">
        <ele>1982</ele>
        <time>2016-04-03T12:03:18Z</time>
      </trkpt>
      <trkpt lat="46.00886" lon="6.58073">
        <ele>1983</ele>
        <time>2016-04-03T12:03:22Z</time>
      </trkpt>
      <trkpt lat="46.00889" lon="6.58073">
        <ele>1984</ele>
        <time>2016-04-03T12:03:28Z</time>
      </trkpt>
      <trkpt lat="46.00892" lon="6.58074">
        <ele>1985</ele>
        <time>2016-04-03T12:03:32Z</time>
      </trkpt>
      <trkpt lat="46.00895" lon="6.58076">
        <ele>1986</ele>
        <time>2016-04-03T12:03:38Z</time>
      </trkpt>
      <trkpt lat="46.00898" lon="6.58078">
        <ele>1987</ele>
        <time>2016-04-03T12:03:44Z</time>
      </trkpt>
      <trkpt lat="46.00901" lon="6.58077">
        <ele>1988</ele>
        <time>2016-04-03T12:03:50Z</time>
      </trkpt>
      <trkpt lat="46.00905" lon="6.58077">
        <ele>1989</ele>
        <time>2016-04-03T12:03:56Z</time>
      </trkpt>
      <trkpt lat="46.00907" lon="6.58076">
        <ele>1990</ele>
        <time>2016-04-03T12:04:02Z</time>
      </trkpt>
      <trkpt lat="46.00909" lon="6.58078">
        <ele>1991</ele>
        <time>2016-04-03T12:04:11Z</time>
      </trkpt>
      <trkpt lat="46.0091" lon="6.58079">
        <ele>1992</ele>
        <time>2016-04-03T12:04:12Z</time>
      </trkpt>
      <trkpt lat="46.0091" lon="6.58081">
        <ele>1992</ele>
        <time>2016-04-03T12:04:14Z</time>
      </trkpt>
      <trkpt lat="46.00911" lon="6.58081">
        <ele>1993</ele>
        <time>2016-04-03T12:04:24Z</time>
      </trkpt>
      <trkpt lat="46.00917" lon="6.5808">
        <ele>1993</ele>
        <time>2016-04-03T12:04:37Z</time>
      </trkpt>
      <trkpt lat="46.00917" lon="6.5808">
        <ele>1994</ele>
        <time>2016-04-03T12:04:38Z</time>
      </trkpt>
      <trkpt lat="46.00918" lon="6.5808">
        <ele>1994</ele>
        <time>2016-04-03T12:04:39Z</time>
      </trkpt>
      <trkpt lat="46.00921" lon="6.5808">
        <ele>1995</ele>
        <time>2016-04-03T12:04:43Z</time>
      </trkpt>
      <trkpt lat="46.00924" lon="6.58083">
        <ele>1996</ele>
        <time>2016-04-03T12:04:47Z</time>
      </trkpt>
      <trkpt lat="46.00927" lon="6.58085">
        <ele>1997</ele>
        <time>2016-04-03T12:04:51Z</time>
      </trkpt>
      <trkpt lat="46.00929" lon="6.58086">
        <ele>1997</ele>
        <time>2016-04-03T12:04:54Z</time>
      </trkpt>
      <trkpt lat="46.0093" lon="6.58087">
        <ele>1997</ele>
        <time>2016-04-03T12:04:55Z</time>
      </trkpt>
      <trkpt lat="46.00936" lon="6.58092">
        <ele>1998</ele>
        <time>2016-04-03T12:05:02Z</time>
      </trkpt>
      <trkpt lat="46.00936" lon="6.58093">
        <ele>1999</ele>
        <time>2016-04-03T12:05:07Z</time>
      </trkpt>
      <trkpt lat="46.00937" lon="6.58095">
        <ele>1999</ele>
        <time>2016-04-03T12:05:09Z</time>
      </trkpt>
      <trkpt lat="46.00941" lon="6.58107">
        <ele>2000</ele>
        <time>2016-04-03T12:05:19Z</time>
      </trkpt>
      <trkpt lat="46.00942" lon="6.58108">
        <ele>2000</ele>
        <time>2016-04-03T12:05:20Z</time>
      </trkpt>
      <trkpt lat="46.00946" lon="6.58119">
        <ele>2001</ele>
        <time>2016-04-03T12:05:29Z</time>
      </trkpt>
      <trkpt lat="46.00947" lon="6.58127">
        <ele>2002</ele>
        <time>2016-04-03T12:05:35Z</time>
      </trkpt>
      <trkpt lat="46.00947" lon="6.5813">
        <ele>2002</ele>
        <time>2016-04-03T12:05:37Z</time>
      </trkpt>
      <trkpt lat="46.00947" lon="6.58132">
        <ele>2003</ele>
        <time>2016-04-03T12:05:38Z</time>
      </trkpt>
      <trkpt lat="46.00948" lon="6.58136">
        <ele>2003</ele>
        <time>2016-04-03T12:05:41Z</time>
      </trkpt>
      <trkpt lat="46.0095" lon="6.58137">
        <ele>2001</ele>
        <time>2016-04-03T12:06:01Z</time>
      </trkpt>
      <trkpt lat="46.0095" lon="6.58137">
        <ele>2002</ele>
        <time>2016-04-03T12:06:35Z</time>
      </trkpt>
      <trkpt lat="46.00949" lon="6.58137">
        <ele>2001</ele>
        <time>2016-04-03T12:07:50Z</time>
      </trkpt>
      <trkpt lat="46.00949" lon="6.58137">
        <ele>2002</ele>
        <time>2016-04-03T12:08:31Z</time>
      </trkpt>
      <trkpt lat="46.00944" lon="6.58135">
        <ele>2003</ele>
        <time>2016-04-03T12:08:42Z</time>
      </trkpt>
      <trkpt lat="46.0094" lon="6.58131">
        <ele>2002</ele>
        <time>2016-04-03T12:09:00Z</time>
      </trkpt>
      <trkpt lat="46.00941" lon="6.58131">
        <ele>2004</ele>
        <time>2016-04-03T12:09:08Z</time>
      </trkpt>
      <trkpt lat="46.00946" lon="6.58133">
        <ele>2003</ele>
        <time>2016-04-03T12:09:22Z</time>
      </trkpt>
      <trkpt lat="46.00948" lon="6.58134">
        <ele>2005</ele>
        <time>2016-04-03T12:09:25Z</time>
      </trkpt>
      <trkpt lat="46.00948" lon="6.58136">
        <ele>2006</ele>
        <time>2016-04-03T12:09:27Z</time>
      </trkpt>
      <trkpt lat="46.00947" lon="6.58136">
        <ele>2004</ele>
        <time>2016-04-03T12:09:37Z</time>
      </trkpt>
      <trkpt lat="46.00947" lon="6.58136">
        <ele>2003</ele>
        <time>2016-04-03T12:09:39Z</time>
      </trkpt>
      <trkpt lat="46.00947" lon="6.58136">
        <ele>2002</ele>
        <time>2016-04-03T12:09:44Z</time>
      </trkpt>
      <trkpt lat="46.00948" lon="6.58137">
        <ele>2003</ele>
        <time>2016-04-03T12:09:56Z</time>
      </trkpt>
      <trkpt lat="46.00948" lon="6.58137">
        <ele>2004</ele>
        <time>2016-04-03T12:09:59Z</time>
      </trkpt>
      <trkpt lat="46.00947" lon="6.58137">
        <ele>2005</ele>
        <time>2016-04-03T12:10:02Z</time>
      </trkpt>
      <trkpt lat="46.00948" lon="6.58137">
        <ele>2006</ele>
        <time>2016-04-03T12:10:14Z</time>
      </trkpt>
      <trkpt lat="46.00948" lon="6.58137">
        <ele>2006</ele>
        <time>2016-04-03T12:10:15Z</time>
      </trkpt>
      <trkpt lat="46.00947" lon="6.58137">
        <ele>2005</ele>
        <time>2016-04-03T12:10:38Z</time>
      </trkpt>
      <trkpt lat="46.00947" lon="6.58137">
        <ele>2007</ele>
        <time>2016-04-03T12:10:41Z</time>
      </trkpt>
      <trkpt lat="46.00947" lon="6.58137">
        <ele>2008</ele>
        <time>2016-04-03T12:10:43Z</time>
      </trkpt>
      <trkpt lat="46.00947" lon="6.58138">
        <ele>2007</ele>
        <time>2016-04-03T12:10:51Z</time>
      </trkpt>
      <trkpt lat="46.00947" lon="6.58137">
        <ele>2006</ele>
        <time>2016-04-03T12:10:59Z</time>
      </trkpt>
      <trkpt lat="46.00947" lon="6.58138">
        <ele>2005</ele>
        <time>2016-04-03T12:11:13Z</time>
      </trkpt>
      <trkpt lat="46.00948" lon="6.58138">
        <ele>2006</ele>
        <time>2016-04-03T12:11:34Z</time>
      </trkpt>
      <trkpt lat="46.00948" lon="6.58138">
        <ele>2007</ele>
        <time>2016-04-03T12:11:36Z</time>
      </trkpt>
      <trkpt lat="46.00948" lon="6.58138">
        <ele>2009</ele>
        <time>2016-04-03T12:11:38Z</time>
      </trkpt>
      <trkpt lat="46.00949" lon="6.58137">
        <ele>2010</ele>
        <time>2016-04-03T12:11:41Z</time>
      </trkpt>
      <trkpt lat="46.00949" lon="6.58137">
        <ele>2009</ele>
        <time>2016-04-03T12:11:46Z</time>
      </trkpt>
      <trkpt lat="46.0095" lon="6.58138">
        <ele>2007</ele>
        <time>2016-04-03T12:11:48Z</time>
      </trkpt>
      <trkpt lat="46.0095" lon="6.58138">
        <ele>2006</ele>
        <time>2016-04-03T12:11:51Z</time>
      </trkpt>
      <trkpt lat="46.0095" lon="6.58138">
        <ele>2005</ele>
        <time>2016-04-03T12:11:54Z</time>
      </trkpt>
      <trkpt lat="46.00951" lon="6.58143">
        <ele>2004</ele>
        <time>2016-04-03T12:11:58Z</time>
      </trkpt>
      <trkpt lat="46.00951" lon="6.58152">
        <ele>2002</ele>
        <time>2016-04-03T12:12:02Z</time>
      </trkpt>
      <trkpt lat="46.00953" lon="6.5817">
        <ele>2001</ele>
        <time>2016-04-03T12:12:08Z</time>
      </trkpt>
      <trkpt lat="46.00952" lon="6.58177">
        <ele>2000</ele>
        <time>2016-04-03T12:12:10Z</time>
      </trkpt>
      <trkpt lat="46.0095" lon="6.58188">
        <ele>1999</ele>
        <time>2016-04-03T12:12:13Z</time>
      </trkpt>
      <trkpt lat="46.00951" lon="6.58195">
        <ele>1998</ele>
        <time>2016-04-03T12:12:15Z</time>
      </trkpt>
      <trkpt lat="46.00954" lon="6.58201">
        <ele>1998</ele>
        <time>2016-04-03T12:12:17Z</time>
      </trkpt>
      <trkpt lat="46.00956" lon="6.58204">
        <ele>1997</ele>
        <time>2016-04-03T12:12:18Z</time>
      </trkpt>
      <trkpt lat="46.00959" lon="6.58207">
        <ele>1996</ele>
        <time>2016-04-03T12:12:19Z</time>
      </trkpt>
      <trkpt lat="46.00964" lon="6.58214">
        <ele>1995</ele>
        <time>2016-04-03T12:12:21Z</time>
      </trkpt>
      <trkpt lat="46.00968" lon="6.58215">
        <ele>1993</ele>
        <time>2016-04-03T12:12:22Z</time>
      </trkpt>
      <trkpt lat="46.0097" lon="6.58213">
        <ele>1992</ele>
        <time>2016-04-03T12:12:23Z</time>
      </trkpt>
      <trkpt lat="46.00972" lon="6.58212">
        <ele>1990</ele>
        <time>2016-04-03T12:12:24Z</time>
      </trkpt>
      <trkpt lat="46.00973" lon="6.5821">
        <ele>1989</ele>
        <time>2016-04-03T12:12:25Z</time>
      </trkpt>
      <trkpt lat="46.00974" lon="6.58208">
        <ele>1988</ele>
        <time>2016-04-03T12:12:26Z</time>
      </trkpt>
      <trkpt lat="46.00974" lon="6.58207">
        <ele>1987</ele>
        <time>2016-04-03T12:12:27Z</time>
      </trkpt>
      <trkpt lat="46.00974" lon="6.58207">
        <ele>1987</ele>
        <time>2016-04-03T12:12:28Z</time>
      </trkpt>
      <trkpt lat="46.00974" lon="6.58206">
        <ele>1986</ele>
        <time>2016-04-03T12:12:34Z</time>
      </trkpt>
      <trkpt lat="46.0098" lon="6.58205">
        <ele>1985</ele>
        <time>2016-04-03T12:12:45Z</time>
      </trkpt>
      <trkpt lat="46.00996" lon="6.58201">
        <ele>1984</ele>
        <time>2016-04-03T12:12:48Z</time>
      </trkpt>
      <trkpt lat="46.01003" lon="6.58199">
        <ele>1982</ele>
        <time>2016-04-03T12:12:49Z</time>
      </trkpt>
      <trkpt lat="46.01009" lon="6.58196">
        <ele>1980</ele>
        <time>2016-04-03T12:12:50Z</time>
      </trkpt>
      <trkpt lat="46.01016" lon="6.58192">
        <ele>1977</ele>
        <time>2016-04-03T12:12:51Z</time>
      </trkpt>
      <trkpt lat="46.01022" lon="6.58188">
        <ele>1974</ele>
        <time>2016-04-03T12:12:52Z</time>
      </trkpt>
      <trkpt lat="46.01028" lon="6.58183">
        <ele>1972</ele>
        <time>2016-04-03T12:12:53Z</time>
      </trkpt>
      <trkpt lat="46.01032" lon="6.58179">
        <ele>1969</ele>
        <time>2016-04-03T12:12:54Z</time>
      </trkpt>
      <trkpt lat="46.01037" lon="6.58174">
        <ele>1966</ele>
        <time>2016-04-03T12:12:55Z</time>
      </trkpt>
      <trkpt lat="46.01041" lon="6.58169">
        <ele>1964</ele>
        <time>2016-04-03T12:12:56Z</time>
      </trkpt>
      <trkpt lat="46.01044" lon="6.58165">
        <ele>1963</ele>
        <time>2016-04-03T12:12:57Z</time>
      </trkpt>
      <trkpt lat="46.01047" lon="6.58161">
        <ele>1961</ele>
        <time>2016-04-03T12:12:58Z</time>
      </trkpt>
      <trkpt lat="46.0105" lon="6.58157">
        <ele>1960</ele>
        <time>2016-04-03T12:12:59Z</time>
      </trkpt>
      <trkpt lat="46.01055" lon="6.58151">
        <ele>1959</ele>
        <time>2016-04-03T12:13:01Z</time>
      </trkpt>
      <trkpt lat="46.01061" lon="6.58143">
        <ele>1958</ele>
        <time>2016-04-03T12:13:03Z</time>
      </trkpt>
      <trkpt lat="46.01068" lon="6.58132">
        <ele>1956</ele>
        <time>2016-04-03T12:13:05Z</time>
      </trkpt>
      <trkpt lat="46.01073" lon="6.5813">
        <ele>1955</ele>
        <time>2016-04-03T12:13:06Z</time>
      </trkpt>
      <trkpt lat="46.01078" lon="6.58132">
        <ele>1954</ele>
        <time>2016-04-03T12:13:07Z</time>
      </trkpt>
      <trkpt lat="46.01084" lon="6.58135">
        <ele>1952</ele>
        <time>2016-04-03T12:13:08Z</time>
      </trkpt>
      <trkpt lat="46.01092" lon="6.58133">
        <ele>1950</ele>
        <time>2016-04-03T12:13:09Z</time>
      </trkpt>
      <trkpt lat="46.01101" lon="6.5813">
        <ele>1948</ele>
        <time>2016-04-03T12:13:10Z</time>
      </trkpt>
      <trkpt lat="46.01109" lon="6.58127">
        <ele>1945</ele>
        <time>2016-04-03T12:13:11Z</time>
      </trkpt>
      <trkpt lat="46.01118" lon="6.58126">
        <ele>1942</ele>
        <time>2016-04-03T12:13:12Z</time>
      </trkpt>
      <trkpt lat="46.01127" lon="6.58125">
        <ele>1939</ele>
        <time>2016-04-03T12:13:13Z</time>
      </trkpt>
      <trkpt lat="46.01135" lon="6.58125">
        <ele>1936</ele>
        <time>2016-04-03T12:13:14Z</time>
      </trkpt>
      <trkpt lat="46.01142" lon="6.58125">
        <ele>1932</ele>
        <time>2016-04-03T12:13:15Z</time>
      </trkpt>
      <trkpt lat="46.01148" lon="6.58126">
        <ele>1929</ele>
        <time>2016-04-03T12:13:16Z</time>
      </trkpt>
      <trkpt lat="46.01154" lon="6.58127">
        <ele>1926</ele>
        <time>2016-04-03T12:13:17Z</time>
      </trkpt>
      <trkpt lat="46.01159" lon="6.58128">
        <ele>1923</ele>
        <time>2016-04-03T12:13:18Z</time>
      </trkpt>
      <trkpt lat="46.01163" lon="6.58129">
        <ele>1920</ele>
        <time>2016-04-03T12:13:19Z</time>
      </trkpt>
      <trkpt lat="46.01166" lon="6.5813">
        <ele>1918</ele>
        <time>2016-04-03T12:13:20Z</time>
      </trkpt>
      <trkpt lat="46.0117" lon="6.5813">
        <ele>1916</ele>
        <time>2016-04-03T12:13:21Z</time>
      </trkpt>
      <trkpt lat="46.01173" lon="6.58131">
        <ele>1915</ele>
        <time>2016-04-03T12:13:22Z</time>
      </trkpt>
      <trkpt lat="46.01176" lon="6.58131">
        <ele>1914</ele>
        <time>2016-04-03T12:13:23Z</time>
      </trkpt>
      <trkpt lat="46.01181" lon="6.58131">
        <ele>1912</ele>
        <time>2016-04-03T12:13:25Z</time>
      </trkpt>
      <trkpt lat="46.01185" lon="6.5813">
        <ele>1911</ele>
        <time>2016-04-03T12:13:27Z</time>
      </trkpt>
      <trkpt lat="46.01193" lon="6.58125">
        <ele>1910</ele>
        <time>2016-04-03T12:13:32Z</time>
      </trkpt>
      <trkpt lat="46.01195" lon="6.58123">
        <ele>1910</ele>
        <time>2016-04-03T12:13:33Z</time>
      </trkpt>
      <trkpt lat="46.01199" lon="6.58119">
        <ele>1910</ele>
        <time>2016-04-03T12:13:35Z</time>
      </trkpt>
      <trkpt lat="46.01201" lon="6.58118">
        <ele>1909</ele>
        <time>2016-04-03T12:13:38Z</time>
      </trkpt>
      <trkpt lat="46.01208" lon="6.58111">
        <ele>1908</ele>
        <time>2016-04-03T12:13:48Z</time>
      </trkpt>
      <trkpt lat="46.0121" lon="6.5811">
        <ele>1908</ele>
        <time>2016-04-03T12:13:50Z</time>
      </trkpt>
      <trkpt lat="46.01215" lon="6.58109">
        <ele>1908</ele>
        <time>2016-04-03T12:13:54Z</time>
      </trkpt>
      <trkpt lat="46.01218" lon="6.58109">
        <ele>1908</ele>
        <time>2016-04-03T12:13:57Z</time>
      </trkpt>
      <trkpt lat="46.01219" lon="6.58109">
        <ele>1908</ele>
        <time>2016-04-03T12:13:58Z</time>
      </trkpt>
      <trkpt lat="46.01228" lon="6.58108">
        <ele>1907</ele>
        <time>2016-04-03T12:14:03Z</time>
      </trkpt>
      <trkpt lat="46.01235" lon="6.58106">
        <ele>1907</ele>
        <time>2016-04-03T12:14:06Z</time>
      </trkpt>
      <trkpt lat="46.01246" lon="6.58102">
        <ele>1906</ele>
        <time>2016-04-03T12:14:10Z</time>
      </trkpt>
      <trkpt lat="46.01254" lon="6.58099">
        <ele>1904</ele>
        <time>2016-04-03T12:14:13Z</time>
      </trkpt>
      <trkpt lat="46.01262" lon="6.58097">
        <ele>1903</ele>
        <time>2016-04-03T12:14:16Z</time>
      </trkpt>
      <trkpt lat="46.01276" lon="6.5809">
        <ele>1902</ele>
        <time>2016-04-03T12:14:22Z</time>
      </trkpt>
      <trkpt lat="46.01292" lon="6.58087">
        <ele>1901</ele>
        <time>2016-04-03T12:14:29Z</time>
      </trkpt>
      <trkpt lat="46.01294" lon="6.58087">
        <ele>1900</ele>
        <time>2016-04-03T12:14:34Z</time>
      </trkpt>
      <trkpt lat="46.01298" lon="6.58086">
        <ele>1900</ele>
        <time>2016-04-03T12:14:52Z</time>
      </trkpt>
      <trkpt lat="46.01319" lon="6.58081">
        <ele>1898</ele>
        <time>2016-04-03T12:14:57Z</time>
      </trkpt>
      <trkpt lat="46.01323" lon="6.5808">
        <ele>1897</ele>
        <time>2016-04-03T12:14:58Z</time>
      </trkpt>
      <trkpt lat="46.01332" lon="6.58078">
        <ele>1895</ele>
        <time>2016-04-03T12:15:00Z</time>
      </trkpt>
      <trkpt lat="46.0134" lon="6.58076">
        <ele>1894</ele>
        <time>2016-04-03T12:15:02Z</time>
      </trkpt>
      <trkpt lat="46.01343" lon="6.58076">
        <ele>1893</ele>
        <time>2016-04-03T12:15:03Z</time>
      </trkpt>
      <trkpt lat="46.01346" lon="6.58075">
        <ele>1892</ele>
        <time>2016-04-03T12:15:04Z</time>
      </trkpt>
      <trkpt lat="46.01353" lon="6.58073">
        <ele>1890</ele>
        <time>2016-04-03T12:15:06Z</time>
      </trkpt>
      <trkpt lat="46.01366" lon="6.58069">
        <ele>1889</ele>
        <time>2016-04-03T12:15:09Z</time>
      </trkpt>
      <trkpt lat="46.0137" lon="6.58067">
        <ele>1888</ele>
        <time>2016-04-03T12:15:10Z</time>
      </trkpt>
      <trkpt lat="46.01376" lon="6.58065">
        <ele>1886</ele>
        <time>2016-04-03T12:15:12Z</time>
      </trkpt>
      <trkpt lat="46.0138" lon="6.58064">
        <ele>1885</ele>
        <time>2016-04-03T12:15:14Z</time>
      </trkpt>
      <trkpt lat="46.01385" lon="6.58063">
        <ele>1884</ele>
        <time>2016-04-03T12:15:16Z</time>
      </trkpt>
      <trkpt lat="46.01398" lon="6.5806">
        <ele>1883</ele>
        <time>2016-04-03T12:15:21Z</time>
      </trkpt>
      <trkpt lat="46.01408" lon="6.58059">
        <ele>1881</ele>
        <time>2016-04-03T12:15:24Z</time>
      </trkpt>
      <trkpt lat="46.01413" lon="6.58056">
        <ele>1880</ele>
        <time>2016-04-03T12:15:26Z</time>
      </trkpt>
      <trkpt lat="46.01422" lon="6.58053">
        <ele>1879</ele>
        <time>2016-04-03T12:15:29Z</time>
      </trkpt>
      <trkpt lat="46.01429" lon="6.58051">
        <ele>1877</ele>
        <time>2016-04-03T12:15:31Z</time>
      </trkpt>
      <trkpt lat="46.01439" lon="6.58049">
        <ele>1876</ele>
        <time>2016-04-03T12:15:34Z</time>
      </trkpt>
      <trkpt lat="46.01445" lon="6.58049">
        <ele>1875</ele>
        <time>2016-04-03T12:15:36Z</time>
      </trkpt>
      <trkpt lat="46.01453" lon="6.58048">
        <ele>1874</ele>
        <time>2016-04-03T12:15:39Z</time>
      </trkpt>
      <trkpt lat="46.01462" lon="6.58047">
        <ele>1872</ele>
        <time>2016-04-03T12:15:42Z</time>
      </trkpt>
      <trkpt lat="46.01472" lon="6.58046">
        <ele>1871</ele>
        <time>2016-04-03T12:15:45Z</time>
      </trkpt>
      <trkpt lat="46.01479" lon="6.58046">
        <ele>1870</ele>
        <time>2016-04-03T12:15:47Z</time>
      </trkpt>
      <trkpt lat="46.01487" lon="6.58047">
        <ele>1869</ele>
        <time>2016-04-03T12:15:49Z</time>
      </trkpt>
      <trkpt lat="46.01493" lon="6.58048">
        <ele>1867</ele>
        <time>2016-04-03T12:15:51Z</time>
      </trkpt>
      <trkpt lat="46.015" lon="6.58049">
        <ele>1866</ele>
        <time>2016-04-03T12:15:53Z</time>
      </trkpt>
      <trkpt lat="46.01508" lon="6.58051">
        <ele>1865</ele>
        <time>2016-04-03T12:15:55Z</time>
      </trkpt>
      <trkpt lat="46.01517" lon="6.58053">
        <ele>1864</ele>
        <time>2016-04-03T12:15:57Z</time>
      </trkpt>
      <trkpt lat="46.01527" lon="6.58056">
        <ele>1863</ele>
        <time>2016-04-03T12:15:59Z</time>
      </trkpt>
      <trkpt lat="46.01536" lon="6.5806">
        <ele>1861</ele>
        <time>2016-04-03T12:16:01Z</time>
      </trkpt>
      <trkpt lat="46.01546" lon="6.58062">
        <ele>1859</ele>
        <time>2016-04-03T12:16:03Z</time>
      </trkpt>
      <trkpt lat="46.01555" lon="6.58064">
        <ele>1857</ele>
        <time>2016-04-03T12:16:05Z</time>
      </trkpt>
      <trkpt lat="46.01559" lon="6.58065">
        <ele>1856</ele>
        <time>2016-04-03T12:16:06Z</time>
      </trkpt>
      <trkpt lat="46.01572" lon="6.58069">
        <ele>1854</ele>
        <time>2016-04-03T12:16:08Z</time>
      </trkpt>
      <trkpt lat="46.01586" lon="6.58073">
        <ele>1852</ele>
        <time>2016-04-03T12:16:10Z</time>
      </trkpt>
      <trkpt lat="46.01594" lon="6.58073">
        <ele>1851</ele>
        <time>2016-04-03T12:16:11Z</time>
      </trkpt>
      <trkpt lat="46.01602" lon="6.58072">
        <ele>1849</ele>
        <time>2016-04-03T12:16:12Z</time>
      </trkpt>
      <trkpt lat="46.0161" lon="6.58071">
        <ele>1847</ele>
        <time>2016-04-03T12:16:13Z</time>
      </trkpt>
      <trkpt lat="46.01618" lon="6.58069">
        <ele>1846</ele>
        <time>2016-04-03T12:16:14Z</time>
      </trkpt>
      <trkpt lat="46.01625" lon="6.58069">
        <ele>1844</ele>
        <time>2016-04-03T12:16:15Z</time>
      </trkpt>
      <trkpt lat="46.01632" lon="6.58069">
        <ele>1843</ele>
        <time>2016-04-03T12:16:16Z</time>
      </trkpt>
      <trkpt lat="46.01638" lon="6.58068">
        <ele>1841</ele>
        <time>2016-04-03T12:16:17Z</time>
      </trkpt>
      <trkpt lat="46.01644" lon="6.58066">
        <ele>1840</ele>
        <time>2016-04-03T12:16:18Z</time>
      </trkpt>
      <trkpt lat="46.0165" lon="6.58064">
        <ele>1838</ele>
        <time>2016-04-03T12:16:19Z</time>
      </trkpt>
      <trkpt lat="46.01657" lon="6.58063">
        <ele>1837</ele>
        <time>2016-04-03T12:16:20Z</time>
      </trkpt>
      <trkpt lat="46.01663" lon="6.58063">
        <ele>1836</ele>
        <time>2016-04-03T12:16:21Z</time>
      </trkpt>
      <trkpt lat="46.0167" lon="6.58063">
        <ele>1834</ele>
        <time>2016-04-03T12:16:22Z</time>
      </trkpt>
      <trkpt lat="46.01675" lon="6.58064">
        <ele>1833</ele>
        <time>2016-04-03T12:16:23Z</time>
      </trkpt>
      <trkpt lat="46.01678" lon="6.58065">
        <ele>1831</ele>
        <time>2016-04-03T12:16:24Z</time>
      </trkpt>
      <trkpt lat="46.01678" lon="6.58066">
        <ele>1829</ele>
        <time>2016-04-03T12:16:25Z</time>
      </trkpt>
      <trkpt lat="46.01678" lon="6.58066">
        <ele>1828</ele>
        <time>2016-04-03T12:16:27Z</time>
      </trkpt>
      <trkpt lat="46.01677" lon="6.58066">
        <ele>1827</ele>
        <time>2016-04-03T12:16:35Z</time>
      </trkpt>
      <trkpt lat="46.01684" lon="6.58064">
        <ele>1826</ele>
        <time>2016-04-03T12:16:40Z</time>
      </trkpt>
      <trkpt lat="46.01693" lon="6.58058">
        <ele>1826</ele>
        <time>2016-04-03T12:16:42Z</time>
      </trkpt>
      <trkpt lat="46.01698" lon="6.58057">
        <ele>1825</ele>
        <time>2016-04-03T12:16:43Z</time>
      </trkpt>
      <trkpt lat="46.01703" lon="6.58053">
        <ele>1824</ele>
        <time>2016-04-03T12:16:44Z</time>
      </trkpt>
      <trkpt lat="46.0171" lon="6.58048">
        <ele>1822</ele>
        <time>2016-04-03T12:16:45Z</time>
      </trkpt>
      <trkpt lat="46.01717" lon="6.58046">
        <ele>1821</ele>
        <time>2016-04-03T12:16:46Z</time>
      </trkpt>
      <trkpt lat="46.01724" lon="6.58048">
        <ele>1819</ele>
        <time>2016-04-03T12:16:47Z</time>
      </trkpt>
      <trkpt lat="46.01729" lon="6.5805">
        <ele>1816</ele>
        <time>2016-04-03T12:16:48Z</time>
      </trkpt>
      <trkpt lat="46.01734" lon="6.58051">
        <ele>1813</ele>
        <time>2016-04-03T12:16:49Z</time>
      </trkpt>
      <trkpt lat="46.01739" lon="6.58051">
        <ele>1811</ele>
        <time>2016-04-03T12:16:50Z</time>
      </trkpt>
      <trkpt lat="46.01744" lon="6.58048">
        <ele>1809</ele>
        <time>2016-04-03T12:16:51Z</time>
      </trkpt>
      <trkpt lat="46.0175" lon="6.58042">
        <ele>1807</ele>
        <time>2016-04-03T12:16:52Z</time>
      </trkpt>
      <trkpt lat="46.01756" lon="6.5804">
        <ele>1805</ele>
        <time>2016-04-03T12:16:53Z</time>
      </trkpt>
      <trkpt lat="46.01761" lon="6.58041">
        <ele>1803</ele>
        <time>2016-04-03T12:16:54Z</time>
      </trkpt>
      <trkpt lat="46.01765" lon="6.58043">
        <ele>1800</ele>
        <time>2016-04-03T12:16:55Z</time>
      </trkpt>
      <trkpt lat="46.01773" lon="6.58046">
        <ele>1798</ele>
        <time>2016-04-03T12:16:57Z</time>
      </trkpt>
      <trkpt lat="46.01778" lon="6.58047">
        <ele>1796</ele>
        <time>2016-04-03T12:16:58Z</time>
      </trkpt>
      <trkpt lat="46.01783" lon="6.58048">
        <ele>1794</ele>
        <time>2016-04-03T12:16:59Z</time>
      </trkpt>
      <trkpt lat="46.01789" lon="6.58049">
        <ele>1793</ele>
        <time>2016-04-03T12:17:00Z</time>
      </trkpt>
      <trkpt lat="46.01795" lon="6.58051">
        <ele>1792</ele>
        <time>2016-04-03T12:17:01Z</time>
      </trkpt>
      <trkpt lat="46.01801" lon="6.58053">
        <ele>1791</ele>
        <time>2016-04-03T12:17:02Z</time>
      </trkpt>
      <trkpt lat="46.01807" lon="6.58056">
        <ele>1789</ele>
        <time>2016-04-03T12:17:03Z</time>
      </trkpt>
      <trkpt lat="46.01813" lon="6.58058">
        <ele>1788</ele>
        <time>2016-04-03T12:17:04Z</time>
      </trkpt>
      <trkpt lat="46.0182" lon="6.58062">
        <ele>1787</ele>
        <time>2016-04-03T12:17:05Z</time>
      </trkpt>
      <trkpt lat="46.01825" lon="6.58067">
        <ele>1786</ele>
        <time>2016-04-03T12:17:06Z</time>
      </trkpt>
      <trkpt lat="46.01831" lon="6.58072">
        <ele>1785</ele>
        <time>2016-04-03T12:17:07Z</time>
      </trkpt>
      <trkpt lat="46.01836" lon="6.58077">
        <ele>1783</ele>
        <time>2016-04-03T12:17:08Z</time>
      </trkpt>
      <trkpt lat="46.01841" lon="6.58083">
        <ele>1782</ele>
        <time>2016-04-03T12:17:09Z</time>
      </trkpt>
      <trkpt lat="46.01845" lon="6.58088">
        <ele>1781</ele>
        <time>2016-04-03T12:17:10Z</time>
      </trkpt>
      <trkpt lat="46.01854" lon="6.58094">
        <ele>1779</ele>
        <time>2016-04-03T12:17:12Z</time>
      </trkpt>
      <trkpt lat="46.01864" lon="6.58097">
        <ele>1778</ele>
        <time>2016-04-03T12:17:14Z</time>
      </trkpt>
      <trkpt lat="46.01869" lon="6.58097">
        <ele>1776</ele>
        <time>2016-04-03T12:17:15Z</time>
      </trkpt>
      <trkpt lat="46.01873" lon="6.58097">
        <ele>1775</ele>
        <time>2016-04-03T12:17:16Z</time>
      </trkpt>
      <trkpt lat="46.01879" lon="6.58096">
        <ele>1774</ele>
        <time>2016-04-03T12:17:17Z</time>
      </trkpt>
      <trkpt lat="46.0189" lon="6.58093">
        <ele>1773</ele>
        <time>2016-04-03T12:17:19Z</time>
      </trkpt>
      <trkpt lat="46.01902" lon="6.58092">
        <ele>1771</ele>
        <time>2016-04-03T12:17:21Z</time>
      </trkpt>
      <trkpt lat="46.01907" lon="6.58092">
        <ele>1770</ele>
        <time>2016-04-03T12:17:22Z</time>
      </trkpt>
      <trkpt lat="46.01917" lon="6.58095">
        <ele>1768</ele>
        <time>2016-04-03T12:17:24Z</time>
      </trkpt>
      <trkpt lat="46.01926" lon="6.58096">
        <ele>1766</ele>
        <time>2016-04-03T12:17:26Z</time>
      </trkpt>
      <trkpt lat="46.0193" lon="6.58098">
        <ele>1765</ele>
        <time>2016-04-03T12:17:27Z</time>
      </trkpt>
      <trkpt lat="46.01934" lon="6.581">
        <ele>1764</ele>
        <time>2016-04-03T12:17:28Z</time>
      </trkpt>
      <trkpt lat="46.0194" lon="6.58105">
        <ele>1763</ele>
        <time>2016-04-03T12:17:30Z</time>
      </trkpt>
      <trkpt lat="46.01945" lon="6.58111">
        <ele>1762</ele>
        <time>2016-04-03T12:17:32Z</time>
      </trkpt>
      <trkpt lat="46.01947" lon="6.58115">
        <ele>1762</ele>
        <time>2016-04-03T12:17:33Z</time>
      </trkpt>
      <trkpt lat="46.01949" lon="6.58118">
        <ele>1761</ele>
        <time>2016-04-03T12:17:34Z</time>
      </trkpt>
      <trkpt lat="46.01952" lon="6.58124">
        <ele>1760</ele>
        <time>2016-04-03T12:17:36Z</time>
      </trkpt>
      <trkpt lat="46.01955" lon="6.5813">
        <ele>1759</ele>
        <time>2016-04-03T12:17:38Z</time>
      </trkpt>
      <trkpt lat="46.01957" lon="6.58136">
        <ele>1758</ele>
        <time>2016-04-03T12:17:40Z</time>
      </trkpt>
      <trkpt lat="46.01957" lon="6.58139">
        <ele>1758</ele>
        <time>2016-04-03T12:17:41Z</time>
      </trkpt>
      <trkpt lat="46.01957" lon="6.58142">
        <ele>1758</ele>
        <time>2016-04-03T12:17:42Z</time>
      </trkpt>
      <trkpt lat="46.01955" lon="6.58145">
        <ele>1757</ele>
        <time>2016-04-03T12:17:44Z</time>
      </trkpt>
      <trkpt lat="46.01952" lon="6.58148">
        <ele>1757</ele>
        <time>2016-04-03T12:17:46Z</time>
      </trkpt>
      <trkpt lat="46.01938" lon="6.58154">
        <ele>1756</ele>
        <time>2016-04-03T12:17:51Z</time>
      </trkpt>
      <trkpt lat="46.01937" lon="6.58154">
        <ele>1755</ele>
        <time>2016-04-03T12:17:52Z</time>
      </trkpt>
      <trkpt lat="46.01937" lon="6.58155">
        <ele>1754</ele>
        <time>2016-04-03T12:17:54Z</time>
      </trkpt>
      <trkpt lat="46.0194" lon="6.58159">
        <ele>1753</ele>
        <time>2016-04-03T12:18:02Z</time>
      </trkpt>
      <trkpt lat="46.01947" lon="6.58162">
        <ele>1753</ele>
        <time>2016-04-03T12:18:08Z</time>
      </trkpt>
      <trkpt lat="46.01947" lon="6.58165">
        <ele>1752</ele>
        <time>2016-04-03T12:18:10Z</time>
      </trkpt>
      <trkpt lat="46.01946" lon="6.58168">
        <ele>1752</ele>
        <time>2016-04-03T12:18:11Z</time>
      </trkpt>
      <trkpt lat="46.01945" lon="6.58169">
        <ele>1751</ele>
        <time>2016-04-03T12:18:13Z</time>
      </trkpt>
      <trkpt lat="46.01945" lon="6.5817">
        <ele>1750</ele>
        <time>2016-04-03T12:18:14Z</time>
      </trkpt>
      <trkpt lat="46.01945" lon="6.5817">
        <ele>1749</ele>
        <time>2016-04-03T12:18:15Z</time>
      </trkpt>
      <trkpt lat="46.01945" lon="6.58175">
        <ele>1748</ele>
        <time>2016-04-03T12:18:17Z</time>
      </trkpt>
      <trkpt lat="46.0195" lon="6.58181">
        <ele>1748</ele>
        <time>2016-04-03T12:18:19Z</time>
      </trkpt>
      <trkpt lat="46.01955" lon="6.58185">
        <ele>1747</ele>
        <time>2016-04-03T12:18:20Z</time>
      </trkpt>
      <trkpt lat="46.01957" lon="6.58188">
        <ele>1746</ele>
        <time>2016-04-03T12:18:21Z</time>
      </trkpt>
      <trkpt lat="46.01958" lon="6.58189">
        <ele>1744</ele>
        <time>2016-04-03T12:18:22Z</time>
      </trkpt>
      <trkpt lat="46.01958" lon="6.58189">
        <ele>1743</ele>
        <time>2016-04-03T12:18:23Z</time>
      </trkpt>
      <trkpt lat="46.01958" lon="6.58189">
        <ele>1742</ele>
        <time>2016-04-03T12:18:24Z</time>
      </trkpt>
      <trkpt lat="46.01957" lon="6.5819">
        <ele>1741</ele>
        <time>2016-04-03T12:18:27Z</time>
      </trkpt>
      <trkpt lat="46.01957" lon="6.58189">
        <ele>1740</ele>
        <time>2016-04-03T12:18:34Z</time>
      </trkpt>
      <trkpt lat="46.01951" lon="6.58193">
        <ele>1740</ele>
        <time>2016-04-03T12:18:50Z</time>
      </trkpt>
      <trkpt lat="46.01944" lon="6.58197">
        <ele>1740</ele>
        <time>2016-04-03T12:18:54Z</time>
      </trkpt>
      <trkpt lat="46.01942" lon="6.58199">
        <ele>1739</ele>
        <time>2016-04-03T12:18:56Z</time>
      </trkpt>
      <trkpt lat="46.01942" lon="6.582">
        <ele>1738</ele>
        <time>2016-04-03T12:18:57Z</time>
      </trkpt>
      <trkpt lat="46.01938" lon="6.58206">
        <ele>1738</ele>
        <time>2016-04-03T12:19:05Z</time>
      </trkpt>
      <trkpt lat="46.0193" lon="6.58226">
        <ele>1737</ele>
        <time>2016-04-03T12:19:15Z</time>
      </trkpt>
      <trkpt lat="46.01927" lon="6.58257">
        <ele>1736</ele>
        <time>2016-04-03T12:19:24Z</time>
      </trkpt>
      <trkpt lat="46.01929" lon="6.58267">
        <ele>1736</ele>
        <time>2016-04-03T12:19:27Z</time>
      </trkpt>
      <trkpt lat="46.01934" lon="6.58277">
        <ele>1735</ele>
        <time>2016-04-03T12:19:29Z</time>
      </trkpt>
      <trkpt lat="46.01943" lon="6.58291">
        <ele>1734</ele>
        <time>2016-04-03T12:19:32Z</time>
      </trkpt>
      <trkpt lat="46.0195" lon="6.58304">
        <ele>1733</ele>
        <time>2016-04-03T12:19:35Z</time>
      </trkpt>
      <trkpt lat="46.01958" lon="6.58315">
        <ele>1731</ele>
        <time>2016-04-03T12:19:39Z</time>
      </trkpt>
      <trkpt lat="46.01975" lon="6.58318">
        <ele>1730</ele>
        <time>2016-04-03T12:19:44Z</time>
      </trkpt>
      <trkpt lat="46.01983" lon="6.58323">
        <ele>1729</ele>
        <time>2016-04-03T12:19:47Z</time>
      </trkpt>
      <trkpt lat="46.01993" lon="6.58323">
        <ele>1728</ele>
        <time>2016-04-03T12:19:50Z</time>
      </trkpt>
      <trkpt lat="46.01999" lon="6.58321">
        <ele>1727</ele>
        <time>2016-04-03T12:19:52Z</time>
      </trkpt>
      <trkpt lat="46.02002" lon="6.58319">
        <ele>1726</ele>
        <time>2016-04-03T12:19:53Z</time>
      </trkpt>
      <trkpt lat="46.02002" lon="6.58316">
        <ele>1725</ele>
        <time>2016-04-03T12:19:54Z</time>
      </trkpt>
      <trkpt lat="46.02" lon="6.58309">
        <ele>1723</ele>
        <time>2016-04-03T12:19:56Z</time>
      </trkpt>
      <trkpt lat="46.01996" lon="6.58306">
        <ele>1722</ele>
        <time>2016-04-03T12:19:57Z</time>
      </trkpt>
      <trkpt lat="46.01993" lon="6.58304">
        <ele>1721</ele>
        <time>2016-04-03T12:19:58Z</time>
      </trkpt>
      <trkpt lat="46.01986" lon="6.58299">
        <ele>1719</ele>
        <time>2016-04-03T12:20:00Z</time>
      </trkpt>
      <trkpt lat="46.01984" lon="6.58296">
        <ele>1719</ele>
        <time>2016-04-03T12:20:01Z</time>
      </trkpt>
      <trkpt lat="46.01984" lon="6.58287">
        <ele>1718</ele>
        <time>2016-04-03T12:20:03Z</time>
      </trkpt>
      <trkpt lat="46.01988" lon="6.58278">
        <ele>1717</ele>
        <time>2016-04-03T12:20:05Z</time>
      </trkpt>
      <trkpt lat="46.0199" lon="6.58274">
        <ele>1716</ele>
        <time>2016-04-03T12:20:06Z</time>
      </trkpt>
      <trkpt lat="46.01992" lon="6.5827">
        <ele>1715</ele>
        <time>2016-04-03T12:20:07Z</time>
      </trkpt>
      <trkpt lat="46.01998" lon="6.58273">
        <ele>1713</ele>
        <time>2016-04-03T12:20:09Z</time>
      </trkpt>
      <trkpt lat="46.02002" lon="6.58276">
        <ele>1712</ele>
        <time>2016-04-03T12:20:10Z</time>
      </trkpt>
      <trkpt lat="46.02005" lon="6.5828">
        <ele>1710</ele>
        <time>2016-04-03T12:20:11Z</time>
      </trkpt>
      <trkpt lat="46.02008" lon="6.58285">
        <ele>1709</ele>
        <time>2016-04-03T12:20:12Z</time>
      </trkpt>
      <trkpt lat="46.02014" lon="6.58294">
        <ele>1708</ele>
        <time>2016-04-03T12:20:14Z</time>
      </trkpt>
      <trkpt lat="46.02021" lon="6.58301">
        <ele>1707</ele>
        <time>2016-04-03T12:20:16Z</time>
      </trkpt>
      <trkpt lat="46.02029" lon="6.58307">
        <ele>1705</ele>
        <time>2016-04-03T12:20:18Z</time>
      </trkpt>
      <trkpt lat="46.02037" lon="6.58311">
        <ele>1704</ele>
        <time>2016-04-03T12:20:20Z</time>
      </trkpt>
      <trkpt lat="46.02046" lon="6.5832">
        <ele>1703</ele>
        <time>2016-04-03T12:20:22Z</time>
      </trkpt>
      <trkpt lat="46.02054" lon="6.5833">
        <ele>1701</ele>
        <time>2016-04-03T12:20:24Z</time>
      </trkpt>
      <trkpt lat="46.02063" lon="6.58342">
        <ele>1700</ele>
        <time>2016-04-03T12:20:26Z</time>
      </trkpt>
      <trkpt lat="46.02067" lon="6.58348">
        <ele>1698</ele>
        <time>2016-04-03T12:20:27Z</time>
      </trkpt>
      <trkpt lat="46.0207" lon="6.58362">
        <ele>1697</ele>
        <time>2016-04-03T12:20:29Z</time>
      </trkpt>
      <trkpt lat="46.02071" lon="6.58369">
        <ele>1696</ele>
        <time>2016-04-03T12:20:30Z</time>
      </trkpt>
      <trkpt lat="46.0207" lon="6.58376">
        <ele>1696</ele>
        <time>2016-04-03T12:20:31Z</time>
      </trkpt>
      <trkpt lat="46.02069" lon="6.58382">
        <ele>1695</ele>
        <time>2016-04-03T12:20:32Z</time>
      </trkpt>
      <trkpt lat="46.02069" lon="6.58388">
        <ele>1695</ele>
        <time>2016-04-03T12:20:33Z</time>
      </trkpt>
      <trkpt lat="46.02068" lon="6.58394">
        <ele>1694</ele>
        <time>2016-04-03T12:20:34Z</time>
      </trkpt>
      <trkpt lat="46.02067" lon="6.584">
        <ele>1693</ele>
        <time>2016-04-03T12:20:35Z</time>
      </trkpt>
      <trkpt lat="46.02065" lon="6.58412">
        <ele>1692</ele>
        <time>2016-04-03T12:20:37Z</time>
      </trkpt>
      <trkpt lat="46.02065" lon="6.58426">
        <ele>1691</ele>
        <time>2016-04-03T12:20:41Z</time>
      </trkpt>
      <trkpt lat="46.02066" lon="6.58429">
        <ele>1691</ele>
        <time>2016-04-03T12:20:42Z</time>
      </trkpt>
      <trkpt lat="46.02071" lon="6.5845">
        <ele>1690</ele>
        <time>2016-04-03T12:20:47Z</time>
      </trkpt>
      <trkpt lat="46.02072" lon="6.58454">
        <ele>1690</ele>
        <time>2016-04-03T12:20:48Z</time>
      </trkpt>
      <trkpt lat="46.02067" lon="6.58475">
        <ele>1689</ele>
        <time>2016-04-03T12:20:53Z</time>
      </trkpt>
      <trkpt lat="46.02065" lon="6.58487">
        <ele>1688</ele>
        <time>2016-04-03T12:20:57Z</time>
      </trkpt>
      <trkpt lat="46.02063" lon="6.58494">
        <ele>1687</ele>
        <time>2016-04-03T12:21:00Z</time>
      </trkpt>
      <trkpt lat="46.02063" lon="6.58495">
        <ele>1687</ele>
        <time>2016-04-03T12:21:01Z</time>
      </trkpt>
      <trkpt lat="46.02061" lon="6.58504">
        <ele>1686</ele>
        <time>2016-04-03T12:21:32Z</time>
      </trkpt>
      <trkpt lat="46.02058" lon="6.58533">
        <ele>1686</ele>
        <time>2016-04-03T12:21:38Z</time>
      </trkpt>
      <trkpt lat="46.02058" lon="6.58548">
        <ele>1684</ele>
        <time>2016-04-03T12:21:41Z</time>
      </trkpt>
      <trkpt lat="46.0206" lon="6.58567">
        <ele>1683</ele>
        <time>2016-04-03T12:21:45Z</time>
      </trkpt>
      <trkpt lat="46.02063" lon="6.5858">
        <ele>1682</ele>
        <time>2016-04-03T12:21:48Z</time>
      </trkpt>
      <trkpt lat="46.02063" lon="6.58588">
        <ele>1681</ele>
        <time>2016-04-03T12:21:50Z</time>
      </trkpt>
      <trkpt lat="46.02062" lon="6.58592">
        <ele>1681</ele>
        <time>2016-04-03T12:21:51Z</time>
      </trkpt>
      <trkpt lat="46.02056" lon="6.586">
        <ele>1679</ele>
        <time>2016-04-03T12:21:54Z</time>
      </trkpt>
      <trkpt lat="46.02055" lon="6.58602">
        <ele>1678</ele>
        <time>2016-04-03T12:21:56Z</time>
      </trkpt>
      <trkpt lat="46.02055" lon="6.58603">
        <ele>1678</ele>
        <time>2016-04-03T12:21:57Z</time>
      </trkpt>
      <trkpt lat="46.02066" lon="6.58624">
        <ele>1677</ele>
        <time>2016-04-03T12:22:12Z</time>
      </trkpt>
      <trkpt lat="46.02067" lon="6.58638">
        <ele>1675</ele>
        <time>2016-04-03T12:22:14Z</time>
      </trkpt>
      <trkpt lat="46.02069" lon="6.58643">
        <ele>1673</ele>
        <time>2016-04-03T12:22:15Z</time>
      </trkpt>
      <trkpt lat="46.02071" lon="6.58647">
        <ele>1672</ele>
        <time>2016-04-03T12:22:16Z</time>
      </trkpt>
      <trkpt lat="46.02074" lon="6.58649">
        <ele>1670</ele>
        <time>2016-04-03T12:22:17Z</time>
      </trkpt>
      <trkpt lat="46.02078" lon="6.58652">
        <ele>1669</ele>
        <time>2016-04-03T12:22:18Z</time>
      </trkpt>
      <trkpt lat="46.02082" lon="6.58655">
        <ele>1668</ele>
        <time>2016-04-03T12:22:19Z</time>
      </trkpt>
      <trkpt lat="46.02086" lon="6.58659">
        <ele>1667</ele>
        <time>2016-04-03T12:22:20Z</time>
      </trkpt>
      <trkpt lat="46.02092" lon="6.58665">
        <ele>1666</ele>
        <time>2016-04-03T12:22:21Z</time>
      </trkpt>
      <trkpt lat="46.02102" lon="6.58676">
        <ele>1664</ele>
        <time>2016-04-03T12:22:23Z</time>
      </trkpt>
      <trkpt lat="46.02107" lon="6.5868">
        <ele>1663</ele>
        <time>2016-04-03T12:22:24Z</time>
      </trkpt>
      <trkpt lat="46.02111" lon="6.58684">
        <ele>1661</ele>
        <time>2016-04-03T12:22:25Z</time>
      </trkpt>
      <trkpt lat="46.02114" lon="6.58687">
        <ele>1659</ele>
        <time>2016-04-03T12:22:26Z</time>
      </trkpt>
      <trkpt lat="46.02116" lon="6.58688">
        <ele>1658</ele>
        <time>2016-04-03T12:22:27Z</time>
      </trkpt>
      <trkpt lat="46.02116" lon="6.58689">
        <ele>1657</ele>
        <time>2016-04-03T12:22:28Z</time>
      </trkpt>
      <trkpt lat="46.02118" lon="6.58691">
        <ele>1656</ele>
        <time>2016-04-03T12:22:30Z</time>
      </trkpt>
      <trkpt lat="46.02121" lon="6.58695">
        <ele>1655</ele>
        <time>2016-04-03T12:22:34Z</time>
      </trkpt>
      <trkpt lat="46.02124" lon="6.587">
        <ele>1655</ele>
        <time>2016-04-03T12:22:38Z</time>
      </trkpt>
      <trkpt lat="46.02118" lon="6.58695">
        <ele>1656</ele>
        <time>2016-04-03T12:23:52Z</time>
      </trkpt>
      <trkpt lat="46.0211" lon="6.58669">
        <ele>1655</ele>
        <time>2016-04-03T12:24:02Z</time>
      </trkpt>
      <trkpt lat="46.0211" lon="6.58656">
        <ele>1654</ele>
        <time>2016-04-03T12:24:08Z</time>
      </trkpt>
      <trkpt lat="46.02112" lon="6.58654">
        <ele>1654</ele>
        <time>2016-04-03T12:24:10Z</time>
      </trkpt>
      <trkpt lat="46.02115" lon="6.58645">
        <ele>1654</ele>
        <time>2016-04-03T12:24:16Z</time>
      </trkpt>
      <trkpt lat="46.02131" lon="6.58625">
        <ele>1653</ele>
        <time>2016-04-03T12:24:26Z</time>
      </trkpt>
      <trkpt lat="46.02142" lon="6.58616">
        <ele>1652</ele>
        <time>2016-04-03T12:24:32Z</time>
      </trkpt>
      <trkpt lat="46.02143" lon="6.58616">
        <ele>1652</ele>
        <time>2016-04-03T12:24:33Z</time>
      </trkpt>
      <trkpt lat="46.02145" lon="6.58618">
        <ele>1652</ele>
        <time>2016-04-03T12:24:46Z</time>
      </trkpt>
      <trkpt lat="46.02147" lon="6.5862">
        <ele>1651</ele>
        <time>2016-04-03T12:25:45Z</time>
      </trkpt>
      <trkpt lat="46.02149" lon="6.5862">
        <ele>1650</ele>
        <time>2016-04-03T12:26:03Z</time>
      </trkpt>
      <trkpt lat="46.02153" lon="6.58617">
        <ele>1651</ele>
        <time>2016-04-03T12:26:13Z</time>
      </trkpt>
      <trkpt lat="46.02157" lon="6.58615">
        <ele>1650</ele>
        <time>2016-04-03T12:26:16Z</time>
      </trkpt>
      <trkpt lat="46.02162" lon="6.5861">
        <ele>1650</ele>
        <time>2016-04-03T12:26:20Z</time>
      </trkpt>
      <trkpt lat="46.02177" lon="6.58598">
        <ele>1649</ele>
        <time>2016-04-03T12:26:28Z</time>
      </trkpt>
      <trkpt lat="46.0219" lon="6.5859">
        <ele>1648</ele>
        <time>2016-04-03T12:26:32Z</time>
      </trkpt>
      <trkpt lat="46.022" lon="6.58583">
        <ele>1646</ele>
        <time>2016-04-03T12:26:35Z</time>
      </trkpt>
      <trkpt lat="46.02209" lon="6.58576">
        <ele>1645</ele>
        <time>2016-04-03T12:26:38Z</time>
      </trkpt>
      <trkpt lat="46.02214" lon="6.58568">
        <ele>1644</ele>
        <time>2016-04-03T12:26:41Z</time>
      </trkpt>
      <trkpt lat="46.02223" lon="6.58546">
        <ele>1643</ele>
        <time>2016-04-03T12:26:46Z</time>
      </trkpt>
      <trkpt lat="46.02226" lon="6.58537">
        <ele>1642</ele>
        <time>2016-04-03T12:26:48Z</time>
      </trkpt>
      <trkpt lat="46.02229" lon="6.58529">
        <ele>1641</ele>
        <time>2016-04-03T12:26:50Z</time>
      </trkpt>
      <trkpt lat="46.02234" lon="6.58517">
        <ele>1639</ele>
        <time>2016-04-03T12:26:53Z</time>
      </trkpt>
      <trkpt lat="46.02236" lon="6.5851">
        <ele>1638</ele>
        <time>2016-04-03T12:26:55Z</time>
      </trkpt>
      <trkpt lat="46.02236" lon="6.58496">
        <ele>1637</ele>
        <time>2016-04-03T12:26:59Z</time>
      </trkpt>
      <trkpt lat="46.0223" lon="6.58477">
        <ele>1636</ele>
        <time>2016-04-03T12:27:06Z</time>
      </trkpt>
      <trkpt lat="46.02228" lon="6.58464">
        <ele>1635</ele>
        <time>2016-04-03T12:27:10Z</time>
      </trkpt>
      <trkpt lat="46.02227" lon="6.58446">
        <ele>1634</ele>
        <time>2016-04-03T12:27:15Z</time>
      </trkpt>
      <trkpt lat="46.02225" lon="6.58413">
        <ele>1633</ele>
        <time>2016-04-03T12:27:23Z</time>
      </trkpt>
      <trkpt lat="46.02221" lon="6.58392">
        <ele>1631</ele>
        <time>2016-04-03T12:27:26Z</time>
      </trkpt>
      <trkpt lat="46.0222" lon="6.58374">
        <ele>1630</ele>
        <time>2016-04-03T12:27:28Z</time>
      </trkpt>
      <trkpt lat="46.02216" lon="6.58357">
        <ele>1628</ele>
        <time>2016-04-03T12:27:30Z</time>
      </trkpt>
      <trkpt lat="46.02213" lon="6.58348">
        <ele>1627</ele>
        <time>2016-04-03T12:27:31Z</time>
      </trkpt>
      <trkpt lat="46.02207" lon="6.58332">
        <ele>1625</ele>
        <time>2016-04-03T12:27:33Z</time>
      </trkpt>
      <trkpt lat="46.02203" lon="6.58312">
        <ele>1623</ele>
        <time>2016-04-03T12:27:35Z</time>
      </trkpt>
      <trkpt lat="46.02202" lon="6.58302">
        <ele>1622</ele>
        <time>2016-04-03T12:27:36Z</time>
      </trkpt>
      <trkpt lat="46.02202" lon="6.58292">
        <ele>1620</ele>
        <time>2016-04-03T12:27:37Z</time>
      </trkpt>
      <trkpt lat="46.02202" lon="6.58283">
        <ele>1619</ele>
        <time>2016-04-03T12:27:38Z</time>
      </trkpt>
      <trkpt lat="46.02201" lon="6.58271">
        <ele>1617</ele>
        <time>2016-04-03T12:27:39Z</time>
      </trkpt>
      <trkpt lat="46.02202" lon="6.58261">
        <ele>1616</ele>
        <time>2016-04-03T12:27:40Z</time>
      </trkpt>
      <trkpt lat="46.02204" lon="6.58252">
        <ele>1614</ele>
        <time>2016-04-03T12:27:41Z</time>
      </trkpt>
      <trkpt lat="46.02206" lon="6.58244">
        <ele>1613</ele>
        <time>2016-04-03T12:27:42Z</time>
      </trkpt>
      <trkpt lat="46.02208" lon="6.58235">
        <ele>1611</ele>
        <time>2016-04-03T12:27:43Z</time>
      </trkpt>
      <trkpt lat="46.02208" lon="6.58227">
        <ele>1610</ele>
        <time>2016-04-03T12:27:44Z</time>
      </trkpt>
      <trkpt lat="46.02202" lon="6.58213">
        <ele>1608</ele>
        <time>2016-04-03T12:27:46Z</time>
      </trkpt>
      <trkpt lat="46.02197" lon="6.58209">
        <ele>1606</ele>
        <time>2016-04-03T12:27:47Z</time>
      </trkpt>
      <trkpt lat="46.02193" lon="6.58205">
        <ele>1605</ele>
        <time>2016-04-03T12:27:48Z</time>
      </trkpt>
      <trkpt lat="46.02185" lon="6.58196">
        <ele>1604</ele>
        <time>2016-04-03T12:27:50Z</time>
      </trkpt>
      <trkpt lat="46.02182" lon="6.58183">
        <ele>1603</ele>
        <time>2016-04-03T12:27:52Z</time>
      </trkpt>
      <trkpt lat="46.02181" lon="6.58177">
        <ele>1602</ele>
        <time>2016-04-03T12:27:53Z</time>
      </trkpt>
      <trkpt lat="46.02182" lon="6.5817">
        <ele>1601</ele>
        <time>2016-04-03T12:27:54Z</time>
      </trkpt>
      <trkpt lat="46.02183" lon="6.58164">
        <ele>1600</ele>
        <time>2016-04-03T12:27:55Z</time>
      </trkpt>
      <trkpt lat="46.02185" lon="6.58158">
        <ele>1599</ele>
        <time>2016-04-03T12:27:56Z</time>
      </trkpt>
      <trkpt lat="46.02188" lon="6.58153">
        <ele>1599</ele>
        <time>2016-04-03T12:27:57Z</time>
      </trkpt>
      <trkpt lat="46.02196" lon="6.58142">
        <ele>1597</ele>
        <time>2016-04-03T12:27:59Z</time>
      </trkpt>
      <trkpt lat="46.02204" lon="6.58131">
        <ele>1595</ele>
        <time>2016-04-03T12:28:01Z</time>
      </trkpt>
      <trkpt lat="46.02211" lon="6.58121">
        <ele>1593</ele>
        <time>2016-04-03T12:28:03Z</time>
      </trkpt>
      <trkpt lat="46.02215" lon="6.58117">
        <ele>1592</ele>
        <time>2016-04-03T12:28:04Z</time>
      </trkpt>
      <trkpt lat="46.02218" lon="6.58112">
        <ele>1591</ele>
        <time>2016-04-03T12:28:05Z</time>
      </trkpt>
      <trkpt lat="46.02225" lon="6.58104">
        <ele>1590</ele>
        <time>2016-04-03T12:28:07Z</time>
      </trkpt>
      <trkpt lat="46.02229" lon="6.581">
        <ele>1589</ele>
        <time>2016-04-03T12:28:08Z</time>
      </trkpt>
      <trkpt lat="46.02233" lon="6.58097">
        <ele>1588</ele>
        <time>2016-04-03T12:28:09Z</time>
      </trkpt>
      <trkpt lat="46.02237" lon="6.58094">
        <ele>1588</ele>
        <time>2016-04-03T12:28:10Z</time>
      </trkpt>
      <trkpt lat="46.02244" lon="6.58088">
        <ele>1587</ele>
        <time>2016-04-03T12:28:12Z</time>
      </trkpt>
      <trkpt lat="46.0225" lon="6.58078">
        <ele>1586</ele>
        <time>2016-04-03T12:28:14Z</time>
      </trkpt>
      <trkpt lat="46.02258" lon="6.58061">
        <ele>1585</ele>
        <time>2016-04-03T12:28:17Z</time>
      </trkpt>
      <trkpt lat="46.0226" lon="6.58053">
        <ele>1584</ele>
        <time>2016-04-03T12:28:18Z</time>
      </trkpt>
      <trkpt lat="46.02261" lon="6.58044">
        <ele>1583</ele>
        <time>2016-04-03T12:28:19Z</time>
      </trkpt>
      <trkpt lat="46.02261" lon="6.58036">
        <ele>1583</ele>
        <time>2016-04-03T12:28:20Z</time>
      </trkpt>
      <trkpt lat="46.02261" lon="6.58027">
        <ele>1582</ele>
        <time>2016-04-03T12:28:21Z</time>
      </trkpt>
      <trkpt lat="46.02262" lon="6.5802">
        <ele>1581</ele>
        <time>2016-04-03T12:28:22Z</time>
      </trkpt>
      <trkpt lat="46.02262" lon="6.58011">
        <ele>1579</ele>
        <time>2016-04-03T12:28:23Z</time>
      </trkpt>
      <trkpt lat="46.02261" lon="6.58004">
        <ele>1578</ele>
        <time>2016-04-03T12:28:24Z</time>
      </trkpt>
      <trkpt lat="46.0226" lon="6.57996">
        <ele>1577</ele>
        <time>2016-04-03T12:28:25Z</time>
      </trkpt>
      <trkpt lat="46.02257" lon="6.57988">
        <ele>1576</ele>
        <time>2016-04-03T12:28:26Z</time>
      </trkpt>
      <trkpt lat="46.02255" lon="6.57979">
        <ele>1575</ele>
        <time>2016-04-03T12:28:27Z</time>
      </trkpt>
      <trkpt lat="46.02254" lon="6.5797">
        <ele>1574</ele>
        <time>2016-04-03T12:28:28Z</time>
      </trkpt>
      <trkpt lat="46.02252" lon="6.5796">
        <ele>1572</ele>
        <time>2016-04-03T12:28:29Z</time>
      </trkpt>
      <trkpt lat="46.02249" lon="6.57948">
        <ele>1571</ele>
        <time>2016-04-03T12:28:30Z</time>
      </trkpt>
      <trkpt lat="46.02245" lon="6.57939">
        <ele>1570</ele>
        <time>2016-04-03T12:28:31Z</time>
      </trkpt>
      <trkpt lat="46.0224" lon="6.57931">
        <ele>1569</ele>
        <time>2016-04-03T12:28:32Z</time>
      </trkpt>
      <trkpt lat="46.02236" lon="6.57924">
        <ele>1568</ele>
        <time>2016-04-03T12:28:33Z</time>
      </trkpt>
      <trkpt lat="46.02232" lon="6.57919">
        <ele>1567</ele>
        <time>2016-04-03T12:28:34Z</time>
      </trkpt>
      <trkpt lat="46.02232" lon="6.57917">
        <ele>1566</ele>
        <time>2016-04-03T12:28:35Z</time>
      </trkpt>
      <trkpt lat="46.02232" lon="6.57915">
        <ele>1565</ele>
        <time>2016-04-03T12:28:36Z</time>
      </trkpt>
      <trkpt lat="46.02233" lon="6.57916">
        <ele>1563</ele>
        <time>2016-04-03T12:28:37Z</time>
      </trkpt>
      <trkpt lat="46.02234" lon="6.57918">
        <ele>1562</ele>
        <time>2016-04-03T12:28:39Z</time>
      </trkpt>
      <trkpt lat="46.02241" lon="6.57924">
        <ele>1561</ele>
        <time>2016-04-03T12:28:42Z</time>
      </trkpt>
      <trkpt lat="46.0225" lon="6.57932">
        <ele>1560</ele>
        <time>2016-04-03T12:28:44Z</time>
      </trkpt>
      <trkpt lat="46.02261" lon="6.57941">
        <ele>1559</ele>
        <time>2016-04-03T12:28:46Z</time>
      </trkpt>
      <trkpt lat="46.02273" lon="6.57951">
        <ele>1557</ele>
        <time>2016-04-03T12:28:48Z</time>
      </trkpt>
      <trkpt lat="46.02283" lon="6.57959">
        <ele>1556</ele>
        <time>2016-04-03T12:28:50Z</time>
      </trkpt>
      <trkpt lat="46.02285" lon="6.57958">
        <ele>1554</ele>
        <time>2016-04-03T12:28:52Z</time>
      </trkpt>
      <trkpt lat="46.02286" lon="6.57956">
        <ele>1553</ele>
        <time>2016-04-03T12:28:53Z</time>
      </trkpt>
      <trkpt lat="46.02286" lon="6.57956">
        <ele>1551</ele>
        <time>2016-04-03T12:28:54Z</time>
      </trkpt>
      <trkpt lat="46.02286" lon="6.57956">
        <ele>1550</ele>
        <time>2016-04-03T12:28:56Z</time>
      </trkpt>
      <trkpt lat="46.02293" lon="6.57941">
        <ele>1549</ele>
        <time>2016-04-03T12:29:06Z</time>
      </trkpt>
      <trkpt lat="46.02294" lon="6.57936">
        <ele>1548</ele>
        <time>2016-04-03T12:29:07Z</time>
      </trkpt>
      <trkpt lat="46.02296" lon="6.57932">
        <ele>1547</ele>
        <time>2016-04-03T12:29:08Z</time>
      </trkpt>
      <trkpt lat="46.023" lon="6.57928">
        <ele>1545</ele>
        <time>2016-04-03T12:29:09Z</time>
      </trkpt>
      <trkpt lat="46.02303" lon="6.57924">
        <ele>1543</ele>
        <time>2016-04-03T12:29:10Z</time>
      </trkpt>
      <trkpt lat="46.02306" lon="6.5792">
        <ele>1541</ele>
        <time>2016-04-03T12:29:11Z</time>
      </trkpt>
      <trkpt lat="46.02309" lon="6.57918">
        <ele>1539</ele>
        <time>2016-04-03T12:29:12Z</time>
      </trkpt>
      <trkpt lat="46.02312" lon="6.57915">
        <ele>1537</ele>
        <time>2016-04-03T12:29:13Z</time>
      </trkpt>
      <trkpt lat="46.02315" lon="6.57911">
        <ele>1535</ele>
        <time>2016-04-03T12:29:14Z</time>
      </trkpt>
      <trkpt lat="46.02318" lon="6.57908">
        <ele>1533</ele>
        <time>2016-04-03T12:29:15Z</time>
      </trkpt>
      <trkpt lat="46.0232" lon="6.57904">
        <ele>1531</ele>
        <time>2016-04-03T12:29:16Z</time>
      </trkpt>
      <trkpt lat="46.02321" lon="6.57902">
        <ele>1529</ele>
        <time>2016-04-03T12:29:17Z</time>
      </trkpt>
      <trkpt lat="46.02322" lon="6.57902">
        <ele>1527</ele>
        <time>2016-04-03T12:29:18Z</time>
      </trkpt>
      <trkpt lat="46.02322" lon="6.57901">
        <ele>1525</ele>
        <time>2016-04-03T12:29:19Z</time>
      </trkpt>
      <trkpt lat="46.02321" lon="6.57902">
        <ele>1523</ele>
        <time>2016-04-03T12:29:20Z</time>
      </trkpt>
      <trkpt lat="46.02321" lon="6.57903">
        <ele>1522</ele>
        <time>2016-04-03T12:29:21Z</time>
      </trkpt>
      <trkpt lat="46.0232" lon="6.57904">
        <ele>1521</ele>
        <time>2016-04-03T12:29:23Z</time>
      </trkpt>
      <trkpt lat="46.02335" lon="6.57899">
        <ele>1520</ele>
        <time>2016-04-03T12:29:29Z</time>
      </trkpt>
      <trkpt lat="46.02349" lon="6.57902">
        <ele>1519</ele>
        <time>2016-04-03T12:29:31Z</time>
      </trkpt>
      <trkpt lat="46.02356" lon="6.57903">
        <ele>1518</ele>
        <time>2016-04-03T12:29:32Z</time>
      </trkpt>
      <trkpt lat="46.02362" lon="6.57906">
        <ele>1517</ele>
        <time>2016-04-03T12:29:33Z</time>
      </trkpt>
      <trkpt lat="46.02366" lon="6.57909">
        <ele>1515</ele>
        <time>2016-04-03T12:29:34Z</time>
      </trkpt>
      <trkpt lat="46.0237" lon="6.57911">
        <ele>1513</ele>
        <time>2016-04-03T12:29:35Z</time>
      </trkpt>
      <trkpt lat="46.02373" lon="6.57909">
        <ele>1510</ele>
        <time>2016-04-03T12:29:36Z</time>
      </trkpt>
      <trkpt lat="46.02374" lon="6.57902">
        <ele>1508</ele>
        <time>2016-04-03T12:29:37Z</time>
      </trkpt>
      <trkpt lat="46.02377" lon="6.57897">
        <ele>1506</ele>
        <time>2016-04-03T12:29:38Z</time>
      </trkpt>
      <trkpt lat="46.02382" lon="6.57897">
        <ele>1504</ele>
        <time>2016-04-03T12:29:39Z</time>
      </trkpt>
      <trkpt lat="46.02385" lon="6.57896">
        <ele>1502</ele>
        <time>2016-04-03T12:29:40Z</time>
      </trkpt>
      <trkpt lat="46.02387" lon="6.57891">
        <ele>1499</ele>
        <time>2016-04-03T12:29:41Z</time>
      </trkpt>
      <trkpt lat="46.02389" lon="6.57887">
        <ele>1496</ele>
        <time>2016-04-03T12:29:42Z</time>
      </trkpt>
      <trkpt lat="46.02393" lon="6.57885">
        <ele>1494</ele>
        <time>2016-04-03T12:29:43Z</time>
      </trkpt>
      <trkpt lat="46.02397" lon="6.57888">
        <ele>1492</ele>
        <time>2016-04-03T12:29:44Z</time>
      </trkpt>
      <trkpt lat="46.024" lon="6.57891">
        <ele>1490</ele>
        <time>2016-04-03T12:29:45Z</time>
      </trkpt>
      <trkpt lat="46.02402" lon="6.57894">
        <ele>1488</ele>
        <time>2016-04-03T12:29:46Z</time>
      </trkpt>
      <trkpt lat="46.02405" lon="6.57897">
        <ele>1486</ele>
        <time>2016-04-03T12:29:47Z</time>
      </trkpt>
      <trkpt lat="46.02408" lon="6.579">
        <ele>1484</ele>
        <time>2016-04-03T12:29:48Z</time>
      </trkpt>
      <trkpt lat="46.02412" lon="6.57896">
        <ele>1482</ele>
        <time>2016-04-03T12:29:50Z</time>
      </trkpt>
      <trkpt lat="46.02412" lon="6.5789">
        <ele>1481</ele>
        <time>2016-04-03T12:29:51Z</time>
      </trkpt>
      <trkpt lat="46.02411" lon="6.57885">
        <ele>1480</ele>
        <time>2016-04-03T12:29:52Z</time>
      </trkpt>
      <trkpt lat="46.0241" lon="6.5788">
        <ele>1478</ele>
        <time>2016-04-03T12:29:53Z</time>
      </trkpt>
      <trkpt lat="46.02408" lon="6.57874">
        <ele>1477</ele>
        <time>2016-04-03T12:29:54Z</time>
      </trkpt>
      <trkpt lat="46.02406" lon="6.5787">
        <ele>1475</ele>
        <time>2016-04-03T12:29:55Z</time>
      </trkpt>
      <trkpt lat="46.02404" lon="6.57866">
        <ele>1474</ele>
        <time>2016-04-03T12:29:56Z</time>
      </trkpt>
      <trkpt lat="46.02403" lon="6.57862">
        <ele>1473</ele>
        <time>2016-04-03T12:29:57Z</time>
      </trkpt>
      <trkpt lat="46.02404" lon="6.57857">
        <ele>1472</ele>
        <time>2016-04-03T12:29:58Z</time>
      </trkpt>
      <trkpt lat="46.02407" lon="6.57853">
        <ele>1472</ele>
        <time>2016-04-03T12:29:59Z</time>
      </trkpt>
      <trkpt lat="46.02415" lon="6.57851">
        <ele>1470</ele>
        <time>2016-04-03T12:30:01Z</time>
      </trkpt>
      <trkpt lat="46.02419" lon="6.57847">
        <ele>1468</ele>
        <time>2016-04-03T12:30:02Z</time>
      </trkpt>
      <trkpt lat="46.02423" lon="6.57844">
        <ele>1466</ele>
        <time>2016-04-03T12:30:03Z</time>
      </trkpt>
      <trkpt lat="46.02428" lon="6.57842">
        <ele>1465</ele>
        <time>2016-04-03T12:30:04Z</time>
      </trkpt>
      <trkpt lat="46.02431" lon="6.5784">
        <ele>1463</ele>
        <time>2016-04-03T12:30:05Z</time>
      </trkpt>
      <trkpt lat="46.02434" lon="6.57834">
        <ele>1461</ele>
        <time>2016-04-03T12:30:06Z</time>
      </trkpt>
      <trkpt lat="46.02438" lon="6.57827">
        <ele>1459</ele>
        <time>2016-04-03T12:30:07Z</time>
      </trkpt>
      <trkpt lat="46.02444" lon="6.57822">
        <ele>1457</ele>
        <time>2016-04-03T12:30:08Z</time>
      </trkpt>
      <trkpt lat="46.02451" lon="6.57821">
        <ele>1455</ele>
        <time>2016-04-03T12:30:09Z</time>
      </trkpt>
      <trkpt lat="46.02457" lon="6.57824">
        <ele>1453</ele>
        <time>2016-04-03T12:30:10Z</time>
      </trkpt>
      <trkpt lat="46.0246" lon="6.57829">
        <ele>1450</ele>
        <time>2016-04-03T12:30:11Z</time>
      </trkpt>
      <trkpt lat="46.02461" lon="6.57833">
        <ele>1448</ele>
        <time>2016-04-03T12:30:12Z</time>
      </trkpt>
      <trkpt lat="46.0246" lon="6.57834">
        <ele>1445</ele>
        <time>2016-04-03T12:30:13Z</time>
      </trkpt>
      <trkpt lat="46.02459" lon="6.57833">
        <ele>1443</ele>
        <time>2016-04-03T12:30:14Z</time>
      </trkpt>
      <trkpt lat="46.02458" lon="6.57833">
        <ele>1442</ele>
        <time>2016-04-03T12:30:15Z</time>
      </trkpt>
      <trkpt lat="46.02454" lon="6.57829">
        <ele>1441</ele>
        <time>2016-04-03T12:30:18Z</time>
      </trkpt>
      <trkpt lat="46.02461" lon="6.57828">
        <ele>1440</ele>
        <time>2016-04-03T12:30:33Z</time>
      </trkpt>
      <trkpt lat="46.02462" lon="6.57822">
        <ele>1440</ele>
        <time>2016-04-03T12:30:34Z</time>
      </trkpt>
      <trkpt lat="46.02466" lon="6.57811">
        <ele>1439</ele>
        <time>2016-04-03T12:30:36Z</time>
      </trkpt>
      <trkpt lat="46.02469" lon="6.57807">
        <ele>1438</ele>
        <time>2016-04-03T12:30:37Z</time>
      </trkpt>
      <trkpt lat="46.02473" lon="6.57803">
        <ele>1436</ele>
        <time>2016-04-03T12:30:38Z</time>
      </trkpt>
      <trkpt lat="46.02478" lon="6.57799">
        <ele>1434</ele>
        <time>2016-04-03T12:30:39Z</time>
      </trkpt>
      <trkpt lat="46.02483" lon="6.57795">
        <ele>1432</ele>
        <time>2016-04-03T12:30:40Z</time>
      </trkpt>
      <trkpt lat="46.02487" lon="6.57791">
        <ele>1430</ele>
        <time>2016-04-03T12:30:41Z</time>
      </trkpt>
      <trkpt lat="46.02491" lon="6.57786">
        <ele>1428</ele>
        <time>2016-04-03T12:30:42Z</time>
      </trkpt>
      <trkpt lat="46.02496" lon="6.57781">
        <ele>1426</ele>
        <time>2016-04-03T12:30:43Z</time>
      </trkpt>
      <trkpt lat="46.025" lon="6.57775">
        <ele>1424</ele>
        <time>2016-04-03T12:30:44Z</time>
      </trkpt>
      <trkpt lat="46.02503" lon="6.57769">
        <ele>1421</ele>
        <time>2016-04-03T12:30:45Z</time>
      </trkpt>
      <trkpt lat="46.02507" lon="6.57765">
        <ele>1419</ele>
        <time>2016-04-03T12:30:46Z</time>
      </trkpt>
      <trkpt lat="46.02512" lon="6.57763">
        <ele>1416</ele>
        <time>2016-04-03T12:30:47Z</time>
      </trkpt>
      <trkpt lat="46.02518" lon="6.57764">
        <ele>1414</ele>
        <time>2016-04-03T12:30:48Z</time>
      </trkpt>
      <trkpt lat="46.02522" lon="6.57763">
        <ele>1412</ele>
        <time>2016-04-03T12:30:49Z</time>
      </trkpt>
      <trkpt lat="46.02527" lon="6.57759">
        <ele>1409</ele>
        <time>2016-04-03T12:30:50Z</time>
      </trkpt>
      <trkpt lat="46.02532" lon="6.57756">
        <ele>1407</ele>
        <time>2016-04-03T12:30:51Z</time>
      </trkpt>
      <trkpt lat="46.02537" lon="6.57754">
        <ele>1406</ele>
        <time>2016-04-03T12:30:52Z</time>
      </trkpt>
      <trkpt lat="46.02542" lon="6.57749">
        <ele>1404</ele>
        <time>2016-04-03T12:30:53Z</time>
      </trkpt>
      <trkpt lat="46.02548" lon="6.57746">
        <ele>1401</ele>
        <time>2016-04-03T12:30:54Z</time>
      </trkpt>
      <trkpt lat="46.02554" lon="6.57741">
        <ele>1399</ele>
        <time>2016-04-03T12:30:55Z</time>
      </trkpt>
      <trkpt lat="46.02558" lon="6.57733">
        <ele>1397</ele>
        <time>2016-04-03T12:30:56Z</time>
      </trkpt>
      <trkpt lat="46.02563" lon="6.57723">
        <ele>1395</ele>
        <time>2016-04-03T12:30:57Z</time>
      </trkpt>
      <trkpt lat="46.02567" lon="6.57713">
        <ele>1393</ele>
        <time>2016-04-03T12:30:58Z</time>
      </trkpt>
      <trkpt lat="46.0257" lon="6.57701">
        <ele>1392</ele>
        <time>2016-04-03T12:30:59Z</time>
      </trkpt>
      <trkpt lat="46.02572" lon="6.57689">
        <ele>1390</ele>
        <time>2016-04-03T12:31:00Z</time>
      </trkpt>
      <trkpt lat="46.02575" lon="6.57677">
        <ele>1387</ele>
        <time>2016-04-03T12:31:01Z</time>
      </trkpt>
      <trkpt lat="46.02579" lon="6.57666">
        <ele>1385</ele>
        <time>2016-04-03T12:31:02Z</time>
      </trkpt>
      <trkpt lat="46.02585" lon="6.57658">
        <ele>1383</ele>
        <time>2016-04-03T12:31:03Z</time>
      </trkpt>
      <trkpt lat="46.02593" lon="6.57654">
        <ele>1381</ele>
        <time>2016-04-03T12:31:04Z</time>
      </trkpt>
      <trkpt lat="46.02602" lon="6.5765">
        <ele>1379</ele>
        <time>2016-04-03T12:31:05Z</time>
      </trkpt>
      <trkpt lat="46.0261" lon="6.57644">
        <ele>1377</ele>
        <time>2016-04-03T12:31:06Z</time>
      </trkpt>
      <trkpt lat="46.02618" lon="6.57634">
        <ele>1375</ele>
        <time>2016-04-03T12:31:07Z</time>
      </trkpt>
      <trkpt lat="46.02626" lon="6.57626">
        <ele>1372</ele>
        <time>2016-04-03T12:31:08Z</time>
      </trkpt>
      <trkpt lat="46.02636" lon="6.57622">
        <ele>1370</ele>
        <time>2016-04-03T12:31:09Z</time>
      </trkpt>
      <trkpt lat="46.02646" lon="6.57622">
        <ele>1367</ele>
        <time>2016-04-03T12:31:10Z</time>
      </trkpt>
      <trkpt lat="46.02654" lon="6.57626">
        <ele>1364</ele>
        <time>2016-04-03T12:31:11Z</time>
      </trkpt>
      <trkpt lat="46.02663" lon="6.5763">
        <ele>1360</ele>
        <time>2016-04-03T12:31:12Z</time>
      </trkpt>
      <trkpt lat="46.02672" lon="6.5763">
        <ele>1357</ele>
        <time>2016-04-03T12:31:13Z</time>
      </trkpt>
      <trkpt lat="46.02681" lon="6.57624">
        <ele>1354</ele>
        <time>2016-04-03T12:31:14Z</time>
      </trkpt>
      <trkpt lat="46.0269" lon="6.57618">
        <ele>1351</ele>
        <time>2016-04-03T12:31:15Z</time>
      </trkpt>
      <trkpt lat="46.02698" lon="6.5761">
        <ele>1350</ele>
        <time>2016-04-03T12:31:16Z</time>
      </trkpt>
      <trkpt lat="46.02706" lon="6.57602">
        <ele>1348</ele>
        <time>2016-04-03T12:31:17Z</time>
      </trkpt>
      <trkpt lat="46.02714" lon="6.57595">
        <ele>1346</ele>
        <time>2016-04-03T12:31:18Z</time>
      </trkpt>
      <trkpt lat="46.0272" lon="6.57586">
        <ele>1344</ele>
        <time>2016-04-03T12:31:19Z</time>
      </trkpt>
      <trkpt lat="46.02727" lon="6.57579">
        <ele>1342</ele>
        <time>2016-04-03T12:31:20Z</time>
      </trkpt>
      <trkpt lat="46.02734" lon="6.57573">
        <ele>1340</ele>
        <time>2016-04-03T12:31:21Z</time>
      </trkpt>
      <trkpt lat="46.02741" lon="6.57566">
        <ele>1338</ele>
        <time>2016-04-03T12:31:22Z</time>
      </trkpt>
      <trkpt lat="46.02749" lon="6.5756">
        <ele>1336</ele>
        <time>2016-04-03T12:31:23Z</time>
      </trkpt>
      <trkpt lat="46.02756" lon="6.57556">
        <ele>1335</ele>
        <time>2016-04-03T12:31:24Z</time>
      </trkpt>
      <trkpt lat="46.02763" lon="6.57555">
        <ele>1333</ele>
        <time>2016-04-03T12:31:25Z</time>
      </trkpt>
      <trkpt lat="46.0277" lon="6.57555">
        <ele>1331</ele>
        <time>2016-04-03T12:31:26Z</time>
      </trkpt>
      <trkpt lat="46.02778" lon="6.57556">
        <ele>1328</ele>
        <time>2016-04-03T12:31:27Z</time>
      </trkpt>
      <trkpt lat="46.02785" lon="6.57558">
        <ele>1325</ele>
        <time>2016-04-03T12:31:28Z</time>
      </trkpt>
      <trkpt lat="46.02793" lon="6.57559">
        <ele>1323</ele>
        <time>2016-04-03T12:31:29Z</time>
      </trkpt>
      <trkpt lat="46.02801" lon="6.57561">
        <ele>1322</ele>
        <time>2016-04-03T12:31:30Z</time>
      </trkpt>
      <trkpt lat="46.02809" lon="6.57562">
        <ele>1321</ele>
        <time>2016-04-03T12:31:31Z</time>
      </trkpt>
      <trkpt lat="46.02824" lon="6.57564">
        <ele>1319</ele>
        <time>2016-04-03T12:31:33Z</time>
      </trkpt>
      <trkpt lat="46.02837" lon="6.57564">
        <ele>1317</ele>
        <time>2016-04-03T12:31:35Z</time>
      </trkpt>
      <trkpt lat="46.02848" lon="6.57564">
        <ele>1316</ele>
        <time>2016-04-03T12:31:37Z</time>
      </trkpt>
      <trkpt lat="46.0286" lon="6.57565">
        <ele>1314</ele>
        <time>2016-04-03T12:31:39Z</time>
      </trkpt>
      <trkpt lat="46.02872" lon="6.57566">
        <ele>1313</ele>
        <time>2016-04-03T12:31:41Z</time>
      </trkpt>
      <trkpt lat="46.02884" lon="6.57568">
        <ele>1311</ele>
        <time>2016-04-03T12:31:43Z</time>
      </trkpt>
      <trkpt lat="46.02891" lon="6.57569">
        <ele>1309</ele>
        <time>2016-04-03T12:31:44Z</time>
      </trkpt>
      <trkpt lat="46.02898" lon="6.57571">
        <ele>1306</ele>
        <time>2016-04-03T12:31:45Z</time>
      </trkpt>
      <trkpt lat="46.02904" lon="6.57572">
        <ele>1305</ele>
        <time>2016-04-03T12:31:46Z</time>
      </trkpt>
      <trkpt lat="46.02911" lon="6.57574">
        <ele>1303</ele>
        <time>2016-04-03T12:31:47Z</time>
      </trkpt>
      <trkpt lat="46.02917" lon="6.57575">
        <ele>1302</ele>
        <time>2016-04-03T12:31:48Z</time>
      </trkpt>
      <trkpt lat="46.02923" lon="6.57577">
        <ele>1300</ele>
        <time>2016-04-03T12:31:49Z</time>
      </trkpt>
      <trkpt lat="46.02936" lon="6.57582">
        <ele>1299</ele>
        <time>2016-04-03T12:31:51Z</time>
      </trkpt>
      <trkpt lat="46.02955" lon="6.57587">
        <ele>1298</ele>
        <time>2016-04-03T12:31:54Z</time>
      </trkpt>
      <trkpt lat="46.0297" lon="6.57595">
        <ele>1296</ele>
        <time>2016-04-03T12:31:57Z</time>
      </trkpt>
      <trkpt lat="46.02979" lon="6.57601">
        <ele>1295</ele>
        <time>2016-04-03T12:31:59Z</time>
      </trkpt>
      <trkpt lat="46.02988" lon="6.57606">
        <ele>1294</ele>
        <time>2016-04-03T12:32:01Z</time>
      </trkpt>
      <trkpt lat="46.02995" lon="6.5761">
        <ele>1293</ele>
        <time>2016-04-03T12:32:03Z</time>
      </trkpt>
      <trkpt lat="46.02998" lon="6.57611">
        <ele>1292</ele>
        <time>2016-04-03T12:32:04Z</time>
      </trkpt>
      <trkpt lat="46.03" lon="6.5761">
        <ele>1292</ele>
        <time>2016-04-03T12:32:05Z</time>
      </trkpt>
      <trkpt lat="46.03002" lon="6.57609">
        <ele>1291</ele>
        <time>2016-04-03T12:32:06Z</time>
      </trkpt>
      <trkpt lat="46.03002" lon="6.57608">
        <ele>1291</ele>
        <time>2016-04-03T12:32:07Z</time>
      </trkpt>
      <trkpt lat="46.03003" lon="6.57606">
        <ele>1290</ele>
        <time>2016-04-03T12:32:09Z</time>
      </trkpt>
      <trkpt lat="46.03005" lon="6.57603">
        <ele>1290</ele>
        <time>2016-04-03T12:32:13Z</time>
      </trkpt>
    </trkseg>
  </trk>
</gpx>